[[{"header":{"parameterUnit":"m.s-1","parameterCategory":1,"la1":31.0,"la2":29.5877,"lo1":-88.7671,"lo2":-86.6584,"dx":0.0162,"dy":0.0185,"nx":115,"ny":88,"refTime":"2023-01-31T18:00:00:Z","depth":0,"parameterNumber":2,"parameterNumberName":"U-component_of_WINDS"},"data":[0.0,0.0,0.0,0.0,0.0,0.0,0.0,0.0,0.0,0.0,0.0,0.0,0.0,0.0,0.0,0.0,0.0,0.0,0.0,0.0,0.0,0.0,0.0,0.0,0.0,0.0,0.0,0.0,0.0,0.0,0.0,0.0,0.0,0.0,0.0,0.0,0.0,0.0,0.0,0.0,0.0,0.0,0.0,0.0,0.0,0.0,0.0,0.0,0.0,0.0,0.0,0.0,0.0,0.0,0.0,0.0,0.0,0.0,0.0,0.0,0.0,0.0,0.0,0.0,0.0,0.0,0.0,0.0,0.0,0.0,0.0,0.0,0.0,0.0,0.0,0.0,0.0,0.0,0.0,0.0,0.0,0.0,0.0,0.0,0.0,0.0,0.0,0.0,0.0,0.0,0.0,0.0,0.0,0.0,0.0,0.0,0.0,0.0,0.0,0.0,0.0,0.0,0.0,0.0,0.0,0.0,0.0,0.0,0.0,0.0,0.0,0.0,0.0,0.0,0.0,0.0,0.0,0.0,0.0,0.0,0.0,0.0,0.0,0.0,0.0,0.0,0.0,0.0,0.0,0.0,0.0,0.0,0.0,0.0,0.0,0.0,0.0,0.0,0.0,0.0,0.0,0.0,0.0,0.0,0.0,0.0,0.0,0.0,0.0,0.0,0.0,0.0,0.0,0.0,0.0,0.0,0.0,0.0,0.0,0.0,0.0,0.0,0.0,0.0,0.0,0.0,0.0,0.0,0.0,0.0,0.0,0.0,0.0,0.0,0.0,0.0,0.0,0.0,0.0,0.0,0.0,0.0,0.0,0.0,0.0,0.0,0.0,0.0,0.0,0.0,0.0,0.0,0.0,0.0,0.0,0.0,0.0,0.0,0.0,0.0,0.0,0.0,0.0,0.0,0.0,0.0,0.0,0.0,0.0,0.0,0.0,0.0,0.0,0.0,0.0,0.0,0.0,0.0,0.0,0.0,0.0,0.0,0.0,0.0,0.0,0.0,0.0,0.0,0.0,0.0,0.0,0.0,0.0,0.0,0.0,0.0,0.0,0.0,0.0,0.0,0.0,0.0,0.0,0.0,0.0,0.0,0.0,0.0,0.0,0.0,0.0,0.0,0.0,0.0,0.0,0.0,0.0,0.0,0.0,0.0,0.0,0.0,0.0,0.0,0.0,0.0,0.0,0.0,0.0,0.0,0.0,0.0,0.0,0.0,0.0,0.0,0.0,0.0,0.0,0.0,0.0,0.0,0.0,0.0,0.0,0.0,0.0,0.0,0.0,0.0,0.0,0.0,0.0,0.0,0.0,0.0,0.0,0.0,0.0,0.0,0.0,0.0,0.0,0.0,0.0,0.0,0.0,0.0,0.0,0.0,0.0,0.0,0.0,0.0,0.0,0.0,0.0,0.0,0.0,0.0,0.0,0.0,0.0,0.0,0.0,0.0,0.0,0.0,0.0,0.0,0.0,0.0,0.0,0.0,0.0,0.0,0.0,0.0,0.0,0.0,0.0,0.0,0.0,0.0,0.0,0.0,0.0,0.0,0.0,0.0,0.0,0.0,0.0,0.0,0.0,0.0,0.0,0.0,0.0,0.0,0.0,0.0,0.0,0.0,0.0,0.0,0.0,0.0,0.0,0.0,0.0,0.0,0.0,0.0,0.0,0.0,0.0,0.0,0.0,0.0,0.0,0.0,0.0,0.0,0.0,0.0,0.0,0.0,0.0,0.0,0.0,0.0,0.0,0.0,0.0,0.0,0.0,0.0,0.0,0.0,0.0,0.0,0.0,0.0,0.0,0.0,0.0,0.0,0.0,0.0,0.0,0.0,0.0,0.0,0.0,0.0,0.0,0.0,0.0,0.0,0.0,0.0,0.0,0.0,0.0,0.0,0.0,0.0,0.0,0.0,0.0,0.0,0.0,0.0,0.0,0.0,0.0,0.0,0.0,0.0,0.0,0.0,0.0,0.0,0.0,0.0,0.0,0.0,0.0,0.0,0.0,0.0,0.0,0.0,0.0,0.0,0.0,0.0,0.0,0.0,0.0,0.0,0.0,0.0,0.0,0.0,0.0,0.0,0.0,0.0,0.0,0.0,0.0,0.0,0.0,0.0,0.0,0.0,0.0,0.0,0.0,0.0,0.0,0.0,0.0,0.0,0.0,0.0,0.0,0.0,0.0,0.0,0.0,0.0,0.0,0.0,0.0,0.0,0.0,0.0,0.0,0.0,0.0,0.0,0.0,0.0,0.0,0.0,0.0,0.0,0.0,0.0,0.0,0.0,0.0,0.0,0.0,0.0,0.0,0.0,0.0,0.0,0.0,0.0,0.0,0.0,0.0,0.0,0.0,0.0,0.0,0.0,0.0,0.0,0.0,0.0,0.0,0.0,0.0,0.0,0.0,0.0,0.0,0.0,0.0,0.0,0.0,0.0,0.0,0.0,0.0,0.0,0.0,0.0,0.0,0.0,0.0,0.0,0.0,0.0,0.0,0.0,0.0,0.0,0.0,0.0,0.0,0.0,0.0,0.0,0.0,0.0,0.0,0.0,0.0,0.0,0.0,0.0,0.0,0.0,0.0,0.0,0.0,0.0,0.0,0.0,0.0,0.0,0.0,0.0,0.0,0.0,0.0,0.0,0.0,0.0,0.0,0.0,0.0,0.0,0.0,0.0,0.0,0.0,0.0,0.0,0.0,0.0,0.0,0.0,0.0,0.0,0.0,0.0,0.0,0.0,0.0,0.0,0.0,0.0,0.0,0.0,0.0,0.0,0.0,0.0,0.0,0.0,0.0,0.0,0.0,0.0,0.0,0.0,0.0,0.0,0.0,0.0,0.0,0.0,0.0,0.0,0.0,0.0,0.0,0.0,0.0,0.0,0.0,0.0,0.0,0.0,0.0,0.0,0.0,0.0,0.0,0.0,0.0,0.0,0.0,0.0,0.0,0.0,0.0,0.0,0.0,0.0,0.0,0.0,0.0,0.0,0.0,0.0,0.0,0.0,0.0,0.0,0.0,0.0,0.0,0.0,0.0,0.0,0.0,0.0,0.0,0.0,0.0,0.0,0.0,0.0,0.0,0.0,0.0,0.0,0.0,0.0,0.0,0.0,0.0,0.0,0.0,0.0,0.0,0.0,0.0,0.0,0.0,0.0,0.0,0.0,0.0,0.0,0.0,0.0,0.0,0.0,0.0,0.0,0.0,0.0,0.0,0.0,0.0,0.0,0.0,0.0,0.0,0.0,0.0,0.0,0.0,0.0,0.0,0.0,0.0,0.0,0.0,0.0,0.0,0.0,0.0,0.0,0.0,0.0,0.0,0.0,0.0,0.0,0.0,0.0,0.0,0.0,0.0,0.0,0.0,0.0,0.0,0.0,0.0,0.0,0.0,0.0,0.0,0.0,0.0,0.0,0.0,0.0,0.0,0.0,0.0,0.0,0.0,0.0,0.0,0.0,0.0,0.0,0.0,0.0,0.0,0.0,0.0,0.0,0.0,0.0,0.0,0.0,0.0,0.0,0.0,0.0,0.0,0.0,0.0,0.0,0.0,0.0,0.0,0.0,0.0,0.0,0.0,0.0,0.0,0.0,0.0,0.0,0.0,0.0,0.0,0.0,0.0,0.0,0.0,0.0,0.0,0.0,0.0,0.0,0.0,0.0,0.0,0.0,0.0,0.0,0.0,0.0,0.0,0.0,0.0,0.0,0.0,0.0,0.0,0.0,0.0,0.0,0.0,0.0,0.0,0.0,0.0,0.0,0.0,0.0,0.0,0.0,0.0,0.0,0.0,0.0,0.0,0.0,0.0,0.0,0.0,0.0,0.0,0.0,0.0,0.0,0.0,0.0,0.0,0.0,0.0,0.0,0.0,0.0,0.0,0.0,0.0,0.0,0.0,0.0,0.0,0.0,0.0,0.0,0.0,0.0,0.0,0.0,0.0,0.0,0.0,0.0,0.0,0.0,0.0,0.0,0.0,0.0,0.0,0.0,0.0,0.0,0.0,0.0,0.0,0.0,0.0,0.0,0.0,0.0,0.0,0.0,0.0,0.0,0.0,0.0,0.0,0.0,0.0,0.0,0.0,0.0,0.0,0.0,0.0,0.0,0.0,0.0,0.0,0.0,0.0,0.0,0.0,0.0,0.0,0.0,0.0,0.0,0.0,0.0,0.0,0.0,0.0,0.0,0.0,0.0,0.0,0.0,0.0,0.0,0.0,0.0,0.0,0.0,0.0,0.0,0.0,0.0,0.0,0.0,0.0,0.0,0.0,0.0,0.0,0.0,0.0,0.0,-1.8608,0.0,0.0,0.0,0.0,0.0,0.0,0.0,0.0,0.0,0.0,0.0,0.0,0.0,0.0,0.0,0.0,0.0,0.0,0.0,0.0,0.0,0.0,0.0,0.0,0.0,0.0,0.0,0.0,0.0,0.0,0.0,0.0,0.0,0.0,0.0,0.0,0.0,0.0,0.0,0.0,0.0,0.0,0.0,0.0,0.0,0.0,0.0,0.0,0.0,0.0,0.0,0.0,0.0,0.0,0.0,0.0,0.0,0.0,0.0,0.0,0.0,0.0,0.0,0.0,0.0,0.0,0.0,0.0,0.0,0.0,0.0,0.0,0.0,0.0,0.0,0.0,0.0,0.0,0.0,0.0,0.0,0.0,0.0,0.0,0.0,0.0,0.0,0.0,0.0,0.0,0.0,0.0,0.0,0.0,0.0,0.0,0.0,0.0,0.0,0.0,0.0,0.0,0.0,0.0,0.0,0.0,0.0,0.0,0.0,0.0,-2.0592,-1.9933,-2.0217,-1.9885,-1.8856,0.0,0.0,0.0,0.0,0.0,0.0,0.0,0.0,0.0,0.0,0.0,0.0,0.0,0.0,0.0,0.0,0.0,0.0,0.0,0.0,0.0,0.0,0.0,0.0,0.0,0.0,0.0,0.0,0.0,0.0,0.0,0.0,0.0,0.0,0.0,0.0,0.0,0.0,0.0,0.0,0.0,0.0,0.0,0.0,0.0,0.0,0.0,0.0,0.0,0.0,0.0,0.0,0.0,0.0,0.0,0.0,0.0,0.0,0.0,0.0,0.0,0.0,0.0,0.0,0.0,0.0,0.0,0.0,0.0,0.0,0.0,0.0,0.0,0.0,0.0,0.0,0.0,0.0,0.0,0.0,0.0,0.0,0.0,0.0,0.0,0.0,0.0,0.0,0.0,0.0,0.0,0.0,0.0,0.0,0.0,0.0,0.0,0.0,0.0,0.0,0.0,0.0,0.0,0.0,0.0,0.0,0.0,0.0,0.0,0.0,0.0,0.0,-2.153,-2.1161,-1.977,0.0,0.0,0.0,0.0,0.0,0.0,0.0,0.0,0.0,0.0,0.0,0.0,0.0,0.0,0.0,0.0,0.0,0.0,0.0,0.0,0.0,0.0,0.0,0.0,0.0,0.0,0.0,0.0,0.0,0.0,0.0,0.0,0.0,0.0,0.0,0.0,0.0,0.0,0.0,0.0,0.0,0.0,0.0,0.0,0.0,0.0,0.0,0.0,0.0,0.0,0.0,0.0,0.0,0.0,0.0,0.0,0.0,0.0,0.0,0.0,0.0,0.0,0.0,0.0,0.0,0.0,0.0,0.0,0.0,0.0,0.0,0.0,0.0,0.0,0.0,0.0,0.0,0.0,0.0,0.0,0.0,0.0,0.0,0.0,0.0,0.0,0.0,0.0,0.0,0.0,0.0,0.0,0.0,0.0,0.0,0.0,0.0,0.0,0.0,0.0,0.0,0.0,0.0,0.0,0.0,0.0,0.0,0.0,0.0,0.0,-2.1535,-2.3657,-2.3468,0.0,-2.241,0.0,0.0,0.0,0.0,0.0,0.0,0.0,0.0,0.0,0.0,0.0,0.0,0.0,0.0,0.0,0.0,0.0,0.0,0.0,0.0,0.0,0.0,0.0,0.0,0.0,0.0,0.0,0.0,0.0,0.0,0.0,0.0,0.0,0.0,0.0,0.0,0.0,0.0,0.0,0.0,0.0,0.0,0.0,0.0,0.0,0.0,0.0,0.0,0.0,0.0,0.0,0.0,0.0,0.0,0.0,0.0,0.0,0.0,0.0,0.0,0.0,0.0,0.0,0.0,0.0,0.0,0.0,0.0,0.0,0.0,0.0,0.0,0.0,0.0,0.0,0.0,0.0,0.0,0.0,0.0,0.0,0.0,0.0,0.0,0.0,0.0,0.0,0.0,0.0,0.0,0.0,0.0,0.0,0.0,0.0,0.0,0.0,0.0,0.0,0.0,0.0,0.0,0.0,0.0,0.0,0.0,0.0,0.0,0.0,0.0,-2.1998,-2.3951,-2.3112,-2.1988,0.0,0.0,0.0,0.0,0.0,0.0,0.0,0.0,0.0,0.0,0.0,0.0,0.0,0.0,0.0,0.0,0.0,0.0,0.0,0.0,0.0,0.0,0.0,0.0,0.0,0.0,0.0,0.0,0.0,0.0,0.0,0.0,0.0,0.0,0.0,0.0,0.0,0.0,0.0,0.0,0.0,0.0,0.0,0.0,0.0,0.0,0.0,0.0,0.0,0.0,0.0,0.0,0.0,0.0,0.0,0.0,0.0,0.0,0.0,0.0,0.0,0.0,0.0,0.0,0.0,0.0,0.0,0.0,0.0,0.0,0.0,0.0,0.0,0.0,0.0,0.0,0.0,0.0,0.0,0.0,0.0,0.0,0.0,0.0,0.0,0.0,0.0,0.0,0.0,0.0,0.0,0.0,0.0,0.0,0.0,0.0,0.0,0.0,0.0,0.0,0.0,0.0,0.0,0.0,0.0,0.0,0.0,0.0,0.0,0.0,-2.1968,-2.2701,-2.4293,-2.2473,-2.0952,-2.0109,0.0,0.0,0.0,0.0,0.0,0.0,0.0,0.0,0.0,0.0,0.0,0.0,0.0,0.0,0.0,0.0,0.0,0.0,0.0,0.0,0.0,0.0,0.0,0.0,0.0,0.0,0.0,0.0,0.0,0.0,0.0,0.0,0.0,0.0,0.0,0.0,0.0,0.0,0.0,0.0,0.0,0.0,0.0,0.0,0.0,0.0,0.0,0.0,0.0,0.0,0.0,0.0,0.0,0.0,0.0,0.0,0.0,0.0,0.0,0.0,0.0,0.0,0.0,0.0,0.0,0.0,0.0,0.0,0.0,0.0,0.0,0.0,0.0,0.0,0.0,0.0,0.0,0.0,0.0,0.0,0.0,0.0,0.0,0.0,0.0,0.0,0.0,0.0,0.0,0.0,0.0,0.0,0.0,0.0,0.0,0.0,0.0,0.0,0.0,0.0,0.0,0.0,0.0,0.0,0.0,0.0,0.0,0.0,-2.613,-2.398,-2.3774,-2.5763,-2.1969,-2.0798,0.0,0.0,0.0,0.0,0.0,0.0,0.0,0.0,0.0,0.0,0.0,0.0,0.0,0.0,0.0,0.0,0.0,0.0,0.0,0.0,0.0,0.0,0.0,0.0,0.0,0.0,0.0,0.0,0.0,0.0,0.0,0.0,0.0,0.0,0.0,0.0,0.0,0.0,0.0,0.0,0.0,0.0,0.0,0.0,0.0,0.0,0.0,0.0,0.0,0.0,0.0,0.0,0.0,0.0,0.0,0.0,0.0,0.0,0.0,0.0,0.0,0.0,0.0,0.0,0.0,0.0,0.0,0.0,0.0,0.0,0.0,0.0,0.0,0.0,0.0,0.0,0.0,0.0,0.0,0.0,0.0,0.0,0.0,0.0,0.0,0.0,0.0,0.0,0.0,0.0,0.0,0.0,0.0,0.0,0.0,0.0,0.0,0.0,0.0,0.0,0.0,0.0,0.0,0.0,0.0,0.0,0.0,0.0,0.0,-2.2629,-2.311,-2.3683,-2.428,-2.2529,-2.1793,0.0,0.0,0.0,0.0,0.0,0.0,0.0,0.0,0.0,0.0,0.0,0.0,0.0,0.0,0.0,0.0,0.0,0.0,0.0,0.0,0.0,0.0,0.0,0.0,0.0,0.0,0.0,0.0,0.0,0.0,0.0,0.0,0.0,0.0,0.0,0.0,0.0,0.0,0.0,0.0,0.0,0.0,0.0,0.0,0.0,0.0,0.0,0.0,0.0,0.0,0.0,0.0,0.0,0.0,0.0,0.0,0.0,0.0,0.0,0.0,0.0,0.0,0.0,0.0,0.0,0.0,0.0,0.0,0.0,0.0,0.0,0.0,0.0,0.0,0.0,0.0,0.0,0.0,0.0,0.0,0.0,0.0,0.0,0.0,0.0,0.0,0.0,0.0,0.0,0.0,0.0,0.0,0.0,0.0,0.0,0.0,0.0,0.0,0.0,0.0,0.0,0.0,0.0,0.0,0.0,0.0,0.0,0.0,0.0,-2.1971,0.0,-2.4639,-2.3939,-2.3007,-2.2083,0.0,0.0,0.0,0.0,0.0,0.0,0.0,0.0,0.0,0.0,0.0,0.0,0.0,0.0,0.0,0.0,0.0,0.0,0.0,0.0,0.0,0.0,0.0,0.0,0.0,0.0,0.0,0.0,0.0,0.0,0.0,0.0,0.0,0.0,0.0,0.0,0.0,0.0,0.0,0.0,0.0,0.0,0.0,0.0,0.0,0.0,0.0,0.0,0.0,0.0,0.0,0.0,0.0,0.0,0.0,0.0,0.0,0.0,0.0,0.0,0.0,0.0,0.0,0.0,0.0,0.0,0.0,0.0,0.0,0.0,0.0,0.0,0.0,0.0,0.0,0.0,0.0,0.0,0.0,0.0,0.0,0.0,0.0,0.0,0.0,0.0,0.0,0.0,0.0,0.0,0.0,0.0,0.0,0.0,0.0,0.0,0.0,0.0,0.0,0.0,0.0,0.0,0.0,0.0,0.0,0.0,0.0,0.0,-2.1874,-2.4957,-2.6558,-2.6555,-2.5122,-2.3265,-2.1531,0.0,0.0,0.0,0.0,0.0,0.0,0.0,0.0,0.0,0.0,0.0,0.0,0.0,0.0,0.0,0.0,0.0,0.0,0.0,0.0,0.0,0.0,0.0,0.0,0.0,0.0,0.0,0.0,0.0,0.0,0.0,0.0,0.0,0.0,0.0,0.0,0.0,0.0,0.0,0.0,0.0,0.0,0.0,0.0,0.0,0.0,0.0,0.0,0.0,0.0,0.0,0.0,0.0,0.0,0.0,0.0,0.0,0.0,0.0,0.0,0.0,0.0,0.0,0.0,0.0,0.0,0.0,0.0,0.0,0.0,0.0,0.0,0.0,0.0,0.0,0.0,0.0,0.0,0.0,0.0,0.0,0.0,0.0,0.0,0.0,0.0,0.0,0.0,0.0,0.0,0.0,0.0,0.0,0.0,0.0,0.0,0.0,0.0,0.0,0.0,0.0,0.0,0.0,0.0,0.0,0.0,0.0,0.0,0.0,-2.2612,-2.427,-2.5462,-2.5871,-2.3039,-2.206,0.0,0.0,0.0,0.0,0.0,0.0,0.0,0.0,0.0,0.0,0.0,0.0,0.0,0.0,0.0,0.0,0.0,0.0,0.0,0.0,0.0,0.0,0.0,0.0,0.0,0.0,0.0,0.0,0.0,0.0,0.0,0.0,0.0,0.0,0.0,0.0,0.0,0.0,0.0,0.0,0.0,0.0,0.0,0.0,0.0,0.0,0.0,0.0,0.0,0.0,0.0,0.0,0.0,0.0,0.0,0.0,0.0,0.0,0.0,0.0,0.0,0.0,0.0,0.0,0.0,0.0,0.0,0.0,0.0,0.0,0.0,0.0,0.0,0.0,0.0,0.0,0.0,0.0,0.0,0.0,0.0,0.0,0.0,0.0,0.0,0.0,0.0,0.0,0.0,0.0,0.0,0.0,0.0,0.0,0.0,0.0,0.0,0.0,0.0,0.0,0.0,0.0,0.0,0.0,0.0,0.0,0.0,0.0,0.0,-2.3091,-2.4941,-2.601,-2.6041,-2.3725,-2.2569,-2.269,0.0,0.0,0.0,0.0,0.0,0.0,0.0,0.0,0.0,0.0,0.0,0.0,0.0,0.0,0.0,0.0,0.0,0.0,0.0,0.0,0.0,0.0,0.0,0.0,0.0,0.0,0.0,0.0,0.0,0.0,0.0,0.0,0.0,0.0,0.0,0.0,0.0,0.0,0.0,0.0,0.0,0.0,0.0,0.0,0.0,0.0,0.0,0.0,0.0,0.0,0.0,0.0,0.0,0.0,0.0,0.0,0.0,0.0,0.0,0.0,0.0,0.0,0.0,0.0,0.0,0.0,0.0,0.0,0.0,0.0,0.0,0.0,0.0,0.0,0.0,0.0,0.0,0.0,0.0,0.0,0.0,0.0,0.0,0.0,0.0,0.0,0.0,0.0,0.0,0.0,0.0,0.0,0.0,0.0,0.0,0.0,0.0,0.0,0.0,0.0,0.0,0.0,0.0,0.0,0.0,0.0,0.0,0.0,-2.5657,-2.7994,-2.799,-2.5587,-2.4936,-2.2989,0.0,0.0,0.0,0.0,0.0,0.0,0.0,0.0,0.0,0.0,0.0,0.0,0.0,0.0,0.0,0.0,0.0,0.0,0.0,0.0,0.0,0.0,0.0,0.0,0.0,0.0,0.0,0.0,0.0,0.0,0.0,0.0,0.0,0.0,0.0,0.0,0.0,0.0,0.0,0.0,0.0,0.0,0.0,0.0,0.0,0.0,0.0,0.0,0.0,0.0,0.0,0.0,0.0,0.0,0.0,0.0,0.0,0.0,0.0,0.0,0.0,0.0,0.0,0.0,0.0,0.0,0.0,0.0,0.0,0.0,0.0,0.0,0.0,0.0,0.0,0.0,0.0,0.0,0.0,0.0,0.0,0.0,0.0,0.0,0.0,0.0,0.0,0.0,0.0,0.0,0.0,0.0,0.0,0.0,0.0,0.0,0.0,0.0,0.0,0.0,0.0,0.0,0.0,0.0,0.0,0.0,0.0,0.0,0.0,-2.6474,-2.8408,-2.8496,-2.6529,-2.4303,-2.2478,0.0,0.0,0.0,0.0,0.0,0.0,0.0,0.0,0.0,0.0,0.0,0.0,0.0,0.0,0.0,0.0,0.0,0.0,0.0,0.0,0.0,0.0,0.0,0.0,0.0,0.0,0.0,0.0,0.0,0.0,0.0,0.0,0.0,0.0,0.0,0.0,0.0,0.0,0.0,0.0,0.0,0.0,0.0,0.0,0.0,0.0,0.0,0.0,0.0,0.0,0.0,0.0,0.0,0.0,0.0,0.0,0.0,0.0,0.0,0.0,0.0,0.0,0.0,0.0,0.0,0.0,0.0,0.0,0.0,0.0,0.0,0.0,0.0,0.0,0.0,0.0,0.0,0.0,0.0,0.0,0.0,0.0,0.0,0.0,0.0,0.0,0.0,0.0,0.0,0.0,0.0,0.0,0.0,0.0,0.0,0.0,0.0,0.0,0.0,0.0,0.0,0.0,0.0,0.0,0.0,0.0,0.0,0.0,-2.501,-2.6847,-2.8276,-2.8164,-2.6444,-2.5245,-2.3419,0.0,0.0,0.0,0.0,0.0,0.0,0.0,0.0,0.0,0.0,0.0,0.0,0.0,0.0,0.0,0.0,0.0,0.0,0.0,0.0,0.0,0.0,0.0,0.0,0.0,0.0,0.0,0.0,0.0,0.0,0.0,0.0,0.0,0.0,0.0,0.0,0.0,0.0,0.0,0.0,0.0,0.0,0.0,0.0,0.0,0.0,0.0,0.0,0.0,0.0,0.0,0.0,0.0,0.0,0.0,0.0,0.0,0.0,0.0,0.0,0.0,0.0,0.0,0.0,0.0,0.0,0.0,0.0,0.0,0.0,0.0,0.0,0.0,0.0,0.0,0.0,0.0,0.0,0.0,0.0,0.0,0.0,0.0,0.0,0.0,0.0,0.0,0.0,0.0,0.0,0.0,0.0,0.0,0.0,0.0,0.0,0.0,0.0,0.0,0.0,0.0,0.0,0.0,0.0,0.0,0.0,0.0,0.0,-2.5141,-2.6951,-2.7832,-2.746,-2.5815,-2.6456,-2.4562,0.0,0.0,0.0,0.0,0.0,0.0,0.0,0.0,0.0,0.0,0.0,0.0,0.0,0.0,0.0,0.0,0.0,0.0,0.0,0.0,0.0,0.0,0.0,0.0,0.0,0.0,0.0,0.0,0.0,0.0,0.0,0.0,0.0,0.0,0.0,0.0,0.0,0.0,0.0,0.0,0.0,0.0,0.0,0.0,0.0,0.0,0.0,0.0,0.0,0.0,0.0,0.0,0.0,0.0,0.0,0.0,0.0,0.0,0.0,0.0,0.0,0.0,0.0,0.0,0.0,0.0,0.0,0.0,0.0,0.0,0.0,0.0,0.0,0.0,0.0,0.0,0.0,0.0,0.0,0.0,0.0,0.0,0.0,0.0,0.0,0.0,0.0,0.0,0.0,0.0,0.0,0.0,0.0,0.0,0.0,0.0,0.0,0.0,0.0,0.0,0.0,0.0,0.0,0.0,0.0,0.0,0.0,0.0,-2.5756,-2.6893,-2.7828,-2.748,-2.5742,-2.3745,-2.1434,0.0,0.0,0.0,0.0,0.0,0.0,0.0,0.0,0.0,0.0,0.0,0.0,0.0,0.0,0.0,0.0,0.0,0.0,0.0,0.0,0.0,0.0,0.0,0.0,0.0,0.0,0.0,0.0,0.0,0.0,0.0,0.0,0.0,0.0,0.0,0.0,0.0,0.0,0.0,0.0,0.0,0.0,0.0,0.0,0.0,0.0,0.0,0.0,-1.9997,0.0,0.0,0.0,0.0,0.0,0.0,0.0,0.0,0.0,0.0,0.0,0.0,0.0,0.0,0.0,0.0,0.0,0.0,0.0,0.0,0.0,0.0,0.0,0.0,0.0,0.0,0.0,0.0,0.0,0.0,0.0,0.0,0.0,0.0,0.0,0.0,0.0,0.0,0.0,0.0,0.0,0.0,0.0,0.0,0.0,0.0,0.0,0.0,0.0,0.0,0.0,0.0,0.0,0.0,0.0,0.0,0.0,0.0,0.0,-2.5775,-2.6325,-2.6814,-2.6445,-2.5078,-2.2426,-2.0119,0.0,0.0,0.0,0.0,0.0,0.0,0.0,0.0,0.0,0.0,0.0,0.0,0.0,0.0,0.0,0.0,0.0,0.0,0.0,0.0,0.0,0.0,0.0,0.0,0.0,0.0,0.0,0.0,0.0,0.0,0.0,0.0,0.0,0.0,0.0,0.0,0.0,0.0,0.0,0.0,0.0,0.0,0.0,0.0,0.0,0.0,0.0,0.0,0.0,0.0,0.0,0.0,0.0,0.0,0.0,0.0,0.0,0.0,0.0,0.0,0.0,0.0,0.0,0.0,0.0,0.0,0.0,0.0,0.0,0.0,0.0,0.0,0.0,0.0,0.0,0.0,0.0,0.0,0.0,0.0,0.0,0.0,0.0,0.0,0.0,0.0,0.0,0.0,0.0,0.0,0.0,0.0,0.0,0.0,0.0,0.0,0.0,0.0,0.0,0.0,0.0,0.0,0.0,0.0,0.0,0.0,0.0,-2.4451,-2.5442,-2.5681,-2.5566,-2.5019,-2.4,-2.158,-1.9401,-1.7578,0.0,0.0,0.0,0.0,0.0,0.0,0.0,0.0,0.0,0.0,0.0,0.0,0.0,0.0,0.0,0.0,0.0,0.0,0.0,0.0,0.0,0.0,0.0,0.0,0.0,0.0,0.0,0.0,0.0,0.0,0.0,0.0,0.0,0.0,0.0,0.0,0.0,0.0,-2.2699,-2.2285,0.0,0.0,0.0,0.0,0.0,0.0,0.0,0.0,-1.9548,0.0,0.0,0.0,0.0,0.0,0.0,0.0,0.0,0.0,0.0,0.0,0.0,0.0,0.0,0.0,0.0,0.0,0.0,0.0,0.0,0.0,0.0,0.0,0.0,0.0,0.0,0.0,0.0,0.0,0.0,0.0,0.0,0.0,0.0,0.0,0.0,0.0,0.0,0.0,0.0,0.0,0.0,0.0,0.0,0.0,0.0,0.0,0.0,0.0,0.0,0.0,0.0,0.0,0.0,0.0,0.0,-2.365,-2.4267,-2.4944,-2.5661,-2.494,-2.3802,-2.2241,-2.0331,-1.8053,-1.5431,0.0,0.0,0.0,0.0,0.0,0.0,0.0,0.0,0.0,0.0,0.0,0.0,0.0,0.0,0.0,0.0,0.0,0.0,0.0,0.0,0.0,0.0,0.0,0.0,0.0,0.0,0.0,0.0,0.0,0.0,0.0,0.0,0.0,0.0,0.0,0.0,0.0,0.0,0.0,-2.2461,-2.2318,0.0,0.0,0.0,0.0,0.0,0.0,0.0,0.0,-1.9736,0.0,0.0,0.0,0.0,0.0,0.0,0.0,0.0,0.0,0.0,0.0,0.0,0.0,0.0,0.0,0.0,0.0,0.0,0.0,0.0,0.0,0.0,0.0,0.0,0.0,0.0,0.0,0.0,0.0,0.0,0.0,0.0,0.0,0.0,0.0,0.0,0.0,0.0,0.0,0.0,0.0,0.0,0.0,0.0,0.0,0.0,0.0,0.0,0.0,0.0,0.0,0.0,0.0,0.0,0.0,-2.2481,-2.327,-2.3893,-2.4296,-2.3472,-2.239,-2.1069,-1.8939,-1.7006,0.0,0.0,0.0,0.0,0.0,0.0,0.0,0.0,0.0,0.0,0.0,0.0,0.0,0.0,0.0,0.0,0.0,0.0,0.0,0.0,0.0,0.0,0.0,0.0,0.0,0.0,0.0,0.0,0.0,0.0,0.0,0.0,0.0,0.0,0.0,0.0,0.0,0.0,0.0,0.0,-2.2784,-2.2597,-2.1268,0.0,0.0,0.0,0.0,0.0,0.0,-2.0111,-1.9935,0.0,0.0,0.0,0.0,0.0,0.0,0.0,0.0,0.0,0.0,0.0,0.0,0.0,0.0,0.0,0.0,0.0,0.0,0.0,0.0,0.0,0.0,0.0,0.0,0.0,0.0,0.0,0.0,0.0,0.0,0.0,0.0,0.0,0.0,0.0,0.0,0.0,0.0,0.0,0.0,0.0,0.0,0.0,0.0,0.0,0.0,0.0,0.0,0.0,0.0,0.0,0.0,0.0,0.0,0.0,-2.0947,-2.1794,-2.2351,-2.2549,-2.1729,-2.082,-1.9876,-1.7579,-1.6088,0.0,0.0,0.0,0.0,0.0,0.0,0.0,0.0,0.0,0.0,0.0,0.0,0.0,0.0,0.0,0.0,0.0,0.0,0.0,0.0,0.0,0.0,0.0,0.0,0.0,0.0,0.0,0.0,0.0,0.0,0.0,0.0,0.0,0.0,0.0,0.0,0.0,0.0,0.0,0.0,0.0,-2.2909,-2.1672,-2.1816,0.0,0.0,0.0,0.0,-2.0351,-2.0376,0.0,0.0,0.0,0.0,0.0,0.0,0.0,0.0,0.0,0.0,0.0,0.0,0.0,0.0,0.0,0.0,0.0,0.0,0.0,0.0,0.0,0.0,0.0,0.0,0.0,0.0,0.0,0.0,0.0,0.0,0.0,0.0,0.0,0.0,0.0,0.0,0.0,0.0,0.0,0.0,0.0,0.0,0.0,0.0,0.0,0.0,0.0,0.0,0.0,0.0,0.0,0.0,0.0,0.0,0.0,0.0,-1.9992,-1.983,-2.0113,-2.0777,-1.9929,-1.8988,-1.81,-1.6373,-1.5227,0.0,0.0,0.0,0.0,0.0,0.0,0.0,0.0,0.0,0.0,0.0,0.0,0.0,0.0,0.0,0.0,0.0,0.0,0.0,0.0,0.0,0.0,0.0,0.0,0.0,0.0,0.0,0.0,0.0,0.0,0.0,0.0,0.0,0.0,0.0,0.0,0.0,0.0,0.0,0.0,0.0,-2.3397,-2.1053,-2.2012,-2.2337,0.0,0.0,-2.1388,-2.0457,-2.0984,0.0,0.0,0.0,0.0,0.0,0.0,0.0,0.0,0.0,0.0,0.0,0.0,0.0,0.0,0.0,0.0,0.0,0.0,0.0,0.0,0.0,0.0,0.0,0.0,0.0,0.0,0.0,0.0,0.0,0.0,0.0,0.0,0.0,0.0,0.0,0.0,0.0,0.0,0.0,0.0,0.0,0.0,0.0,0.0,0.0,0.0,0.0,0.0,0.0,0.0,0.0,0.0,0.0,0.0,0.0,-1.8441,-1.9073,-1.8751,-1.8749,-1.9079,-1.8178,-1.7474,-1.7012,-1.4983,-1.4054,0.0,0.0,0.0,0.0,0.0,0.0,0.0,0.0,0.0,0.0,0.0,0.0,0.0,0.0,0.0,0.0,0.0,0.0,0.0,0.0,0.0,0.0,0.0,0.0,0.0,0.0,0.0,0.0,0.0,0.0,0.0,0.0,0.0,0.0,0.0,0.0,0.0,0.0,0.0,0.0,0.0,0.0,-2.0818,-2.201,0.0,0.0,0.0,-2.0989,-2.0483,0.0,0.0,0.0,0.0,0.0,0.0,0.0,0.0,0.0,0.0,0.0,0.0,0.0,0.0,0.0,0.0,0.0,0.0,0.0,0.0,0.0,0.0,0.0,0.0,0.0,0.0,0.0,0.0,0.0,0.0,0.0,0.0,0.0,0.0,0.0,0.0,0.0,0.0,0.0,0.0,0.0,0.0,0.0,0.0,0.0,0.0,0.0,0.0,0.0,0.0,0.0,0.0,0.0,0.0,0.0,0.0,0.0,-1.8171,-1.7631,-1.7341,-1.7324,-1.6639,-1.6213,-1.606,-1.3736,0.0,0.0,0.0,0.0,0.0,0.0,0.0,0.0,0.0,0.0,0.0,0.0,0.0,0.0,0.0,0.0,0.0,0.0,0.0,0.0,0.0,0.0,0.0,0.0,0.0,0.0,0.0,-1.6178,0.0,0.0,0.0,0.0,0.0,0.0,0.0,0.0,0.0,0.0,0.0,0.0,0.0,0.0,-2.2141,-2.0696,-2.1787,-2.2182,0.0,0.0,-2.0409,-1.9945,-1.8831,-1.7968,0.0,0.0,0.0,0.0,0.0,0.0,0.0,0.0,0.0,0.0,0.0,0.0,0.0,0.0,0.0,0.0,0.0,0.0,0.0,0.0,0.0,0.0,0.0,0.0,0.0,0.0,0.0,0.0,0.0,0.0,0.0,0.0,0.0,0.0,0.0,0.0,0.0,0.0,0.0,0.0,0.0,0.0,0.0,0.0,0.0,0.0,0.0,0.0,0.0,0.0,0.0,0.0,0.0,0.0,-1.5993,-1.7289,-1.6172,-1.5604,-1.5581,-1.5467,-1.5352,-1.5235,-1.2817,-1.2277,0.0,0.0,0.0,0.0,0.0,0.0,0.0,0.0,0.0,0.0,0.0,0.0,0.0,0.0,0.0,0.0,0.0,0.0,0.0,0.0,0.0,0.0,0.0,0.0,0.0,0.0,0.0,0.0,0.0,0.0,0.0,0.0,0.0,0.0,0.0,0.0,0.0,0.0,0.0,0.0,0.0,-2.1484,-2.0616,-2.1246,-2.1455,0.0,-2.0456,-1.9954,-1.842,-1.8075,-1.8008,-1.7987,0.0,0.0,0.0,0.0,0.0,0.0,0.0,0.0,0.0,0.0,0.0,0.0,0.0,0.0,0.0,0.0,0.0,0.0,0.0,0.0,0.0,0.0,0.0,0.0,0.0,0.0,0.0,0.0,0.0,0.0,0.0,0.0,0.0,0.0,0.0,0.0,0.0,0.0,0.0,0.0,0.0,0.0,0.0,0.0,0.0,0.0,0.0,0.0,0.0,0.0,0.0,0.0,0.0,-1.5447,-1.6224,-1.5609,-1.5313,-1.5329,-1.532,-1.5254,-1.5199,-1.3661,-1.2751,0.0,0.0,0.0,0.0,0.0,0.0,0.0,0.0,0.0,0.0,0.0,0.0,0.0,0.0,0.0,0.0,0.0,0.0,0.0,0.0,0.0,0.0,0.0,0.0,0.0,0.0,0.0,0.0,-1.4847,-1.4937,-1.569,0.0,0.0,0.0,0.0,0.0,0.0,0.0,0.0,0.0,0.0,-2.1354,-2.0385,-2.0623,0.0,0.0,-1.9192,-1.8709,-1.81,-1.7557,-1.7185,-1.7155,-1.6685,0.0,0.0,0.0,0.0,0.0,0.0,0.0,0.0,0.0,0.0,0.0,0.0,0.0,0.0,0.0,0.0,0.0,0.0,0.0,0.0,0.0,0.0,0.0,0.0,0.0,0.0,0.0,0.0,0.0,0.0,0.0,0.0,0.0,0.0,0.0,0.0,0.0,0.0,0.0,0.0,0.0,0.0,0.0,0.0,0.0,0.0,0.0,0.0,0.0,0.0,0.0,0.0,-1.4861,-1.5617,-1.535,-1.5233,-1.5287,-1.5287,-1.5267,-1.5196,-1.4063,-1.289,0.0,0.0,0.0,0.0,0.0,0.0,0.0,0.0,0.0,0.0,0.0,0.0,0.0,0.0,0.0,0.0,0.0,0.0,0.0,0.0,0.0,0.0,0.0,0.0,0.0,0.0,0.0,0.0,-1.437,-1.4659,-1.5574,0.0,0.0,0.0,0.0,0.0,0.0,0.0,0.0,0.0,0.0,-2.0779,-1.9546,-1.9901,-1.9881,-1.8731,-1.8328,-1.8091,-1.7868,-1.693,-1.6269,-1.6464,0.0,0.0,0.0,0.0,0.0,0.0,0.0,0.0,0.0,0.0,0.0,0.0,0.0,0.0,0.0,0.0,0.0,0.0,0.0,0.0,0.0,0.0,0.0,0.0,0.0,0.0,0.0,-1.757,0.0,0.0,-1.6547,0.0,0.0,0.0,0.0,0.0,0.0,0.0,0.0,0.0,0.0,0.0,0.0,0.0,0.0,0.0,0.0,0.0,0.0,0.0,0.0,0.0,0.0,-1.4113,-1.5655,-1.5365,-1.5229,-1.5293,-1.5238,-1.5238,-1.5252,-1.3706,-1.2419,-1.146,0.0,0.0,0.0,0.0,0.0,0.0,0.0,0.0,0.0,0.0,0.0,0.0,0.0,0.0,0.0,0.0,0.0,0.0,0.0,0.0,0.0,0.0,0.0,0.0,0.0,0.0,-1.6125,-1.5645,-1.5411,0.0,0.0,0.0,0.0,0.0,0.0,0.0,0.0,0.0,-2.0365,-2.023,-1.954,-1.8004,-1.9085,-1.9332,-1.7719,-1.8164,-1.8392,-1.7472,-1.6125,-1.5408,0.0,0.0,0.0,0.0,0.0,0.0,0.0,0.0,0.0,0.0,0.0,0.0,0.0,0.0,0.0,0.0,0.0,0.0,0.0,0.0,0.0,0.0,0.0,0.0,0.0,0.0,0.0,-1.516,-1.5524,0.0,0.0,0.0,0.0,0.0,0.0,0.0,0.0,0.0,0.0,0.0,-1.1613,-1.1525,0.0,0.0,0.0,0.0,0.0,0.0,0.0,0.0,0.0,0.0,0.0,0.0,-1.3946,-1.4814,-1.5065,-1.5229,-1.5283,-1.5294,-1.5218,-1.5104,-1.4217,-1.1101,-0.5533,0.0,0.0,0.0,0.0,0.0,0.0,0.0,0.0,0.0,0.0,0.0,0.0,0.0,0.0,0.0,0.0,0.0,0.0,0.0,0.0,0.0,0.0,0.0,0.0,0.0,-1.4813,0.0,0.0,0.0,0.0,0.0,0.0,0.0,0.0,0.0,0.0,0.0,-2.0201,-1.9547,-1.8915,-1.8262,-1.7587,-1.6613,-1.5735,0.0,0.0,0.0,0.0,0.0,0.0,0.0,0.0,0.0,0.0,0.0,0.0,0.0,0.0,-1.9911,-1.9862,-2.0039,-2.0136,-1.9902,0.0,0.0,0.0,0.0,0.0,0.0,0.0,0.0,0.0,0.0,0.0,0.0,0.0,0.0,-1.2807,-1.3477,-1.2902,0.0,0.0,0.0,0.0,0.0,0.0,0.0,0.0,-1.2314,-1.1635,-1.081,-1.0861,-1.0676,0.0,-1.0808,-1.1237,0.0,0.0,0.0,0.0,0.0,0.0,0.0,0.0,-1.392,-1.4412,-1.4882,-1.5182,-1.5292,-1.5163,-1.4838,-1.4274,-1.2432,-0.8704,-0.289,-0.1701,0.0469,0.0,0.0,0.0,0.0,0.0,0.0,0.0,0.0,0.0,0.0,0.0,0.0,0.0,0.0,0.0,0.0,0.0,0.0,0.0,0.0,0.0,0.0,0.0,-1.3805,0.0,0.0,0.0,0.0,0.0,0.0,0.0,0.0,0.0,-1.8847,-1.9221,-1.9309,-1.8969,-1.7862,-1.7063,-1.6971,0.0,0.0,0.0,0.0,0.0,0.0,0.0,-1.5849,-1.6311,-1.622,-1.6117,-1.6205,-1.6933,-1.7668,-1.8164,0.0,0.0,-1.9856,-2.0099,-2.0161,-1.9796,-1.9983,-2.0169,-2.006,-1.9984,-1.9898,0.0,0.0,0.0,0.0,0.0,0.0,0.0,0.0,-1.0762,-1.0768,0.0,-1.1132,0.0,0.0,0.0,0.0,-1.2749,-1.2833,0.0,0.0,-1.0989,-1.0295,-0.9295,-0.9751,-0.9632,-0.9127,-1.0303,-1.1154,-1.1637,-1.1081,0.0,0.0,0.0,0.0,0.0,0.0,-1.4068,-1.44,-1.4787,-1.5096,-1.5257,-1.4737,-1.3839,-1.2418,-0.8355,-0.5267,-0.3465,-0.0316,0.2015,0.3355,0.4082,0.0,0.0,0.0,0.0,0.0,0.0,0.0,0.0,0.0,0.0,0.0,0.0,0.0,0.0,0.0,0.0,0.0,0.0,0.0,0.0,-1.3568,0.0,0.0,0.0,0.0,0.0,0.0,0.0,0.0,0.0,0.0,-1.8244,-1.7844,-1.7703,-1.8628,0.0,0.0,0.0,0.0,-1.5461,-1.4398,-1.5617,-1.6811,-1.7318,-1.6194,-1.5671,-1.7058,0.0,0.0,-1.4489,-1.5093,-1.5968,-1.7023,-1.7978,-1.8608,-1.8968,-1.9677,-1.9871,-1.9021,-1.9469,-1.9861,-1.9662,-1.9647,-1.9612,-0.8604,0.0,0.0,0.0,0.0,-0.9844,-0.9584,-0.9598,-0.8956,-0.8934,-0.9408,-0.9777,0.0,0.0,0.0,0.0,0.0,0.0,-1.197,-1.2132,-1.1161,-1.0628,-1.0539,-1.0644,-1.0422,-0.9937,-1.0304,-1.0314,-1.0016,-1.0111,-1.0841,-1.2171,0.0,0.0,0.0,0.0,-1.391,-1.4196,-1.4741,-1.4979,-1.4918,-1.1969,-0.8794,-0.5423,-0.3059,-0.1552,-0.1042,0.0782,0.2317,0.3543,0.347,0.0,0.0,0.0,0.0,0.0,0.0,0.0,0.0,0.0,0.0,0.0,0.0,0.0,0.0,0.0,0.0,0.0,0.0,0.0,-1.4666,-1.3543,-1.2974,0.0,0.0,0.0,0.0,0.0,0.0,0.0,0.0,0.0,-1.619,-1.6382,-1.6753,0.0,0.0,-1.4576,-1.5721,-1.4377,-1.3043,-1.2536,-1.3352,0.0,-1.3998,-1.3851,-1.3889,-1.4298,-1.3817,-1.369,-1.4579,-1.5347,-1.6169,-1.7158,-1.8066,-1.8712,-1.8987,-1.9488,-1.9768,-1.9561,-1.9711,-1.979,-1.9711,-1.9587,-1.9481,-0.5634,-0.6718,-0.7644,-0.7768,-0.7319,-0.6949,-0.685,-0.6855,-0.6637,-0.6967,-0.7721,-0.8002,-0.8808,-1.0003,-1.0737,0.0,0.0,0.0,-1.1075,-1.1684,-1.0877,-1.0711,-1.1043,-1.114,-1.0894,-1.0388,-1.0425,-1.0271,-1.001,-0.9873,-1.0547,-1.196,0.0,0.0,-1.2275,-1.2575,-1.2678,-1.2655,-1.3119,-1.2738,-1.1388,-0.7241,-0.418,-0.2385,-0.0043,0.1096,0.0942,0.1823,0.2838,0.3886,0.3802,0.3687,0.0,0.0,0.0,0.0,0.0,0.0,0.0,0.0,0.0,0.0,0.0,-0.9634,-1.0431,0.0,0.0,0.0,-1.2898,-1.3508,-1.351,-1.2622,0.0,0.0,0.0,0.0,0.0,0.0,0.0,-1.4938,-1.4053,-1.3401,-1.3364,-1.3112,-1.3816,-1.6195,-1.4357,-1.3274,-1.4618,0.0,-1.1723,-1.0933,-1.1395,-1.1978,-1.2287,-1.2233,-1.2396,-1.3198,-1.3322,-1.3677,-1.4607,-1.5046,-1.5519,-1.6358,-1.701,-1.7471,-1.7629,-1.8003,-1.8498,-1.8958,-1.9301,-1.9428,-1.9115,-1.9099,-1.9099,-0.3118,-0.2929,-0.4003,-0.4314,-0.4066,-0.4028,-0.4038,-0.4103,-0.4275,-0.511,-0.6394,-0.6119,-0.6973,-0.8612,-0.9377,0.0,-0.8808,-0.9347,-0.9813,-1.0236,-1.0277,-1.0567,-1.103,-1.1277,-1.1089,-1.0518,-1.0538,-1.0678,-1.0837,-0.9893,-0.9616,-0.9936,-0.9967,-1.0005,-1.0055,-1.0669,-1.0719,-1.0149,-1.0436,-0.8915,-0.5529,-0.1637,-0.0226,-0.1402,0.151,0.2939,0.2557,0.2969,0.3532,0.4209,0.4581,0.457,0.4182,0.0,0.0,0.0,0.0,0.0,0.0,0.0,0.0,0.0,0.0,0.0,0.0,0.0,0.0,0.0,-1.0885,0.0,-1.1242,-1.1123,0.0,0.0,0.0,-1.2479,-1.3275,-1.2363,-1.1967,-1.2723,0.0,0.0,-1.0276,-0.8976,-0.9752,-1.434,-1.2956,-1.1887,-1.2923,-1.2255,-1.1117,-0.9626,-0.9823,-1.0531,-1.1373,-1.0966,-1.1139,-1.2936,-1.343,-1.3576,-1.439,-1.4308,-1.4305,-1.5088,-1.5314,-1.5505,-1.5543,-1.5783,-1.6095,-1.7146,-1.8146,-1.8635,-1.8039,-1.8106,-1.8217,-0.2305,-0.2302,-0.2685,-0.2918,-0.3064,-0.3068,-0.3495,-0.4097,-0.4312,-0.4853,-0.5658,-0.5898,-0.6512,-0.7425,-0.8133,-0.8581,-0.879,-0.8461,-0.9151,-1.0495,-0.9872,-1.0169,-1.1291,-1.1313,-1.1104,-1.0638,-1.0201,-0.9836,-0.9527,-0.802,-0.7384,-0.7516,-0.6328,-0.6919,-0.9245,-0.9316,-0.8853,-0.7972,-0.7882,-0.5035,0.056,-0.0032,0.1551,0.5796,0.4856,0.4319,0.4373,0.4797,0.4641,0.3818,0.3675,0.3568,0.3459,0.46,0.0,0.0,0.0,0.0,0.0,0.0,0.0,0.0,0.0,-0.9751,-0.9927,0.0,-1.3279,0.0,-1.1023,-1.0269,-1.0253,-0.9656,0.0,0.0,-0.9716,-0.9719,-0.8745,-0.9346,-0.9708,-0.9344,-0.938,-0.938,-0.9259,-0.8272,-0.8204,-0.999,-0.9529,-0.9546,-1.0935,-1.0384,-0.9575,-0.9019,-0.8849,-0.8998,-0.9197,-0.8919,-0.9485,-1.171,-1.1449,-1.1524,-1.3431,-1.3637,-1.3813,-1.4555,-1.4788,-1.4843,-1.4859,-1.4377,-1.3752,-1.3724,-1.5335,-1.6928,-1.6733,-1.6691,-1.6676,-0.1644,-0.1673,-0.174,-0.1942,-0.2242,-0.2871,-0.3429,-0.3844,-0.4135,-0.4622,-0.5239,-0.5773,-0.6191,-0.6515,-0.7141,-0.7684,-0.8101,-0.8015,-0.8653,-0.983,-0.9416,-0.9745,-1.0707,-1.0395,-1.0149,-0.993,-0.9064,-0.8382,-0.7832,-0.6304,-0.5498,-0.542,-0.3951,-0.3967,-0.5499,-0.5943,-0.5754,-0.4879,-0.2433,0.0899,0.5016,0.4513,0.5279,0.7504,0.6267,0.5679,0.6048,0.5315,0.4809,0.4568,0.4159,0.3906,0.3896,0.4692,0.4306,0.0,0.0,0.0,0.0,0.0,0.0,0.0,0.0,0.0,0.0,0.0,-1.321,-1.3536,-1.1419,-1.0058,-1.014,-0.8873,-0.7928,-0.7718,-0.8052,-0.7902,-0.6966,-0.7827,-0.8306,-0.7855,-0.7796,-0.7749,-0.7606,-0.6544,-0.5929,-0.6371,-0.626,-0.6774,-0.8344,-0.844,-0.7889,-0.6761,-0.6688,-0.7066,-0.7605,-0.81,-0.9119,-1.1027,-1.0791,-1.0793,-1.2674,-1.2511,-1.2363,-1.3148,-1.2773,-1.2427,-1.287,-1.1854,-1.0927,-1.127,-1.1968,-1.3196,-1.4435,-1.4787,-1.4951,-0.1075,-0.1075,-0.1177,-0.141,-0.1807,-0.3053,-0.3556,-0.3519,-0.3838,-0.435,-0.4935,-0.5578,-0.5773,-0.5718,-0.6336,-0.682,-0.7178,-0.7636,-0.8143,-0.8687,-0.8741,-0.9008,-0.9454,-0.8825,-0.8512,-0.8477,-0.7348,-0.6516,-0.5951,-0.4531,-0.3677,-0.3328,-0.2094,-0.1219,-0.0806,-0.1704,-0.1866,-0.1204,0.3462,0.6594,0.805,0.8981,0.8573,0.6857,0.641,0.649,0.7012,0.5129,0.4537,0.5529,0.5008,0.4745,0.4896,0.4833,0.4032,0.0,0.0513,0.0,0.0,0.0,0.0,0.0,0.0,0.0,0.0,-0.9569,-1.2048,-1.3728,-1.1256,-0.9622,-0.9696,-0.7933,-0.6699,-0.6418,-0.646,-0.6425,-0.6316,-0.6756,-0.7023,-0.6889,-0.6276,-0.5808,-0.5652,-0.4517,-0.3713,-0.3803,-0.3811,-0.4342,-0.5618,-0.6358,-0.5944,-0.3846,-0.4063,-0.5043,-0.6325,-0.7385,-0.8621,-1.0413,-1.0214,-1.0421,-1.1911,-1.1211,-1.0574,-1.1124,-1.0333,-0.9644,-1.0392,-0.9055,-0.8195,-0.9015,-0.8621,-0.8994,-1.1477,-1.2607,-1.3244,-0.0941,-0.1004,-0.1638,-0.204,-0.2305,-0.32,-0.3565,-0.3495,-0.345,-0.3772,-0.4366,-0.4832,-0.5023,-0.5137,-0.5805,-0.6267,-0.6502,-0.6877,-0.7249,-0.7645,-0.7107,-0.7,-0.7259,-0.6681,-0.6256,-0.5938,-0.5059,-0.4323,-0.368,-0.209,-0.1241,-0.1066,0.0244,0.0982,0.1128,0.0,0.0,0.0,0.4752,0.6628,0.8318,0.6103,0.5749,0.7449,0.5703,0.0,0.541,0.507,0.4834,0.4738,0.4256,0.0,0.0,0.0,0.0,0.0,0.0,0.0,0.0,0.0,0.0,0.0,-0.7285,-0.723,-0.728,-0.8301,-0.8926,-0.8803,-0.8212,-0.7196,-0.5558,-0.4984,-0.4542,-0.4247,-0.4235,-0.4174,-0.4056,-0.4217,-0.4244,-0.4168,-0.4077,-0.3981,-0.3922,-0.3529,-0.3287,-0.3209,-0.3024,-0.3019,-0.3368,-0.3841,-0.3782,-0.3222,-0.3127,-0.3517,-0.4761,-0.4674,-0.5655,-0.7718,-0.7915,-0.8114,-0.9742,-1.0032,-0.9477,-0.9299,-0.8814,-0.8483,-0.8225,-0.6985,-0.6224,-0.6449,-0.5599,-0.5668,-0.884,-1.0328,-1.1092,-0.0705,-0.0905,-0.1273,-0.174,0.0,-0.2507,-0.2699,-0.2834,-0.3229,-0.3556,-0.3784,-0.4108,-0.4436,-0.4724,-0.5219,-0.5571,-0.5739,-0.5913,-0.6026,-0.5987,-0.549,-0.539,-0.5591,-0.4782,-0.434,-0.4176,-0.307,-0.2263,-0.1691,-0.0391,0.0418,0.0708,0.1717,0.2379,0.2655,0.3995,0.4988,0.5633,0.6545,0.8069,1.0002,0.7355,0.7447,1.0586,0.6684,0.0,0.0,0.0,0.0,0.0,0.0,0.0,0.0,0.5071,0.0,0.2532,0.1287,-0.0531,-0.3011,-0.4396,-0.539,-0.595,-0.5505,-0.5734,-0.6956,-0.7234,-0.7543,-0.7881,-0.7226,-0.6195,-0.4943,-0.4174,-0.3628,-0.3302,-0.3378,-0.339,-0.3281,-0.3335,-0.3314,-0.318,-0.3184,-0.3142,-0.2974,-0.29,-0.2809,-0.2727,-0.2586,-0.2443,-0.2355,-0.2566,-0.2722,-0.2612,-0.25,-0.2863,-0.3951,-0.3974,-0.4371,-0.6687,-0.6919,-0.7147,-0.8416,-0.8716,-0.8642,-0.8365,-0.8097,-0.783,-0.7946,-0.6424,-0.5124,-0.56,-0.5049,-0.4825,-0.67,-0.7695,-0.8783,-0.0606,-0.0841,-0.084,-0.1174,-0.1711,-0.1607,-0.1673,-0.1902,-0.2863,0.0,0.0,-0.3458,-0.3816,-0.4264,-0.4544,-0.4764,-0.4911,-0.4962,-0.4798,-0.4461,-0.4019,-0.3874,-0.3933,-0.2959,-0.2517,-0.2453,-0.1213,-0.0368,0.0022,0.0978,0.171,0.222,0.2799,0.3371,0.4047,0.5237,0.6361,0.7302,0.7985,0.9295,1.1217,0.92,0.9713,1.3166,0.8077,0.7239,1.1287,0.8024,0.6807,0.8295,0.7299,0.635,0.5642,0.5239,0.4445,0.317,0.1814,0.0357,-0.1173,-0.2285,-0.3353,-0.4399,-0.3707,-0.4096,-0.6105,-0.5941,-0.6254,-0.7462,-0.6292,-0.5343,-0.4958,-0.3991,-0.3193,-0.2869,-0.3059,-0.3135,-0.2982,-0.3044,-0.2997,-0.2816,-0.2763,-0.2691,-0.2443,-0.2402,-0.2356,-0.2264,-0.2189,-0.2068,-0.1895,-0.2047,-0.2198,-0.2142,-0.2124,-0.2518,-0.3406,-0.3642,-0.4414,-0.5767,-0.6117,-0.6416,-0.6992,-0.7379,-0.7547,-0.7374,-0.7026,-0.6976,-0.7528,-0.5723,-0.4545,-0.5572,-0.5238,-0.4856,-0.5151,-0.5621,-0.6918,-0.1044,-0.1041,-0.1072,-0.104,-0.1041,-0.1037,-0.0904,-0.0838,-0.2032,-0.2531,-0.254,-0.2867,-0.3134,-0.3323,-0.3705,-0.3976,-0.4147,-0.4102,-0.4043,-0.3948,-0.2838,-0.221,-0.1953,-0.0977,-0.0422,-0.0199,0.057,0.1156,0.1524,0.2117,0.2757,0.3374,0.3605,0.4159,0.5117,0.5545,0.6306,0.7432,0.7812,0.8372,0.919,0.8393,0.8667,1.0113,0.8753,0.8524,0.9977,0.8913,0.7995,0.7437,0.6644,0.579,0.4918,0.4541,0.4064,0.345,0.2537,0.1399,0.0044,-0.0834,-0.164,-0.2319,-0.2084,-0.2651,-0.4351,-0.3775,-0.3474,-0.3911,-0.3795,-0.3468,-0.3198,-0.3095,-0.2904,-0.2624,-0.2691,-0.2681,-0.2462,-0.2433,-0.2423,-0.2315,-0.2285,-0.2216,-0.1997,-0.1951,-0.1969,-0.1979,-0.1779,-0.1571,-0.1485,-0.1607,-0.1747,-0.1775,-0.1816,-0.2004,-0.243,-0.2411,-0.2989,-0.3856,-0.4578,-0.5013,-0.542,-0.5923,-0.6059,-0.5214,-0.4961,-0.48,-0.5062,-0.3812,-0.3776,-0.4859,-0.4791,-0.468,-0.5371,-0.5721,-0.6493,-0.1143,-0.1276,-0.1243,-0.1174,-0.1074,-0.0603,-0.0436,-0.047,-0.0936,-0.137,-0.1705,-0.1835,-0.2098,-0.238,-0.252,-0.2564,-0.2584,-0.2486,-0.2326,-0.205,-0.1292,-0.0721,-0.0305,0.0265,0.0751,0.1143,0.1564,0.2003,0.2431,0.2921,0.3418,0.3875,0.4418,0.4982,0.5563,0.6153,0.6722,0.727,0.7694,0.8361,0.9226,0.8343,0.8711,1.0428,0.8949,0.9226,1.1498,1.0495,0.9501,0.869,0.792,0.6711,0.4984,0.4406,0.3965,0.356,0.281,0.196,0.1074,0.0308,-0.036,-0.0865,-0.0866,-0.124,-0.2215,-0.2321,-0.2365,-0.2482,-0.2495,-0.2443,-0.2322,-0.2472,-0.2491,-0.2364,-0.2297,-0.2227,-0.208,-0.1931,-0.1816,-0.173,-0.1645,-0.1551,-0.1368,-0.1299,-0.1318,-0.1412,-0.1242,-0.1112,-0.1136,-0.1205,-0.1346,-0.1543,-0.1634,-0.1757,-0.1997,-0.2061,-0.245,-0.3277,-0.381,-0.4303,-0.4786,-0.5435,-0.5615,-0.5365,-0.4978,-0.4993,-0.5283,-0.4547,-0.4436,-0.4968,-0.5545,-0.5763,-0.6145,-0.6715,-0.7496,-0.1308,-0.1575,-0.1311,-0.1108,-0.087,-0.0201,0.0,-0.0168,-0.0034,-0.0335,-0.0869,-0.0991,-0.1215,-0.1435,-0.1366,-0.1246,-0.1135,-0.0954,-0.0706,-0.0357,0.0111,0.0532,0.0928,0.1287,0.1708,0.2159,0.2445,0.2773,0.3199,0.3619,0.3971,0.4277,0.503,0.5545,0.5815,0.6566,0.7029,0.7205,0.765,0.8347,0.9257,0.8381,0.888,1.0573,0.9202,0.9746,1.2706,1.1764,1.0876,1.0407,0.9687,0.8147,0.5757,0.5017,0.4387,0.3743,0.2962,0.2357,0.1964,0.2081,0.1775,0.1055,0.088,0.0608,0.0124,-0.0794,-0.1481,-0.1666,-0.1727,-0.1747,-0.1778,-0.1941,-0.2033,-0.1992,-0.1861,-0.1761,-0.1695,-0.1515,-0.1341,-0.1224,-0.1129,-0.1014,-0.0819,-0.0694,-0.0696,-0.0774,-0.0705,-0.0702,-0.0834,-0.086,-0.1003,-0.1272,-0.1472,-0.1668,-0.1925,-0.2026,-0.234,-0.3008,-0.3485,-0.3853,-0.4367,-0.492,-0.5303,-0.5097,-0.4979,-0.5014,-0.562,-0.52,-0.4939,-0.5552,-0.5993,-0.6394,-0.6607,-0.7253,-0.8144,-0.1811,-0.1778,-0.1211,-0.0471,0.0168,0.0303,0.037,0.0403,0.0437,0.0134,-0.0368,-0.07,-0.0712,-0.0545,-0.0463,-0.0358,-0.0274,-0.0046,0.0156,0.04,0.0968,0.1362,0.1567,0.2211,0.2708,0.2996,0.341,0.3688,0.3937,0.4142,0.4466,0.4902,0.528,0.5712,0.6135,0.6423,0.6855,0.7441,0.7709,0.794,0.8212,0.8243,0.8811,0.9861,0.974,1.0581,1.2514,1.2089,1.1765,1.1839,1.1305,0.9877,0.7549,0.6737,0.5715,0.4108,0.3197,0.2633,0.2742,0.514,0.5781,0.4316,0.3819,0.3368,0.2604,0.1182,-0.0147,-0.089,-0.1158,-0.1249,-0.1345,-0.1491,-0.1549,-0.1459,-0.1394,-0.1325,-0.119,-0.1038,-0.0954,-0.0947,-0.084,-0.0791,-0.043,-0.0337,-0.0293,-0.0118,-0.0125,-0.0234,-0.0462,-0.0541,-0.0663,-0.0967,-0.1383,-0.1761,-0.1909,-0.2075,-0.2282,-0.254,-0.3125,-0.3414,-0.3364,-0.3545,-0.3732,-0.4178,-0.348,-0.3759,-0.4322,-0.4252,-0.4672,-0.5739,-0.6043,-0.5882,-0.6361,-0.6751,-0.73,-0.188,-0.1648,-0.1279,-0.0606,0.0202,0.0471,0.0639,0.0707,0.0403,0.037,0.0467,0.0221,0.003,-0.0058,0.0412,0.0706,0.08,0.0824,0.1146,0.1634,0.1793,0.2087,0.2498,0.2726,0.3056,0.3444,0.3675,0.3945,0.4325,0.4657,0.4981,0.5262,0.5686,0.6081,0.6401,0.6697,0.7045,0.7377,0.759,0.7665,0.7679,0.7979,0.8348,0.877,0.9346,1.0058,1.1001,1.1497,1.1432,1.0687,1.0969,1.0309,0.8284,0.8242,0.7498,0.5753,0.4916,0.4819,0.5464,0.6615,0.6885,0.6023,0.5562,0.4848,0.3738,0.2614,0.1453,0.0264,-0.0479,-0.0922,-0.1046,-0.1173,-0.1227,-0.1188,-0.111,-0.0998,-0.0882,-0.063,-0.0476,-0.0369,-0.009,0.0157,0.0384,0.051,0.0611,0.0728,0.0647,0.0376,0.0067,0.0,-0.0158,-0.0532,-0.1131,-0.1613,-0.1776,-0.2037,-0.2285,-0.2581,-0.2977,-0.3119,-0.3267,-0.3653,-0.4053,-0.3847,-0.3632,-0.3847,-0.4859,-0.4768,-0.4975,-0.5899,-0.6423,-0.6357,-0.6493,-0.6548,-0.694,-0.1914,-0.1514,-0.1244,-0.0673,0.0101,0.0403,0.0606,0.0673,0.0403,0.0538,0.0905,0.1029,0.0883,0.069,0.1213,0.1573,0.1681,0.1732,0.2093,0.2654,0.26,0.2807,0.3203,0.3229,0.3423,0.3786,0.389,0.4158,0.4626,0.5098,0.5366,0.5537,0.6009,0.6366,0.6579,0.6914,0.7155,0.7266,0.7422,0.7437,0.7387,0.7811,0.8034,0.7987,0.8886,0.9537,0.9832,1.0773,1.0969,1.0186,1.1,1.0696,0.904,0.915,0.853,0.6992,0.6954,0.7192,0.7704,0.8334,0.8482,0.7972,0.742,0.6595,0.5342,0.4076,0.2908,0.1884,0.0598,-0.0256,-0.0679,-0.0797,-0.0863,-0.0896,-0.0772,-0.0663,-0.0562,-0.0299,-0.0058,0.0202,0.0594,0.1058,0.1311,0.157,0.1691,0.14,0.1257,0.0989,0.0597,0.0431,0.0269,-0.0178,-0.0893,-0.1431,-0.1703,-0.2231,-0.2523,-0.2796,-0.3113,-0.3288,-0.3441,-0.39,-0.4117,-0.3604,-0.3989,-0.4419,-0.4852,-0.5016,-0.5119,-0.5755,-0.6114,-0.611,-0.5696,-0.5906,-0.6068,-0.204,-0.1542,-0.0974,-0.0403,0.0101,0.0134,0.0134,0.0269,0.0639,0.074,0.0739,0.1536,0.1844,0.1709,0.1943,0.2063,0.2239,0.2628,0.2973,0.3223,0.3403,0.3507,0.3501,0.3683,0.3884,0.4125,0.424,0.4495,0.4883,0.5347,0.5622,0.5734,0.6248,0.6577,0.6761,0.6987,0.712,0.7193,0.7278,0.7338,0.7386,0.7844,0.7955,0.7822,0.8497,0.9158,0.9553,0.9908,1.0494,1.151,1.1829,1.1304,0.9756,0.9321,0.8496,0.7338,0.8863,0.9499,0.8869,1.0765,1.1705,1.0503,0.9856,0.9169,0.7881,0.5731,0.4195,0.3808,0.2084,0.0778,0.008,-0.0103,-0.027,-0.0414,-0.0304,-0.0217,-0.0211,-0.0023,0.0244,0.0704,0.1185,0.1681,0.2196,0.27,0.2427,0.1928,0.1786,0.1676,0.0971,0.0699,0.0397,-0.009,-0.0709,-0.1269,-0.1749,-0.2449,-0.2999,-0.3133,-0.3121,-0.3341,-0.3247,-0.3205,-0.3273,-0.3504,-0.4111,-0.4555,-0.4808,-0.5009,-0.5104,-0.5269,-0.5116,-0.4967,-0.5078,-0.4643,-0.4901,-0.2109,-0.1209,-0.047,0.0,0.0269,0.0235,0.0336,0.0505,0.0673,0.0907,0.1239,0.1876,0.2315,0.2524,0.2885,0.2978,0.293,0.3013,0.3467,0.4132,0.4003,0.3963,0.4063,0.4036,0.4068,0.4202,0.4301,0.4646,0.5214,0.5518,0.6076,0.671,0.6691,0.6958,0.7454,0.7183,0.7166,0.7538,0.7307,0.737,0.7873,0.8081,0.8275,0.8546,0.8687,0.882,0.8898,0.9141,0.9569,1.0146,1.0895,1.1017,1.0474,1.0471,1.0595,1.0688,1.1058,1.1361,1.1735,1.2648,1.325,1.3042,1.2328,1.113,0.9511,0.755,0.581,0.4433,0.3166,0.2156,0.1771,0.1153,0.0535,0.0173,0.0237,0.0357,0.0354,0.0575,0.1013,0.152,0.2253,0.2988,0.3198,0.3374,0.3152,0.2678,0.2441,0.2075,0.1648,0.1306,0.0797,-0.0064,-0.0701,-0.128,-0.191,-0.2673,-0.3163,-0.3041,-0.3039,-0.3097,-0.3086,-0.3251,-0.3383,-0.3537,-0.4147,-0.45,-0.4713,-0.4838,-0.4951,-0.4855,-0.4651,-0.451,-0.4614,-0.4498,-0.4762,-0.1904,-0.1075,-0.0269,0.0134,0.0303,0.0403,0.0571,0.0805,0.104,0.1406,0.184,0.2341,0.2772,0.3167,0.3597,0.378,0.3705,0.3643,0.4066,0.477,0.449,0.4338,0.4336,0.4193,0.4118,0.4279,0.4603,0.5135,0.5827,0.6152,0.6773,0.7573,0.7351,0.7588,0.8061,0.7685,0.7669,0.7943,0.7643,0.7733,0.8274,0.8552,0.8825,0.9094,0.9242,0.9137,0.881,0.8831,0.8988,0.9346,1.0005,1.043,1.0578,1.1122,1.1837,1.2604,1.2735,1.3011,1.3775,1.3864,1.4002,1.4319,1.36,1.234,1.0653,0.9036,0.7366,0.5867,0.4526,0.3872,0.3751,0.3155,0.2243,0.1326,0.1113,0.1149,0.1154,0.1496,0.1997,0.263,0.3441,0.3966,0.4045,0.3904,0.3593,0.3241,0.2907,0.2613,0.2148,0.1713,0.1128,0.0131,-0.06,-0.1215,-0.1842,-0.254,-0.3105,-0.3057,-0.2983,-0.3006,-0.3078,-0.3271,-0.3485,-0.3688,-0.394,-0.4311,-0.4528,-0.466,-0.4638,-0.4512,-0.4272,-0.4047,-0.4275,-0.4572,-0.4854,-0.1271,-0.1071,-0.0403,0.0,0.0202,0.0538,0.0771,0.1004,0.1702,0.2139,0.2371,0.2937,0.3307,0.363,0.4016,0.4333,0.4503,0.4523,0.4668,0.4998,0.4847,0.4631,0.4376,0.4275,0.4312,0.4448,0.5245,0.6102,0.6806,0.7158,0.7583,0.8029,0.8211,0.834,0.8524,0.8441,0.8412,0.8464,0.8295,0.8287,0.841,0.9109,0.9445,0.9421,1.0004,1.0064,0.946,0.9055,0.9095,0.9386,0.9582,0.9708,1.035,1.1212,1.1993,1.2708,1.3694,1.4442,1.4622,1.446,1.435,1.4455,1.3686,1.283,1.1603,1.0065,0.8768,0.7814,0.6548,0.5679,0.5809,0.5537,0.4603,0.3004,0.2464,0.2443,0.2488,0.2602,0.3016,0.394,0.456,0.4581,0.4339,0.4215,0.3961,0.3405,0.3142,0.2944,0.2374,0.1842,0.1265,0.0468,-0.0394,-0.1144,-0.172,-0.2305,-0.2768,-0.3086,-0.3059,-0.3062,-0.3086,-0.3228,-0.3421,-0.3644,-0.3951,-0.4282,-0.4094,-0.415,-0.4079,-0.3959,-0.3742,-0.3751,-0.4064,-0.4417,-0.4883,-0.1004,-0.0603,-0.0168,0.0101,0.0303,0.067,0.0937,0.1136,0.1937,0.2402,0.2702,0.327,0.3667,0.3918,0.4403,0.4762,0.489,0.5081,0.5207,0.5251,0.5139,0.4947,0.4779,0.4836,0.5099,0.5477,0.5979,0.6645,0.7292,0.7531,0.8079,0.8911,0.8675,0.88,0.9237,0.8822,0.8628,0.8899,0.8537,0.8644,0.9263,0.917,0.9484,1.0245,1.0143,1.0139,1.0576,1.0269,1.0299,1.0615,1.0726,1.0988,1.1562,1.2191,1.2783,1.3368,1.4054,1.4727,1.5095,1.5074,1.5144,1.5342,1.4872,1.3924,1.2671,1.1147,0.9755,0.8667,0.7465,0.6861,0.6885,0.6486,0.5663,0.4398,0.4376,0.4231,0.3997,0.4087,0.467,0.5404,0.5458,0.5121,0.4687,0.4452,0.3958,0.3563,0.3257,0.2882,0.2547,0.1852,0.1036,0.0267,-0.0467,-0.1005,-0.1505,-0.1909,-0.2229,-0.2678,-0.284,-0.3044,-0.3081,-0.3191,-0.3406,-0.3595,-0.3902,-0.3979,-0.3759,-0.3712,-0.3662,-0.368,-0.3698,-0.3821,-0.396,-0.44,-0.4979,-0.0704,-0.0337,0.0206,0.0512,0.0676,0.1254,0.1593,0.1782,0.249,0.2922,0.3208,0.3597,0.3956,0.428,0.473,0.4985,0.5182,0.5453,0.5609,0.554,0.5264,0.5049,0.493,0.5214,0.5726,0.6298,0.6761,0.7364,0.8046,0.8274,0.885,0.9585,0.9305,0.9259,0.9676,0.9321,0.9281,0.9542,0.9354,0.9604,1.0223,1.0011,1.0197,1.1003,1.0699,1.0842,1.1567,1.1519,1.1365,1.1267,1.1257,1.1582,1.2165,1.259,1.3106,1.3657,1.4164,1.4656,1.5015,1.5158,1.5428,1.564,1.5359,1.4511,1.324,1.1847,1.0491,0.9126,0.8299,0.7954,0.8082,0.7555,0.6999,0.6816,0.6237,0.6006,0.5715,0.5699,0.5829,0.6178,0.5825,0.5273,0.4832,0.4381,0.3947,0.3699,0.3376,0.2958,0.2655,0.1967,0.1127,0.0341,-0.0347,-0.0792,-0.1212,-0.1526,-0.1737,-0.2144,-0.2493,-0.2857,-0.3083,-0.3218,-0.3373,-0.3415,-0.3652,-0.3644,-0.3482,-0.359,-0.3628,-0.366,-0.3751,-0.3894,-0.4113,-0.4815,-0.549,-0.034,-0.0171,0.0678,0.1101,0.1277,0.2167,0.2585,0.2788,0.3337,0.3677,0.3885,0.4049,0.4323,0.4778,0.5049,0.5264,0.5453,0.5831,0.5972,0.5814,0.5561,0.5293,0.5283,0.5604,0.618,0.6873,0.7472,0.8148,0.8802,0.9112,0.9712,0.9995,0.9931,0.9957,0.9944,0.9982,1.0144,1.0417,1.06,1.0947,1.1454,1.1367,1.1441,1.1848,1.1765,1.199,1.2515,1.2713,1.2303,1.1393,1.1506,1.1778,1.2103,1.2573,1.3026,1.3531,1.4144,1.4468,1.4624,1.5149,1.5428,1.5392,1.5198,1.4617,1.3441,1.2323,1.1159,0.9866,0.9191,0.906,0.9293,0.8695,0.8599,0.9101,0.7718,0.7165,0.7852,0.7265,0.6865,0.6594,0.5866,0.5092,0.4888,0.4403,0.4062,0.3783,0.3586,0.3207,0.2682,0.2051,0.1469,0.0699,-0.0105,-0.059,-0.1012,-0.1103,-0.1342,-0.1743,-0.2073,-0.2402,-0.2788,-0.2951,-0.3108,-0.3153,-0.3256,-0.3239,-0.3336,-0.3466,-0.3595,-0.3667,-0.3796,-0.3921,-0.4339,-0.4947,-0.599,0.0565,0.1208,0.1639,0.1863,0.2034,0.279,0.3121,0.3235,0.3974,0.4345,0.448,0.4784,0.4984,0.5147,0.5582,0.5797,0.5785,0.6064,0.6248,0.6293,0.638,0.6413,0.6498,0.6681,0.7045,0.7605,0.8032,0.847,0.9143,0.9298,0.9632,1.0173,1.0123,1.0236,1.0474,1.055,1.0837,1.1215,1.1332,1.1425,1.1653,1.1861,1.2141,1.251,1.2784,1.3262,1.3854,1.3869,1.3537,1.2856,1.2703,1.2722,1.2755,1.2827,1.3083,1.361,1.4106,1.4631,1.509,1.5604,1.5883,1.5863,1.5374,1.471,1.3815,1.288,1.1919,1.0955,1.0313,1.0153,1.0371,0.9395,0.8855,0.8766,0.8103,0.7789,0.8223,0.7939,0.741,0.7095,0.6621,0.5996,0.5278,0.4757,0.4325,0.391,0.3564,0.326,0.2728,0.1983,0.1352,0.0792,0.0102,-0.034,-0.067,-0.0762,-0.0983,-0.1379,-0.1652,-0.1764,-0.2117,-0.233,-0.2491,-0.2577,-0.2879,-0.298,-0.3178,-0.3381,-0.3506,-0.3534,-0.3707,-0.3788,-0.422,-0.4803,-0.6211,0.1252,0.1726,0.2275,0.2502,0.2673,0.3373,0.3762,0.397,0.4558,0.4962,0.5162,0.5468,0.5615,0.5561,0.5835,0.5826,0.5712,0.6135,0.6352,0.652,0.7123,0.7514,0.7684,0.7856,0.8083,0.8348,0.8844,0.9047,0.9129,0.9364,0.9827,1.0189,1.0218,1.0453,1.0937,1.1086,1.1332,1.1703,1.1877,1.2027,1.2285,1.2337,1.263,1.2996,1.3324,1.372,1.4472,1.4539,1.4162,1.3512,1.321,1.3121,1.3044,1.3154,1.3314,1.3659,1.4083,1.4584,1.495,1.5469,1.5733,1.5729,1.543,1.4986,1.4206,1.3343,1.2411,1.1571,1.0898,1.0683,1.0603,0.9659,0.8922,0.8715,0.8413,0.8506,0.9085,0.8457,0.79,0.7475,0.6951,0.6364,0.5488,0.5019,0.4627,0.4248,0.3767,0.3377,0.2911,0.202,0.1274,0.0821,0.039,-0.0072,-0.0481,-0.0615,-0.0698,-0.1107,-0.1236,-0.133,-0.166,-0.1907,-0.2151,-0.2366,-0.2576,-0.2766,-0.3013,-0.3166,-0.3187,-0.3303,-0.348,-0.3653,-0.3949,-0.4908,-0.6319,0.183,0.1955,0.2774,0.3124,0.3349,0.3999,0.4462,0.4744,0.522,0.5596,0.5882,0.6074,0.6129,0.6075,0.6011,0.579,0.5666,0.6417,0.6775,0.7264,0.8021,0.8665,0.8825,0.8834,0.8878,0.9025,0.9863,0.9649,0.937,0.9706,1.0143,1.0456,1.0485,1.0778,1.1344,1.159,1.1839,1.2177,1.2531,1.2856,1.3116,1.3055,1.3269,1.3767,1.3867,1.4151,1.4789,1.4957,1.462,1.3562,1.3374,1.3401,1.3298,1.3637,1.3725,1.382,1.4272,1.46,1.4647,1.5191,1.5422,1.548,1.5626,1.536,1.4564,1.365,1.28,1.2031,1.1169,1.0692,1.0262,0.9706,0.9276,0.8901,0.8693,0.9127,0.9502,0.8934,0.8165,0.7867,0.6897,0.6278,0.5636,0.5178,0.4783,0.4553,0.409,0.3625,0.3136,0.2478,0.1736,0.107,0.065,0.0231,-0.016,-0.0502,-0.0611,-0.0807,-0.0851,-0.1015,-0.144,-0.1728,-0.1987,-0.2178,-0.2264,-0.2472,-0.2763,-0.2865,-0.2874,-0.2943,-0.3031,-0.3158,-0.3416,-0.4856,-0.6301,0.2656,0.3224,0.3597,0.385,0.4085,0.4413,0.4909,0.5497,0.5845,0.6288,0.6585,0.655,0.6564,0.6592,0.6422,0.6432,0.6631,0.7241,0.7986,0.8991,0.9404,0.9967,1.0056,0.9737,0.9389,0.9482,0.9667,0.9821,0.9871,1.0162,1.0661,1.0918,1.1137,1.1597,1.207,1.2252,1.2472,1.2951,1.3446,1.3768,1.3905,1.396,1.4188,1.4782,1.5169,1.5354,1.5422,1.5775,1.5528,1.4903,1.4689,1.462,1.4439,1.4447,1.4449,1.4514,1.486,1.5177,1.5277,1.5624,1.5948,1.5906,1.5717,1.533,1.4665,1.4019,1.3323,1.2614,1.1753,1.0806,0.9936,1.0146,0.9765,0.9138,0.8995,0.9145,0.9248,0.9069,0.846,0.7787,0.7432,0.699,0.6061,0.571,0.5313,0.4904,0.4418,0.3912,0.3399,0.2914,0.2156,0.1451,0.1007,0.0607,0.0124,-0.0214,-0.0439,-0.0584,-0.0674,-0.0719,-0.1156,-0.1492,-0.1716,-0.1817,-0.1884,-0.214,-0.2462,-0.2378,-0.2277,-0.2455,-0.2674,-0.302,-0.3628,-0.4981,-0.6379,0.3306,0.3928,0.4056,0.4487,0.5048,0.5135,0.5561,0.6289,0.6634,0.6985,0.7231,0.723,0.7062,0.6782,0.6903,0.698,0.7024,0.78,0.8752,0.9639,1.003,1.0371,1.0891,1.0666,1.0412,1.0113,1.0298,1.031,1.0167,1.0432,1.0799,1.1272,1.1482,1.1983,1.2771,1.3054,1.3333,1.3647,1.421,1.4537,1.4574,1.476,1.5008,1.5561,1.6188,1.644,1.6107,1.6214,1.6144,1.5884,1.5759,1.5487,1.5098,1.5078,1.5114,1.5169,1.5581,1.5848,1.5967,1.6072,1.6179,1.6194,1.5996,1.5565,1.5,1.446,1.3782,1.3017,1.2223,1.1377,1.0319,0.9837,0.9734,0.9552,0.9337,0.9323,0.9142,0.8818,0.8405,0.774,0.738,0.6829,0.6301,0.6056,0.5884,0.5475,0.499,0.4477,0.403,0.3475,0.2602,0.1907,0.1479,0.1018,0.0472,0.0087,-0.0266,-0.045,-0.0584,-0.0674,-0.0851,-0.1148,-0.1391,-0.1511,-0.1634,-0.1859,-0.2055,-0.1912,-0.1921,-0.2142,-0.2495,-0.2973,-0.3796,-0.5057,-0.6559,0.3792,0.4403,0.4403,0.5048,0.5947,0.5867,0.6252,0.7021,0.7356,0.7447,0.7641,0.775,0.7268,0.7071,0.7289,0.7187,0.752,0.8181,0.9427,1.0156,1.0432,1.0788,1.1211,1.1499,1.1506,1.0899,1.1079,1.0861,1.0591,1.0637,1.1522,1.1889,1.2059,1.2758,1.3532,1.3927,1.4173,1.4286,1.4828,1.5145,1.5184,1.5401,1.5621,1.5896,1.6754,1.6899,1.6593,1.6586,1.6659,1.6644,1.6501,1.5957,1.5495,1.5432,1.5724,1.5729,1.6103,1.6242,1.6246,1.6231,1.6194,1.6194,1.6194,1.5926,1.5359,1.4786,1.4063,1.3247,1.2412,1.1709,1.1148,1.0386,0.9884,0.9747,0.9675,0.9431,0.9029,0.8481,0.8055,0.7736,0.739,0.6923,0.6592,0.6301,0.6221,0.6007,0.5518,0.4952,0.4482,0.3953,0.3029,0.2275,0.1783,0.1131,0.0571,0.0352,0.0,-0.0315,-0.0494,-0.0584,-0.0629,-0.0803,-0.106,-0.1245,-0.1378,-0.1601,-0.1687,-0.1606,-0.17,-0.1921,-0.245,-0.3064,-0.4014,-0.5134,-0.6722,0.41,0.4874,0.4952,0.547,0.6209,0.6325,0.6774,0.7286,0.7419,0.7454,0.7536,0.7225,0.7319,0.7418,0.731,0.7903,0.8898,0.9616,1.015,1.0771,1.1059,1.1485,1.168,1.2131,1.2246,1.2171,1.1991,1.1719,1.1905,1.2316,1.2651,1.3623,1.3921,1.431,1.4422,1.4726,1.4777,1.4904,1.5476,1.5823,1.5876,1.6101,1.6136,1.6246,1.7198,1.7228,1.6756,1.6955,1.7086,1.6541,1.6429,1.6258,1.5993,1.6018,1.6107,1.6244,1.6311,1.6398,1.6344,1.6262,1.6222,1.6194,1.6222,1.5955,1.5463,1.4864,1.4082,1.3098,1.2092,1.1175,1.0396,1.0263,1.0106,0.9844,0.9611,0.9481,0.9116,0.8591,0.8053,0.775,0.7433,0.7147,0.681,0.6556,0.6471,0.6258,0.5825,0.5087,0.4355,0.3921,0.3331,0.2664,0.2089,0.1335,0.0626,0.0491,0.0269,-0.018,-0.036,-0.045,-0.0539,-0.0539,-0.0719,-0.0898,-0.1076,-0.1252,-0.1298,-0.13,-0.1566,-0.1921,-0.2495,-0.3155,-0.4322,-0.5514,-0.6861,0.4787,0.5782,0.5952,0.658,0.7371,0.7321,0.7551,0.7924,0.7785,0.7663,0.766,0.7529,0.7519,0.7796,0.8228,0.9112,1.0203,1.0655,1.1061,1.1551,1.1861,1.2017,1.2152,1.2615,1.2615,1.2541,1.2436,1.2529,1.2715,1.2832,1.3541,1.4158,1.4526,1.4688,1.499,1.5172,1.5344,1.5589,1.6226,1.6617,1.6604,1.6996,1.719,1.7199,1.7759,1.7941,1.7456,1.7379,1.7287,1.668,1.6442,1.623,1.6019,1.5911,1.5983,1.6289,1.6355,1.6355,1.6301,1.6234,1.6222,1.6194,1.6207,1.5911,1.5315,1.4665,1.3815,1.2589,1.174,1.0867,1.0475,1.0418,1.0166,0.9744,0.9557,0.9332,0.8958,0.8513,0.8144,0.7821,0.7573,0.7279,0.6992,0.6823,0.6732,0.6471,0.6124,0.526,0.4312,0.3832,0.3435,0.2857,0.2277,0.1655,0.0987,0.0717,0.0451,0.0,-0.0272,-0.0363,-0.0408,-0.0455,-0.0497,-0.0584,-0.0763,-0.1032,-0.1077,-0.1167,-0.1521,-0.1964,-0.2674,-0.3554,-0.476,-0.5958,-0.7187,0.5389,0.652,0.6787,0.7463,0.8267,0.8077,0.8114,0.8336,0.8067,0.787,0.787,0.7889,0.7949,0.83,0.9099,1.016,1.1308,1.1368,1.1675,1.212,1.237,1.2475,1.2644,1.295,1.3107,1.295,1.3212,1.3346,1.3393,1.3387,1.3933,1.4719,1.4824,1.4894,1.5384,1.5844,1.6033,1.6406,1.6952,1.731,1.7365,1.8001,1.8318,1.789,1.8639,1.8824,1.8021,1.8015,1.7631,1.7055,1.6586,1.6242,1.5832,1.5566,1.5668,1.6039,1.6234,1.6246,1.6289,1.6262,1.6234,1.6234,1.6219,1.5796,1.5077,1.4278,1.3192,1.1768,1.1094,1.0746,1.0487,1.0371,1.003,0.9697,0.9451,0.9239,0.8837,0.8472,0.8283,0.7976,0.7701,0.7483,0.723,0.7216,0.7167,0.6465,0.6076,0.526,0.4395,0.388,0.3439,0.2951,0.2415,0.1969,0.1433,0.0986,0.059,0.0092,-0.0139,-0.0232,-0.0278,-0.037,-0.0413,-0.0457,-0.0718,-0.0987,-0.1033,-0.13,-0.1923,-0.2499,-0.3078,-0.3997,-0.525,-0.6156,-0.7079,0.5599,0.6526,0.6764,0.7194,0.7814,0.7836,0.7834,0.801,0.7991,0.7897,0.7814,0.7938,0.8309,0.901,0.9864,1.0716,1.1287,1.1634,1.1985,1.2474,1.271,1.2889,1.3052,1.3527,1.3647,1.3602,1.4063,1.4272,1.4275,1.4247,1.4908,1.5825,1.5991,1.6248,1.6143,1.6536,1.7081,1.7151,1.7381,1.7434,1.7475,1.8279,1.8314,1.828,1.8723,1.912,1.8475,1.8495,1.8268,1.759,1.6865,1.6476,1.6256,1.5772,1.5669,1.5784,1.5898,1.5968,1.6194,1.6262,1.6274,1.6246,1.6207,1.5811,1.4898,1.3651,1.2448,1.1513,1.0981,1.0641,1.039,1.0215,0.9922,0.9607,0.9288,0.9047,0.8724,0.8529,0.8291,0.8346,0.8116,0.7827,0.7573,0.7615,0.7559,0.6725,0.5899,0.513,0.4395,0.3832,0.335,0.2862,0.2595,0.2148,0.1581,0.1173,0.0597,0.0094,-0.0142,-0.0286,-0.0524,-0.0618,-0.0378,-0.0515,-0.0779,-0.1076,-0.1344,-0.1789,-0.241,-0.3075,-0.3653,-0.4657,-0.5873,-0.6596,-0.7169,0.655,0.767,0.7965,0.8364,0.8769,0.8692,0.8431,0.8165,0.7808,0.7773,0.7972,0.8088,0.8731,0.9808,1.0813,1.1489,1.1817,1.2139,1.2586,1.2906,1.3186,1.331,1.3491,1.3893,1.414,1.4233,1.4582,1.5005,1.5052,1.5247,1.5707,1.633,1.6534,1.6429,1.6607,1.6989,1.7227,1.7489,1.7828,1.8161,1.8358,1.8679,1.8867,1.8651,1.9309,1.9356,1.9269,1.9116,1.8852,1.8233,1.7655,1.7071,1.6466,1.5999,1.5782,1.5507,1.598,1.6173,1.6215,1.6292,1.6378,1.6305,1.6151,1.5591,1.4393,1.3099,1.192,1.1105,1.0687,1.0419,1.0224,1.0039,0.9734,0.9457,0.9278,0.9018,0.8782,0.8553,0.8413,0.8476,0.8498,0.8135,0.7802,0.7595,0.7319,0.655,0.5707,0.4912,0.4196,0.3527,0.3084,0.2726,0.2551,0.2373,0.1768,0.1234,0.042,-0.0143,-0.0588,-0.0738,-0.1033,-0.103,-0.0679,-0.0568,-0.078,-0.113,-0.1569,-0.2188,-0.2854,-0.3561,-0.4268,-0.5265,-0.6252,-0.6868,-0.7684,0.741,0.8556,0.881,0.9111,0.9435,0.9189,0.8836,0.8381,0.8048,0.8029,0.8381,0.8799,0.9677,1.0653,1.1578,1.203,1.23,1.2727,1.314,1.3486,1.361,1.3589,1.3674,1.3999,1.4233,1.443,1.4823,1.5242,1.5644,1.5896,1.6114,1.6479,1.6534,1.6607,1.6778,1.7144,1.7557,1.7948,1.8514,1.8798,1.8874,1.9011,1.9184,1.9303,1.953,1.9741,1.9848,1.9639,1.9146,1.8844,1.8376,1.7715,1.7034,1.6637,1.6393,1.6208,1.6491,1.6709,1.6876,1.6998,1.6856,1.674,1.6291,1.5717,1.406,1.2758,1.1686,1.0915,1.0508,1.0233,1.0061,0.9929,0.9765,0.965,0.9509,0.9228,0.8989,0.8981,0.8797,0.8612,0.8555,0.8281,0.7931,0.7572,0.7056,0.6343,0.5545,0.4737,0.4051,0.3345,0.3175,0.292,0.2799,0.2546,0.1805,0.1149,0.0339,-0.044,-0.0903,-0.1077,-0.124,-0.1109,-0.0736,-0.0716,-0.0787,-0.1266,-0.1787,-0.2499,-0.3252,-0.4128,-0.4961,-0.5685,-0.6495,-0.7273,-0.827,0.7905,0.875,0.8496,0.8601,0.883,0.8631,0.8463,0.8319,0.8679,0.876,0.8964,1.0072,1.1084,1.1749,1.205,1.2443,1.281,1.2861,1.3191,1.3507,1.361,1.361,1.3716,1.3858,1.4093,1.4512,1.5051,1.549,1.58,1.6194,1.6392,1.6534,1.665,1.682,1.7144,1.7557,1.8121,1.8577,1.9139,1.9064,1.8974,1.8997,1.9221,1.9244,1.9281,1.9406,1.9675,1.9508,1.9369,1.9192,1.8773,1.837,1.7797,1.7384,1.7177,1.6936,1.6953,1.7261,1.7604,1.7853,1.8189,1.8007,1.726,1.5951,1.4323,1.3255,1.213,1.1008,1.0625,1.028,1.0072,0.9969,1.0077,1.0036,1.0071,0.9949,0.9787,0.9742,0.9505,0.8982,0.8653,0.8388,0.7854,0.745,0.6852,0.614,0.5253,0.4439,0.3999,0.3447,0.3447,0.3297,0.3197,0.2713,0.1773,0.0967,0.0,-0.0914,-0.1565,-0.1448,-0.1259,-0.1057,-0.1004,-0.0828,-0.0902,-0.1471,-0.2095,-0.3064,-0.3986,-0.4865,-0.5771,-0.6716,-0.7847,-0.8927,-0.9722,0.7736,0.8806,0.8826,0.9105,0.9497,0.9302,0.8875,0.8463,0.8693,0.9217,0.9813,1.107,1.1792,1.2141,1.2796,1.2944,1.3,1.3202,1.3434,1.3548,1.361,1.361,1.3752,1.4176,1.464,1.496,1.5546,1.5988,1.625,1.6473,1.671,1.6879,1.6986,1.7018,1.7352,1.7988,1.863,1.9049,1.9435,1.942,1.9347,1.9124,1.9273,1.9566,1.9132,1.9295,1.9581,1.945,1.9413,1.9303,1.9118,1.8767,1.8452,1.8086,1.7739,1.7403,1.7403,1.7772,1.7954,1.8115,1.8098,1.7846,1.7117,1.6032,1.46,1.3489,1.2467,1.1551,1.0984,1.0691,1.0606,1.0792,1.0918,1.0775,1.0755,1.0728,1.0535,1.0461,0.9916,0.9199,0.8822,0.8538,0.7902,0.7223,0.658,0.5896,0.503,0.4244,0.378,0.3369,0.331,0.319,0.2993,0.2146,0.1196,0.0363,-0.0462,-0.1315,-0.2214,-0.1977,-0.1782,-0.1679,-0.1604,-0.1255,-0.1259,-0.196,-0.2763,-0.3818,-0.476,-0.5696,-0.6848,-0.8084,-0.9234,-1.0442,-1.1089,0.7859,0.8955,0.9286,0.9644,0.9961,0.9799,0.9362,0.8893,0.9039,0.9774,1.0922,1.1738,1.228,1.2689,1.3181,1.3445,1.3289,1.3434,1.3558,1.361,1.361,1.3716,1.4046,1.4466,1.4869,1.5367,1.5844,1.6238,1.6491,1.6685,1.6948,1.7274,1.7726,1.7916,1.7868,1.8422,1.9101,1.9362,1.9545,1.969,1.9603,1.9457,1.9362,1.9669,1.9347,1.9273,1.9472,1.9398,1.9339,1.9339,1.9236,1.9075,1.8825,1.8534,1.8187,1.7892,1.7776,1.8121,1.8151,1.8162,1.8182,1.8007,1.7463,1.6189,1.4845,1.3769,1.2881,1.1732,1.1441,1.1347,1.1219,1.1426,1.1592,1.1494,1.2049,1.209,1.1251,1.0917,1.014,0.9405,0.9098,0.8703,0.7662,0.6932,0.5998,0.5314,0.4552,0.3917,0.3641,0.3245,0.3023,0.279,0.2551,0.1519,0.0371,-0.0315,-0.11,-0.2043,-0.2692,-0.2654,-0.2494,-0.2273,-0.1894,-0.1415,-0.1657,-0.2454,-0.3774,-0.5233,-0.5972,-0.6544,-0.8067,-0.9811,-1.0521,-1.1631,-1.2201,0.8429,0.9411,0.9694,0.9903,0.9984,0.9999,0.9736,0.9305,0.9698,1.0569,1.1724,1.201,1.2586,1.3263,1.3569,1.3538,1.3527,1.3569,1.361,1.361,1.3763,1.3952,1.4233,1.4605,1.513,1.5668,1.602,1.6293,1.6577,1.6979,1.7256,1.7836,1.8576,1.9128,1.8676,1.9026,1.9302,1.9413,1.9538,1.9632,1.9654,1.9566,1.9508,1.9596,1.9398,1.9302,1.9362,1.9288,1.9265,1.9288,1.9288,1.9214,1.9141,1.9126,1.8957,1.8786,1.8474,1.866,1.8985,1.9082,1.8714,1.8285,1.7737,1.6769,1.542,1.4305,1.3305,1.212,1.1899,1.1788,1.183,1.2056,1.2268,1.2497,1.3063,1.2812,1.1988,1.1077,1.031,0.9489,0.9186,0.8732,0.7593,0.6538,0.5468,0.4658,0.3977,0.3534,0.3333,0.3234,0.2943,0.2169,0.1825,0.0808,-0.027,-0.0962,-0.1715,-0.2695,-0.3065,-0.2961,-0.2724,-0.2351,-0.1959,-0.1577,-0.2488,-0.371,-0.5292,-0.6893,-0.8177,-0.9582,-1.0399,-1.1672,-1.2235,-1.2874,-1.365,0.8292,0.9069,0.9399,0.9688,0.9976,1.0007,0.9715,0.9358,0.9692,1.0647,1.1796,1.211,1.2666,1.3355,1.361,1.361,1.361,1.361,1.361,1.3658,1.3905,1.4186,1.4512,1.5051,1.5478,1.5788,1.6064,1.6491,1.6989,1.7398,1.7837,1.8448,1.9143,1.9594,1.9542,1.9572,1.9376,1.9413,1.956,1.969,1.9639,1.942,1.9347,1.9553,1.9228,1.9101,1.925,1.9228,1.9213,1.9265,1.9265,1.9288,1.9302,1.9302,1.9116,1.8812,1.8517,1.8425,1.8397,1.833,1.8408,1.8252,1.7894,1.6957,1.5536,1.4654,1.3617,1.286,1.2661,1.2609,1.2768,1.3258,1.3489,1.3453,1.3543,1.2964,1.2166,1.1294,1.0418,0.9563,0.9008,0.8043,0.6966,0.6036,0.505,0.4385,0.3698,0.3157,0.2877,0.3049,0.2929,0.1715,0.0882,-0.0055,-0.0938,-0.1744,-0.2391,-0.3264,-0.335,-0.3021,-0.2722,-0.2532,-0.2527,-0.2389,-0.3691,-0.5106,-0.7298,-0.9511,-1.1523,-1.2986,-1.3463,-1.3848,-1.4428,-1.4991,-1.559,0.8312,0.9067,0.9088,0.9366,0.9802,0.9946,0.9768,0.9507,0.9931,1.0862,1.1804,1.2282,1.2842,1.3406,1.361,1.361,1.361,1.361,1.381,1.3858,1.4186,1.4605,1.5051,1.549,1.58,1.61,1.6554,1.7046,1.705,1.7739,1.8561,1.9321,1.9564,1.9839,1.9921,1.9759,1.9465,1.9538,1.9632,1.9705,1.9617,1.9457,1.931,1.9325,1.9176,1.8988,1.9139,1.9176,1.9139,1.9228,1.9228,1.9213,1.9228,1.9191,1.8965,1.8673,1.8321,1.8149,1.8003,1.7963,1.8135,1.824,1.772,1.6773,1.564,1.4733,1.3961,1.3447,1.3478,1.3457,1.3579,1.4118,1.4165,1.4107,1.3637,1.3044,1.2003,1.1065,1.0312,0.9458,0.8626,0.7551,0.6416,0.5483,0.4539,0.3996,0.3506,0.2956,0.2343,0.2399,0.2286,0.1114,0.0,-0.0892,-0.1782,-0.2607,-0.3274,-0.391,-0.3747,-0.3411,-0.307,-0.2934,-0.3037,-0.3562,-0.5182,-0.7159,-0.9943,-1.2204,-1.3942,-1.5206,-1.5963,-1.6353,-1.6683,-1.6962,-1.727,0.8468,0.9249,0.8884,0.9051,0.9521,0.9877,0.9888,0.9836,1.0576,1.1258,1.1805,1.2492,1.3034,1.3505,1.3621,1.361,1.361,1.361,1.3905,1.4233,1.4466,1.5006,1.5445,1.5832,1.6107,1.6598,1.6954,1.7028,1.6995,1.8363,1.9638,2.0212,1.9948,2.0017,2.0004,1.9849,1.9589,1.9611,1.9632,1.9669,1.9617,1.9545,1.9398,1.9376,1.9213,1.9139,1.9176,1.9101,1.9101,1.9116,1.9116,1.9116,1.9101,1.9101,1.8812,1.8503,1.8083,1.7922,1.7922,1.7922,1.7922,1.7949,1.7406,1.6527,1.5752,1.4959,1.4261,1.3952,1.39,1.3962,1.4118,1.4269,1.4455,1.4118,1.3695,1.2754,1.1657,1.0762,1.0056,0.9287,0.8508,0.7492,0.6091,0.505,0.4003,0.3176,0.2623,0.212,0.162,0.1286,0.0949,0.0112,-0.0894,-0.1732,-0.2625,-0.3624,-0.4116,-0.4677,-0.4349,-0.4015,-0.3677,-0.377,-0.4409,-0.5413,-0.6982,-0.9237,-1.2343,-1.4432,-1.5977,-1.7058,-1.786,-1.8262,-1.8431,-1.8355,-1.859,0.8641,0.9205,0.8839,0.9105,0.9657,0.974,0.9732,0.9895,1.0454,1.1049,1.1692,1.2344,1.3025,1.342,1.3563,1.361,1.361,1.3658,1.3952,1.4326,1.4789,1.5266,1.5712,1.6107,1.6337,1.6584,1.6815,1.7145,1.7494,1.8882,1.964,1.9929,2.0114,2.0131,1.9872,1.9722,1.9677,1.9611,1.9596,1.9632,1.9596,1.9487,1.9376,1.9325,1.9213,1.9139,1.9101,1.9116,1.9116,1.9116,1.9116,1.9116,1.9116,1.8822,1.8475,1.8042,1.7774,1.7625,1.7842,1.7922,1.7922,1.7842,1.7488,1.6866,1.6071,1.5365,1.4687,1.4466,1.4439,1.4521,1.4408,1.4433,1.434,1.392,1.3294,1.211,1.1065,1.0254,0.9547,0.8764,0.8037,0.6789,0.5437,0.4446,0.3398,0.2456,0.1677,0.1229,0.0838,0.0447,-0.0167,-0.1004,-0.2119,-0.2954,-0.379,-0.4736,-0.5058,-0.5328,-0.5105,-0.5093,-0.5183,-0.5429,-0.6042,-0.7552,-0.9719,-1.225,-1.503,-1.6669,-1.7673,-1.8678,-1.9444,-1.9816,-2.0092,-1.9957,-2.0096,0.8485,0.8769,0.8512,0.8761,0.9368,0.9768,0.9923,1.0035,1.0629,1.1283,1.199,1.2638,1.3132,1.342,1.3563,1.361,1.361,1.3905,1.4233,1.4731,1.5108,1.5668,1.6064,1.6337,1.6436,1.6615,1.687,1.7183,1.762,1.8411,1.9254,1.9486,2.0016,1.9938,1.9693,1.9626,1.9647,1.9611,1.9611,1.9611,1.9538,1.9413,1.9325,1.925,1.9176,1.9101,1.9116,1.9116,1.9101,1.9026,1.9026,1.8874,1.8745,1.833,1.7974,1.7625,1.7544,1.7529,1.7666,1.7828,1.7882,1.7842,1.7652,1.7284,1.6655,1.5952,1.5332,1.4869,1.4994,1.5074,1.4811,1.4514,1.4086,1.3674,1.2541,1.1408,1.0509,0.9651,0.8928,0.8143,0.7117,0.5869,0.4776,0.3788,0.2845,0.2011,0.1005,0.0167,-0.0223,-0.0502,-0.1168,-0.1943,-0.3164,-0.4278,-0.5171,-0.5941,-0.6225,-0.6474,-0.6372,-0.6357,-0.661,-0.7495,-0.851,-1.0515,-1.2826,-1.5069,-1.6994,-1.8025,-1.9029,-1.9967,-2.0722,-2.1153,-2.1367,-2.1348,-2.1692,0.8198,0.8219,0.8029,0.832,0.883,0.9864,1.0266,1.0205,1.1062,1.1787,1.2357,1.3054,1.342,1.3515,1.3573,1.361,1.3705,1.3952,1.4419,1.5062,1.5322,1.58,1.625,1.6534,1.6534,1.6753,1.7066,1.7308,1.7424,1.8194,1.8972,1.8948,1.9571,1.9716,1.9582,1.9632,1.9669,1.9611,1.9574,1.9538,1.9501,1.9376,1.925,1.9265,1.9191,1.9116,1.9116,1.9101,1.9049,1.895,1.8784,1.8553,1.8108,1.772,1.7394,1.7284,1.7256,1.7393,1.7543,1.7747,1.7882,1.7896,1.7855,1.7827,1.7424,1.6523,1.584,1.5501,1.5549,1.5097,1.4755,1.4179,1.3663,1.2831,1.1706,1.0551,0.9585,0.8732,0.7967,0.7268,0.6549,0.5356,0.4396,0.3449,0.2286,0.1507,0.0222,-0.0944,-0.209,-0.2366,-0.3066,-0.377,-0.4765,-0.6044,-0.6717,-0.7359,-0.7524,-0.7652,-0.7832,-0.8436,-0.9199,-1.0162,-1.1165,-1.3226,-1.5367,-1.6754,-1.8389,-1.9339,-2.0181,-2.0927,-2.1675,-2.2374,-2.2576,-2.245,-2.266,0.8246,0.8369,0.8491,0.8599,0.8815,0.981,1.0384,1.0728,1.171,1.2089,1.2149,1.2895,1.3409,1.3467,1.3573,1.361,1.3658,1.3905,1.4362,1.4869,1.5322,1.5844,1.6349,1.6534,1.6534,1.659,1.6944,1.745,1.7872,1.8481,1.9069,1.9399,1.9836,1.9909,1.9568,1.9669,1.9654,1.9574,1.9501,1.9428,1.9376,1.9265,1.9153,1.9153,1.9116,1.9116,1.9116,1.9064,1.8898,1.8655,1.8577,1.8147,1.7516,1.7131,1.6909,1.6879,1.7096,1.7303,1.7633,1.7921,1.8113,1.8276,1.8372,1.8549,1.8173,1.714,1.6448,1.6218,1.5828,1.5256,1.4593,1.3941,1.3092,1.1953,1.0914,0.9784,0.8659,0.7794,0.6981,0.6375,0.5813,0.4957,0.3984,0.2952,0.1849,0.0444,-0.1267,-0.2841,-0.4824,-0.5759,-0.6525,-0.712,-0.7095,-0.8026,-0.8699,-0.9341,-0.9761,-1.0156,-1.0506,-1.1121,-1.1902,-1.3268,-1.4666,-1.5986,-1.766,-1.873,-1.9617,-2.044,-2.1244,-2.1857,-2.2269,-2.2814,-2.3071,-2.3028,-2.3236,0.8108,0.8184,0.8378,0.8564,0.8883,0.9774,1.0428,1.1112,1.2241,1.2626,1.2404,1.3034,1.3409,1.3467,1.3563,1.361,1.3668,1.3905,1.4466,1.4971,1.5367,1.5901,1.625,1.6534,1.6534,1.6565,1.6947,1.7508,1.8163,1.8657,1.9069,1.9366,1.9801,1.9946,1.9626,1.9669,1.9617,1.9487,1.9413,1.9339,1.925,1.9139,1.9116,1.9116,1.9116,1.9116,1.9026,1.8988,1.8707,1.8369,1.812,1.7571,1.7005,1.6667,1.6734,1.6985,1.7286,1.751,1.7998,1.8376,1.8643,1.8892,1.9113,1.9388,1.936,1.8381,1.7624,1.7289,1.6431,1.5796,1.4623,1.3816,1.2506,1.1276,1.0328,0.9332,0.796,0.6804,0.6128,0.5584,0.4916,0.403,0.3102,0.2143,0.0835,-0.1316,-0.2948,-0.5436,-0.7371,-0.9619,-1.0303,-1.0814,-1.1028,-1.0973,-1.161,-1.208,-1.2454,-1.2807,-1.3146,-1.42,-1.5253,-1.6784,-1.8218,-1.8724,-1.9265,-1.9999,-2.0879,-2.1497,-2.1998,-2.2528,-2.2876,-2.32,-2.3376,-2.3522,-2.3594,0.7919,0.7923,0.807,0.8378,0.8929,0.9737,1.0535,1.1382,1.2621,1.3152,1.3035,1.3309,1.3484,1.3563,1.361,1.361,1.3763,1.4093,1.4605,1.5108,1.5534,1.6032,1.6306,1.6534,1.6607,1.6808,1.7131,1.7503,1.8017,1.8534,1.8898,1.9003,1.9265,1.9611,1.9596,1.9632,1.9617,1.9487,1.9391,1.9265,1.9191,1.9116,1.9116,1.9116,1.9116,1.9116,1.8988,1.8784,1.8539,1.808,1.7626,1.7118,1.6723,1.6448,1.6904,1.7194,1.7511,1.8059,1.875,1.9252,1.9527,1.9812,2.0009,2.0094,2.0053,1.9575,1.8784,1.7859,1.6989,1.5832,1.4655,1.3439,1.2055,1.0653,0.9725,0.8712,0.7263,0.5927,0.5345,0.48,0.3958,0.3116,0.2262,0.1356,-0.0827,-0.2995,-0.5501,-0.8012,-1.0504,-1.3119,-1.4855,-1.5254,-1.554,-1.5441,-1.4796,-1.4744,-1.4995,-1.5529,-1.604,-1.7297,-1.8484,-1.9402,-2.0047,-2.0367,-2.0956,-2.144,-2.1759,-2.2234,-2.2721,-2.317,-2.3417,-2.3608,-2.3635,-2.3767,-2.3774,0.7836,0.7719,0.7785,0.8245,0.9031,0.9744,1.0689,1.1847,1.2655,1.3152,1.348,1.3522,1.3563,1.361,1.361,1.3668,1.381,1.4233,1.4651,1.5108,1.5579,1.6064,1.6436,1.6607,1.685,1.7131,1.7407,1.7841,1.8252,1.8655,1.9049,1.9413,1.945,1.9596,1.9654,1.9654,1.9581,1.945,1.9376,1.9302,1.9153,1.9116,1.9116,1.9116,1.9116,1.9116,1.8988,1.8693,1.8305,1.7814,1.7201,1.6808,1.6645,1.656,1.6986,1.769,1.7996,1.8565,1.925,1.9736,2.0075,2.012,2.0333,2.0639,2.0492,2.0123,1.9179,1.8006,1.6962,1.5478,1.4241,1.3032,1.1693,1.0135,0.8944,0.7752,0.6444,0.5388,0.4578,0.389,0.3075,0.2366,0.1713,-0.0173,-0.3113,-0.5615,-0.8857,-1.1452,-1.4641,-1.7015,-1.9111,-1.9362,-1.9594,-1.844,-1.72,-1.7277,-1.7523,-1.8093,-1.8734,-1.9626,-2.0521,-2.1379,-2.1916,-2.1887,-2.2192,-2.2613,-2.2935,-2.3003,-2.3312,-2.3697,-2.3883,-2.4045,-2.4063,-2.4026,-2.4042]},{"header":{"parameterUnit":"m.s-1","parameterCategory":1,"la1":31.0,"la2":29.5877,"lo1":-88.7671,"lo2":-86.6584,"dx":0.0162,"dy":0.0185,"nx":115,"ny":88,"refTime":"2023-01-31T18:00:00:Z","depth":0,"parameterNumber":3,"parameterNumberName":"V-component_of_WINDS"},"data":[0.0,0.0,0.0,0.0,0.0,0.0,0.0,0.0,0.0,0.0,0.0,0.0,0.0,0.0,0.0,0.0,0.0,0.0,0.0,0.0,0.0,0.0,0.0,0.0,0.0,0.0,0.0,0.0,0.0,0.0,0.0,0.0,0.0,0.0,0.0,0.0,0.0,0.0,0.0,0.0,0.0,0.0,0.0,0.0,0.0,0.0,0.0,0.0,0.0,0.0,0.0,0.0,0.0,0.0,0.0,0.0,0.0,0.0,0.0,0.0,0.0,0.0,0.0,0.0,0.0,0.0,0.0,0.0,0.0,0.0,0.0,0.0,0.0,0.0,0.0,0.0,0.0,0.0,0.0,0.0,0.0,0.0,0.0,0.0,0.0,0.0,0.0,0.0,0.0,0.0,0.0,0.0,0.0,0.0,0.0,0.0,0.0,0.0,0.0,0.0,0.0,0.0,0.0,0.0,0.0,0.0,0.0,0.0,0.0,0.0,0.0,0.0,0.0,0.0,0.0,0.0,0.0,0.0,0.0,0.0,0.0,0.0,0.0,0.0,0.0,0.0,0.0,0.0,0.0,0.0,0.0,0.0,0.0,0.0,0.0,0.0,0.0,0.0,0.0,0.0,0.0,0.0,0.0,0.0,0.0,0.0,0.0,0.0,0.0,0.0,0.0,0.0,0.0,0.0,0.0,0.0,0.0,0.0,0.0,0.0,0.0,0.0,0.0,0.0,0.0,0.0,0.0,0.0,0.0,0.0,0.0,0.0,0.0,0.0,0.0,0.0,0.0,0.0,0.0,0.0,0.0,0.0,0.0,0.0,0.0,0.0,0.0,0.0,0.0,0.0,0.0,0.0,0.0,0.0,0.0,0.0,0.0,0.0,0.0,0.0,0.0,0.0,0.0,0.0,0.0,0.0,0.0,0.0,0.0,0.0,0.0,0.0,0.0,0.0,0.0,0.0,0.0,0.0,0.0,0.0,0.0,0.0,0.0,0.0,0.0,0.0,0.0,0.0,0.0,0.0,0.0,0.0,0.0,0.0,0.0,0.0,0.0,0.0,0.0,0.0,0.0,0.0,0.0,0.0,0.0,0.0,0.0,0.0,0.0,0.0,0.0,0.0,0.0,0.0,0.0,0.0,0.0,0.0,0.0,0.0,0.0,0.0,0.0,0.0,0.0,0.0,0.0,0.0,0.0,0.0,0.0,0.0,0.0,0.0,0.0,0.0,0.0,0.0,0.0,0.0,0.0,0.0,0.0,0.0,0.0,0.0,0.0,0.0,0.0,0.0,0.0,0.0,0.0,0.0,0.0,0.0,0.0,0.0,0.0,0.0,0.0,0.0,0.0,0.0,0.0,0.0,0.0,0.0,0.0,0.0,0.0,0.0,0.0,0.0,0.0,0.0,0.0,0.0,0.0,0.0,0.0,0.0,0.0,0.0,0.0,0.0,0.0,0.0,0.0,0.0,0.0,0.0,0.0,0.0,0.0,0.0,0.0,0.0,0.0,0.0,0.0,0.0,0.0,0.0,0.0,0.0,0.0,0.0,0.0,0.0,0.0,0.0,0.0,0.0,0.0,0.0,0.0,0.0,0.0,0.0,0.0,0.0,0.0,0.0,0.0,0.0,0.0,0.0,0.0,0.0,0.0,0.0,0.0,0.0,0.0,0.0,0.0,0.0,0.0,0.0,0.0,0.0,0.0,0.0,0.0,0.0,0.0,0.0,0.0,0.0,0.0,0.0,0.0,0.0,0.0,0.0,0.0,0.0,0.0,0.0,0.0,0.0,0.0,0.0,0.0,0.0,0.0,0.0,0.0,0.0,0.0,0.0,0.0,0.0,0.0,0.0,0.0,0.0,0.0,0.0,0.0,0.0,0.0,0.0,0.0,0.0,0.0,0.0,0.0,0.0,0.0,0.0,0.0,0.0,0.0,0.0,0.0,0.0,0.0,0.0,0.0,0.0,0.0,0.0,0.0,0.0,0.0,0.0,0.0,0.0,0.0,0.0,0.0,0.0,0.0,0.0,0.0,0.0,0.0,0.0,0.0,0.0,0.0,0.0,0.0,0.0,0.0,0.0,0.0,0.0,0.0,0.0,0.0,0.0,0.0,0.0,0.0,0.0,0.0,0.0,0.0,0.0,0.0,0.0,0.0,0.0,0.0,0.0,0.0,0.0,0.0,0.0,0.0,0.0,0.0,0.0,0.0,0.0,0.0,0.0,0.0,0.0,0.0,0.0,0.0,0.0,0.0,0.0,0.0,0.0,0.0,0.0,0.0,0.0,0.0,0.0,0.0,0.0,0.0,0.0,0.0,0.0,0.0,0.0,0.0,0.0,0.0,0.0,0.0,0.0,0.0,0.0,0.0,0.0,0.0,0.0,0.0,0.0,0.0,0.0,0.0,0.0,0.0,0.0,0.0,0.0,0.0,0.0,0.0,0.0,0.0,0.0,0.0,0.0,0.0,0.0,0.0,0.0,0.0,0.0,0.0,0.0,0.0,0.0,0.0,0.0,0.0,0.0,0.0,0.0,0.0,0.0,0.0,0.0,0.0,0.0,0.0,0.0,0.0,0.0,0.0,0.0,0.0,0.0,0.0,0.0,0.0,0.0,0.0,0.0,0.0,0.0,0.0,0.0,0.0,0.0,0.0,0.0,0.0,0.0,0.0,0.0,0.0,0.0,0.0,0.0,0.0,0.0,0.0,0.0,0.0,0.0,0.0,0.0,0.0,0.0,0.0,0.0,0.0,0.0,0.0,0.0,0.0,0.0,0.0,0.0,0.0,0.0,0.0,0.0,0.0,0.0,0.0,0.0,0.0,0.0,0.0,0.0,0.0,0.0,0.0,0.0,0.0,0.0,0.0,0.0,0.0,0.0,0.0,0.0,0.0,0.0,0.0,0.0,0.0,0.0,0.0,0.0,0.0,0.0,0.0,0.0,0.0,0.0,0.0,0.0,0.0,0.0,0.0,0.0,0.0,0.0,0.0,0.0,0.0,0.0,0.0,0.0,0.0,0.0,0.0,0.0,0.0,0.0,0.0,0.0,0.0,0.0,0.0,0.0,0.0,0.0,0.0,0.0,0.0,0.0,0.0,0.0,0.0,0.0,0.0,0.0,0.0,0.0,0.0,0.0,0.0,0.0,0.0,0.0,0.0,0.0,0.0,0.0,0.0,0.0,0.0,0.0,0.0,0.0,0.0,0.0,0.0,0.0,0.0,0.0,0.0,0.0,0.0,0.0,0.0,0.0,0.0,0.0,0.0,0.0,0.0,0.0,0.0,0.0,0.0,0.0,0.0,0.0,0.0,0.0,0.0,0.0,0.0,0.0,0.0,0.0,0.0,0.0,0.0,0.0,0.0,0.0,0.0,0.0,0.0,0.0,0.0,0.0,0.0,0.0,0.0,0.0,0.0,0.0,0.0,0.0,0.0,0.0,0.0,0.0,0.0,0.0,0.0,0.0,0.0,0.0,0.0,0.0,0.0,0.0,0.0,0.0,0.0,0.0,0.0,0.0,0.0,0.0,0.0,0.0,0.0,0.0,0.0,0.0,0.0,0.0,0.0,0.0,0.0,0.0,0.0,0.0,0.0,0.0,0.0,0.0,0.0,0.0,0.0,0.0,0.0,0.0,0.0,0.0,0.0,0.0,0.0,0.0,0.0,0.0,0.0,0.0,0.0,0.0,0.0,0.0,0.0,0.0,0.0,0.0,0.0,0.0,0.0,0.0,0.0,0.0,0.0,0.0,0.0,0.0,0.0,0.0,0.0,0.0,0.0,0.0,0.0,0.0,0.0,0.0,0.0,0.0,0.0,0.0,0.0,0.0,0.0,0.0,0.0,0.0,0.0,0.0,0.0,0.0,0.0,0.0,0.0,0.0,0.0,0.0,0.0,0.0,0.0,0.0,0.0,0.0,0.0,0.0,0.0,0.0,0.0,0.0,0.0,0.0,0.0,0.0,0.0,0.0,0.0,0.0,0.0,0.0,0.0,0.0,0.0,0.0,0.0,0.0,0.0,0.0,0.0,0.0,0.0,0.0,0.0,0.0,0.0,0.0,0.0,0.0,0.0,0.0,0.0,0.0,0.0,0.0,0.0,0.0,0.0,0.0,0.0,0.0,0.0,0.0,0.0,0.0,0.0,0.0,0.0,0.0,0.0,0.0,0.0,0.0,0.0,0.0,0.0,0.0,0.0,0.0,0.0,0.0,0.0,0.0,0.0,0.0,0.0,0.0,0.0,0.0,0.0,0.0,0.0,0.0,0.0,0.0,0.0,0.0,0.0,0.0,-0.848,0.0,0.0,0.0,0.0,0.0,0.0,0.0,0.0,0.0,0.0,0.0,0.0,0.0,0.0,0.0,0.0,0.0,0.0,0.0,0.0,0.0,0.0,0.0,0.0,0.0,0.0,0.0,0.0,0.0,0.0,0.0,0.0,0.0,0.0,0.0,0.0,0.0,0.0,0.0,0.0,0.0,0.0,0.0,0.0,0.0,0.0,0.0,0.0,0.0,0.0,0.0,0.0,0.0,0.0,0.0,0.0,0.0,0.0,0.0,0.0,0.0,0.0,0.0,0.0,0.0,0.0,0.0,0.0,0.0,0.0,0.0,0.0,0.0,0.0,0.0,0.0,0.0,0.0,0.0,0.0,0.0,0.0,0.0,0.0,0.0,0.0,0.0,0.0,0.0,0.0,0.0,0.0,0.0,0.0,0.0,0.0,0.0,0.0,0.0,0.0,0.0,0.0,0.0,0.0,0.0,0.0,0.0,0.0,0.0,0.0,-0.3077,-0.4739,-0.537,-0.6365,-0.7811,0.0,0.0,0.0,0.0,0.0,0.0,0.0,0.0,0.0,0.0,0.0,0.0,0.0,0.0,0.0,0.0,0.0,0.0,0.0,0.0,0.0,0.0,0.0,0.0,0.0,0.0,0.0,0.0,0.0,0.0,0.0,0.0,0.0,0.0,0.0,0.0,0.0,0.0,0.0,0.0,0.0,0.0,0.0,0.0,0.0,0.0,0.0,0.0,0.0,0.0,0.0,0.0,0.0,0.0,0.0,0.0,0.0,0.0,0.0,0.0,0.0,0.0,0.0,0.0,0.0,0.0,0.0,0.0,0.0,0.0,0.0,0.0,0.0,0.0,0.0,0.0,0.0,0.0,0.0,0.0,0.0,0.0,0.0,0.0,0.0,0.0,0.0,0.0,0.0,0.0,0.0,0.0,0.0,0.0,0.0,0.0,0.0,0.0,0.0,0.0,0.0,0.0,0.0,0.0,0.0,0.0,0.0,0.0,0.0,0.0,0.0,0.0,-0.4675,-0.5918,-0.7738,0.0,0.0,0.0,0.0,0.0,0.0,0.0,0.0,0.0,0.0,0.0,0.0,0.0,0.0,0.0,0.0,0.0,0.0,0.0,0.0,0.0,0.0,0.0,0.0,0.0,0.0,0.0,0.0,0.0,0.0,0.0,0.0,0.0,0.0,0.0,0.0,0.0,0.0,0.0,0.0,0.0,0.0,0.0,0.0,0.0,0.0,0.0,0.0,0.0,0.0,0.0,0.0,0.0,0.0,0.0,0.0,0.0,0.0,0.0,0.0,0.0,0.0,0.0,0.0,0.0,0.0,0.0,0.0,0.0,0.0,0.0,0.0,0.0,0.0,0.0,0.0,0.0,0.0,0.0,0.0,0.0,0.0,0.0,0.0,0.0,0.0,0.0,0.0,0.0,0.0,0.0,0.0,0.0,0.0,0.0,0.0,0.0,0.0,0.0,0.0,0.0,0.0,0.0,0.0,0.0,0.0,0.0,0.0,0.0,0.0,-0.1931,-0.301,-0.5042,0.0,-0.8268,0.0,0.0,0.0,0.0,0.0,0.0,0.0,0.0,0.0,0.0,0.0,0.0,0.0,0.0,0.0,0.0,0.0,0.0,0.0,0.0,0.0,0.0,0.0,0.0,0.0,0.0,0.0,0.0,0.0,0.0,0.0,0.0,0.0,0.0,0.0,0.0,0.0,0.0,0.0,0.0,0.0,0.0,0.0,0.0,0.0,0.0,0.0,0.0,0.0,0.0,0.0,0.0,0.0,0.0,0.0,0.0,0.0,0.0,0.0,0.0,0.0,0.0,0.0,0.0,0.0,0.0,0.0,0.0,0.0,0.0,0.0,0.0,0.0,0.0,0.0,0.0,0.0,0.0,0.0,0.0,0.0,0.0,0.0,0.0,0.0,0.0,0.0,0.0,0.0,0.0,0.0,0.0,0.0,0.0,0.0,0.0,0.0,0.0,0.0,0.0,0.0,0.0,0.0,0.0,0.0,0.0,0.0,0.0,0.0,0.0,-0.2215,-0.3847,-0.6627,-0.8057,0.0,0.0,0.0,0.0,0.0,0.0,0.0,0.0,0.0,0.0,0.0,0.0,0.0,0.0,0.0,0.0,0.0,0.0,0.0,0.0,0.0,0.0,0.0,0.0,0.0,0.0,0.0,0.0,0.0,0.0,0.0,0.0,0.0,0.0,0.0,0.0,0.0,0.0,0.0,0.0,0.0,0.0,0.0,0.0,0.0,0.0,0.0,0.0,0.0,0.0,0.0,0.0,0.0,0.0,0.0,0.0,0.0,0.0,0.0,0.0,0.0,0.0,0.0,0.0,0.0,0.0,0.0,0.0,0.0,0.0,0.0,0.0,0.0,0.0,0.0,0.0,0.0,0.0,0.0,0.0,0.0,0.0,0.0,0.0,0.0,0.0,0.0,0.0,0.0,0.0,0.0,0.0,0.0,0.0,0.0,0.0,0.0,0.0,0.0,0.0,0.0,0.0,0.0,0.0,0.0,0.0,0.0,0.0,0.0,0.0,-0.1392,-0.2938,-0.5108,-0.7248,-0.8148,-0.7619,0.0,0.0,0.0,0.0,0.0,0.0,0.0,0.0,0.0,0.0,0.0,0.0,0.0,0.0,0.0,0.0,0.0,0.0,0.0,0.0,0.0,0.0,0.0,0.0,0.0,0.0,0.0,0.0,0.0,0.0,0.0,0.0,0.0,0.0,0.0,0.0,0.0,0.0,0.0,0.0,0.0,0.0,0.0,0.0,0.0,0.0,0.0,0.0,0.0,0.0,0.0,0.0,0.0,0.0,0.0,0.0,0.0,0.0,0.0,0.0,0.0,0.0,0.0,0.0,0.0,0.0,0.0,0.0,0.0,0.0,0.0,0.0,0.0,0.0,0.0,0.0,0.0,0.0,0.0,0.0,0.0,0.0,0.0,0.0,0.0,0.0,0.0,0.0,0.0,0.0,0.0,0.0,0.0,0.0,0.0,0.0,0.0,0.0,0.0,0.0,0.0,0.0,0.0,0.0,0.0,0.0,0.0,0.0,-0.1084,-0.2415,-0.4192,-0.6304,-0.6144,-0.6458,0.0,0.0,0.0,0.0,0.0,0.0,0.0,0.0,0.0,0.0,0.0,0.0,0.0,0.0,0.0,0.0,0.0,0.0,0.0,0.0,0.0,0.0,0.0,0.0,0.0,0.0,0.0,0.0,0.0,0.0,0.0,0.0,0.0,0.0,0.0,0.0,0.0,0.0,0.0,0.0,0.0,0.0,0.0,0.0,0.0,0.0,0.0,0.0,0.0,0.0,0.0,0.0,0.0,0.0,0.0,0.0,0.0,0.0,0.0,0.0,0.0,0.0,0.0,0.0,0.0,0.0,0.0,0.0,0.0,0.0,0.0,0.0,0.0,0.0,0.0,0.0,0.0,0.0,0.0,0.0,0.0,0.0,0.0,0.0,0.0,0.0,0.0,0.0,0.0,0.0,0.0,0.0,0.0,0.0,0.0,0.0,0.0,0.0,0.0,0.0,0.0,0.0,0.0,0.0,0.0,0.0,0.0,0.0,0.0,-0.1731,-0.366,-0.525,-0.6506,-0.7266,-0.7557,0.0,0.0,0.0,0.0,0.0,0.0,0.0,0.0,0.0,0.0,0.0,0.0,0.0,0.0,0.0,0.0,0.0,0.0,0.0,0.0,0.0,0.0,0.0,0.0,0.0,0.0,0.0,0.0,0.0,0.0,0.0,0.0,0.0,0.0,0.0,0.0,0.0,0.0,0.0,0.0,0.0,0.0,0.0,0.0,0.0,0.0,0.0,0.0,0.0,0.0,0.0,0.0,0.0,0.0,0.0,0.0,0.0,0.0,0.0,0.0,0.0,0.0,0.0,0.0,0.0,0.0,0.0,0.0,0.0,0.0,0.0,0.0,0.0,0.0,0.0,0.0,0.0,0.0,0.0,0.0,0.0,0.0,0.0,0.0,0.0,0.0,0.0,0.0,0.0,0.0,0.0,0.0,0.0,0.0,0.0,0.0,0.0,0.0,0.0,0.0,0.0,0.0,0.0,0.0,0.0,0.0,0.0,0.0,0.0,-0.2795,0.0,-0.5802,-0.6191,-0.7309,-0.7496,0.0,0.0,0.0,0.0,0.0,0.0,0.0,0.0,0.0,0.0,0.0,0.0,0.0,0.0,0.0,0.0,0.0,0.0,0.0,0.0,0.0,0.0,0.0,0.0,0.0,0.0,0.0,0.0,0.0,0.0,0.0,0.0,0.0,0.0,0.0,0.0,0.0,0.0,0.0,0.0,0.0,0.0,0.0,0.0,0.0,0.0,0.0,0.0,0.0,0.0,0.0,0.0,0.0,0.0,0.0,0.0,0.0,0.0,0.0,0.0,0.0,0.0,0.0,0.0,0.0,0.0,0.0,0.0,0.0,0.0,0.0,0.0,0.0,0.0,0.0,0.0,0.0,0.0,0.0,0.0,0.0,0.0,0.0,0.0,0.0,0.0,0.0,0.0,0.0,0.0,0.0,0.0,0.0,0.0,0.0,0.0,0.0,0.0,0.0,0.0,0.0,0.0,0.0,0.0,0.0,0.0,0.0,0.0,-0.322,-0.4344,-0.5343,-0.5644,-0.534,-0.5909,-0.5971,0.0,0.0,0.0,0.0,0.0,0.0,0.0,0.0,0.0,0.0,0.0,0.0,0.0,0.0,0.0,0.0,0.0,0.0,0.0,0.0,0.0,0.0,0.0,0.0,0.0,0.0,0.0,0.0,0.0,0.0,0.0,0.0,0.0,0.0,0.0,0.0,0.0,0.0,0.0,0.0,0.0,0.0,0.0,0.0,0.0,0.0,0.0,0.0,0.0,0.0,0.0,0.0,0.0,0.0,0.0,0.0,0.0,0.0,0.0,0.0,0.0,0.0,0.0,0.0,0.0,0.0,0.0,0.0,0.0,0.0,0.0,0.0,0.0,0.0,0.0,0.0,0.0,0.0,0.0,0.0,0.0,0.0,0.0,0.0,0.0,0.0,0.0,0.0,0.0,0.0,0.0,0.0,0.0,0.0,0.0,0.0,0.0,0.0,0.0,0.0,0.0,0.0,0.0,0.0,0.0,0.0,0.0,0.0,0.0,-0.343,-0.3573,-0.3919,-0.4445,-0.5266,-0.5654,0.0,0.0,0.0,0.0,0.0,0.0,0.0,0.0,0.0,0.0,0.0,0.0,0.0,0.0,0.0,0.0,0.0,0.0,0.0,0.0,0.0,0.0,0.0,0.0,0.0,0.0,0.0,0.0,0.0,0.0,0.0,0.0,0.0,0.0,0.0,0.0,0.0,0.0,0.0,0.0,0.0,0.0,0.0,0.0,0.0,0.0,0.0,0.0,0.0,0.0,0.0,0.0,0.0,0.0,0.0,0.0,0.0,0.0,0.0,0.0,0.0,0.0,0.0,0.0,0.0,0.0,0.0,0.0,0.0,0.0,0.0,0.0,0.0,0.0,0.0,0.0,0.0,0.0,0.0,0.0,0.0,0.0,0.0,0.0,0.0,0.0,0.0,0.0,0.0,0.0,0.0,0.0,0.0,0.0,0.0,0.0,0.0,0.0,0.0,0.0,0.0,0.0,0.0,0.0,0.0,0.0,0.0,0.0,0.0,-0.2071,-0.2621,-0.3078,-0.3602,-0.4665,-0.547,-0.6027,0.0,0.0,0.0,0.0,0.0,0.0,0.0,0.0,0.0,0.0,0.0,0.0,0.0,0.0,0.0,0.0,0.0,0.0,0.0,0.0,0.0,0.0,0.0,0.0,0.0,0.0,0.0,0.0,0.0,0.0,0.0,0.0,0.0,0.0,0.0,0.0,0.0,0.0,0.0,0.0,0.0,0.0,0.0,0.0,0.0,0.0,0.0,0.0,0.0,0.0,0.0,0.0,0.0,0.0,0.0,0.0,0.0,0.0,0.0,0.0,0.0,0.0,0.0,0.0,0.0,0.0,0.0,0.0,0.0,0.0,0.0,0.0,0.0,0.0,0.0,0.0,0.0,0.0,0.0,0.0,0.0,0.0,0.0,0.0,0.0,0.0,0.0,0.0,0.0,0.0,0.0,0.0,0.0,0.0,0.0,0.0,0.0,0.0,0.0,0.0,0.0,0.0,0.0,0.0,0.0,0.0,0.0,0.0,-0.0616,-0.2265,-0.2942,-0.2633,-0.4117,-0.5307,0.0,0.0,0.0,0.0,0.0,0.0,0.0,0.0,0.0,0.0,0.0,0.0,0.0,0.0,0.0,0.0,0.0,0.0,0.0,0.0,0.0,0.0,0.0,0.0,0.0,0.0,0.0,0.0,0.0,0.0,0.0,0.0,0.0,0.0,0.0,0.0,0.0,0.0,0.0,0.0,0.0,0.0,0.0,0.0,0.0,0.0,0.0,0.0,0.0,0.0,0.0,0.0,0.0,0.0,0.0,0.0,0.0,0.0,0.0,0.0,0.0,0.0,0.0,0.0,0.0,0.0,0.0,0.0,0.0,0.0,0.0,0.0,0.0,0.0,0.0,0.0,0.0,0.0,0.0,0.0,0.0,0.0,0.0,0.0,0.0,0.0,0.0,0.0,0.0,0.0,0.0,0.0,0.0,0.0,0.0,0.0,0.0,0.0,0.0,0.0,0.0,0.0,0.0,0.0,0.0,0.0,0.0,0.0,0.0,-0.1619,-0.1302,-0.1057,-0.0868,-0.2876,-0.4624,0.0,0.0,0.0,0.0,0.0,0.0,0.0,0.0,0.0,0.0,0.0,0.0,0.0,0.0,0.0,0.0,0.0,0.0,0.0,0.0,0.0,0.0,0.0,0.0,0.0,0.0,0.0,0.0,0.0,0.0,0.0,0.0,0.0,0.0,0.0,0.0,0.0,0.0,0.0,0.0,0.0,0.0,0.0,0.0,0.0,0.0,0.0,0.0,0.0,0.0,0.0,0.0,0.0,0.0,0.0,0.0,0.0,0.0,0.0,0.0,0.0,0.0,0.0,0.0,0.0,0.0,0.0,0.0,0.0,0.0,0.0,0.0,0.0,0.0,0.0,0.0,0.0,0.0,0.0,0.0,0.0,0.0,0.0,0.0,0.0,0.0,0.0,0.0,0.0,0.0,0.0,0.0,0.0,0.0,0.0,0.0,0.0,0.0,0.0,0.0,0.0,0.0,0.0,0.0,0.0,0.0,0.0,0.0,-0.2518,-0.1231,-0.0555,-0.0061,0.0231,-0.232,-0.4499,0.0,0.0,0.0,0.0,0.0,0.0,0.0,0.0,0.0,0.0,0.0,0.0,0.0,0.0,0.0,0.0,0.0,0.0,0.0,0.0,0.0,0.0,0.0,0.0,0.0,0.0,0.0,0.0,0.0,0.0,0.0,0.0,0.0,0.0,0.0,0.0,0.0,0.0,0.0,0.0,0.0,0.0,0.0,0.0,0.0,0.0,0.0,0.0,0.0,0.0,0.0,0.0,0.0,0.0,0.0,0.0,0.0,0.0,0.0,0.0,0.0,0.0,0.0,0.0,0.0,0.0,0.0,0.0,0.0,0.0,0.0,0.0,0.0,0.0,0.0,0.0,0.0,0.0,0.0,0.0,0.0,0.0,0.0,0.0,0.0,0.0,0.0,0.0,0.0,0.0,0.0,0.0,0.0,0.0,0.0,0.0,0.0,0.0,0.0,0.0,0.0,0.0,0.0,0.0,0.0,0.0,0.0,0.0,-0.1923,-0.0294,-0.0121,0.018,0.0507,-0.214,-0.4552,0.0,0.0,0.0,0.0,0.0,0.0,0.0,0.0,0.0,0.0,0.0,0.0,0.0,0.0,0.0,0.0,0.0,0.0,0.0,0.0,0.0,0.0,0.0,0.0,0.0,0.0,0.0,0.0,0.0,0.0,0.0,0.0,0.0,0.0,0.0,0.0,0.0,0.0,0.0,0.0,0.0,0.0,0.0,0.0,0.0,0.0,0.0,0.0,0.0,0.0,0.0,0.0,0.0,0.0,0.0,0.0,0.0,0.0,0.0,0.0,0.0,0.0,0.0,0.0,0.0,0.0,0.0,0.0,0.0,0.0,0.0,0.0,0.0,0.0,0.0,0.0,0.0,0.0,0.0,0.0,0.0,0.0,0.0,0.0,0.0,0.0,0.0,0.0,0.0,0.0,0.0,0.0,0.0,0.0,0.0,0.0,0.0,0.0,0.0,0.0,0.0,0.0,0.0,0.0,0.0,0.0,0.0,0.0,-0.2084,-0.1468,-0.0486,0.0,-0.0112,-0.1452,-0.3251,0.0,0.0,0.0,0.0,0.0,0.0,0.0,0.0,0.0,0.0,0.0,0.0,0.0,0.0,0.0,0.0,0.0,0.0,0.0,0.0,0.0,0.0,0.0,0.0,0.0,0.0,0.0,0.0,0.0,0.0,0.0,0.0,0.0,0.0,0.0,0.0,0.0,0.0,0.0,0.0,0.0,0.0,0.0,0.0,0.0,0.0,0.0,0.0,-0.7131,0.0,0.0,0.0,0.0,0.0,0.0,0.0,0.0,0.0,0.0,0.0,0.0,0.0,0.0,0.0,0.0,0.0,0.0,0.0,0.0,0.0,0.0,0.0,0.0,0.0,0.0,0.0,0.0,0.0,0.0,0.0,0.0,0.0,0.0,0.0,0.0,0.0,0.0,0.0,0.0,0.0,0.0,0.0,0.0,0.0,0.0,0.0,0.0,0.0,0.0,0.0,0.0,0.0,0.0,0.0,0.0,0.0,0.0,0.0,-0.2085,-0.1092,-0.0351,0.0,0.0,-0.0832,-0.2649,0.0,0.0,0.0,0.0,0.0,0.0,0.0,0.0,0.0,0.0,0.0,0.0,0.0,0.0,0.0,0.0,0.0,0.0,0.0,0.0,0.0,0.0,0.0,0.0,0.0,0.0,0.0,0.0,0.0,0.0,0.0,0.0,0.0,0.0,0.0,0.0,0.0,0.0,0.0,0.0,0.0,0.0,0.0,0.0,0.0,0.0,0.0,0.0,0.0,0.0,0.0,0.0,0.0,0.0,0.0,0.0,0.0,0.0,0.0,0.0,0.0,0.0,0.0,0.0,0.0,0.0,0.0,0.0,0.0,0.0,0.0,0.0,0.0,0.0,0.0,0.0,0.0,0.0,0.0,0.0,0.0,0.0,0.0,0.0,0.0,0.0,0.0,0.0,0.0,0.0,0.0,0.0,0.0,0.0,0.0,0.0,0.0,0.0,0.0,0.0,0.0,0.0,0.0,0.0,0.0,0.0,0.0,-0.3111,-0.1835,-0.0336,0.0,0.0218,0.0419,-0.0282,-0.2253,-0.5627,0.0,0.0,0.0,0.0,0.0,0.0,0.0,0.0,0.0,0.0,0.0,0.0,0.0,0.0,0.0,0.0,0.0,0.0,0.0,0.0,0.0,0.0,0.0,0.0,0.0,0.0,0.0,0.0,0.0,0.0,0.0,0.0,0.0,0.0,0.0,0.0,0.0,0.0,-0.0842,0.0,0.0,0.0,0.0,0.0,0.0,0.0,0.0,0.0,-0.607,0.0,0.0,0.0,0.0,0.0,0.0,0.0,0.0,0.0,0.0,0.0,0.0,0.0,0.0,0.0,0.0,0.0,0.0,0.0,0.0,0.0,0.0,0.0,0.0,0.0,0.0,0.0,0.0,0.0,0.0,0.0,0.0,0.0,0.0,0.0,0.0,0.0,0.0,0.0,0.0,0.0,0.0,0.0,0.0,0.0,0.0,0.0,0.0,0.0,0.0,0.0,0.0,0.0,0.0,0.0,0.0,-0.3746,-0.207,-0.0926,-0.0392,0.0272,0.0571,0.0485,0.0222,-0.1381,-0.4571,0.0,0.0,0.0,0.0,0.0,0.0,0.0,0.0,0.0,0.0,0.0,0.0,0.0,0.0,0.0,0.0,0.0,0.0,0.0,0.0,0.0,0.0,0.0,0.0,0.0,0.0,0.0,0.0,0.0,0.0,0.0,0.0,0.0,0.0,0.0,0.0,0.0,0.0,0.0,0.0932,0.0536,0.0,0.0,0.0,0.0,0.0,0.0,0.0,0.0,-0.5427,0.0,0.0,0.0,0.0,0.0,0.0,0.0,0.0,0.0,0.0,0.0,0.0,0.0,0.0,0.0,0.0,0.0,0.0,0.0,0.0,0.0,0.0,0.0,0.0,0.0,0.0,0.0,0.0,0.0,0.0,0.0,0.0,0.0,0.0,0.0,0.0,0.0,0.0,0.0,0.0,0.0,0.0,0.0,0.0,0.0,0.0,0.0,0.0,0.0,0.0,0.0,0.0,0.0,0.0,0.0,-0.351,-0.2036,-0.0782,0.0159,0.0461,0.0733,0.1012,0.0496,-0.0928,0.0,0.0,0.0,0.0,0.0,0.0,0.0,0.0,0.0,0.0,0.0,0.0,0.0,0.0,0.0,0.0,0.0,0.0,0.0,0.0,0.0,0.0,0.0,0.0,0.0,0.0,0.0,0.0,0.0,0.0,0.0,0.0,0.0,0.0,0.0,0.0,0.0,0.0,0.0,0.0,0.0646,0.0197,0.0232,0.0,0.0,0.0,0.0,0.0,0.0,-0.3591,-0.4192,0.0,0.0,0.0,0.0,0.0,0.0,0.0,0.0,0.0,0.0,0.0,0.0,0.0,0.0,0.0,0.0,0.0,0.0,0.0,0.0,0.0,0.0,0.0,0.0,0.0,0.0,0.0,0.0,0.0,0.0,0.0,0.0,0.0,0.0,0.0,0.0,0.0,0.0,0.0,0.0,0.0,0.0,0.0,0.0,0.0,0.0,0.0,0.0,0.0,0.0,0.0,0.0,0.0,0.0,0.0,-0.3458,-0.2098,-0.0732,0.064,0.0616,0.0909,0.1608,0.0806,-0.0421,0.0,0.0,0.0,0.0,0.0,0.0,0.0,0.0,0.0,0.0,0.0,0.0,0.0,0.0,0.0,0.0,0.0,0.0,0.0,0.0,0.0,0.0,0.0,0.0,0.0,0.0,0.0,0.0,0.0,0.0,0.0,0.0,0.0,0.0,0.0,0.0,0.0,0.0,0.0,0.0,0.0,-0.02,0.0568,-0.019,0.0,0.0,0.0,0.0,-0.2004,-0.2322,0.0,0.0,0.0,0.0,0.0,0.0,0.0,0.0,0.0,0.0,0.0,0.0,0.0,0.0,0.0,0.0,0.0,0.0,0.0,0.0,0.0,0.0,0.0,0.0,0.0,0.0,0.0,0.0,0.0,0.0,0.0,0.0,0.0,0.0,0.0,0.0,0.0,0.0,0.0,0.0,0.0,0.0,0.0,0.0,0.0,0.0,0.0,0.0,0.0,0.0,0.0,0.0,0.0,0.0,0.0,0.0,-0.348,-0.1691,-0.0395,0.0408,0.0696,0.1161,0.1743,0.154,0.0465,0.0,0.0,0.0,0.0,0.0,0.0,0.0,0.0,0.0,0.0,0.0,0.0,0.0,0.0,0.0,0.0,0.0,0.0,0.0,0.0,0.0,0.0,0.0,0.0,0.0,0.0,0.0,0.0,0.0,0.0,0.0,0.0,0.0,0.0,0.0,0.0,0.0,0.0,0.0,0.0,0.0,-0.0204,0.023,0.0048,-0.0536,0.0,0.0,-0.0887,-0.17,-0.1467,0.0,0.0,0.0,0.0,0.0,0.0,0.0,0.0,0.0,0.0,0.0,0.0,0.0,0.0,0.0,0.0,0.0,0.0,0.0,0.0,0.0,0.0,0.0,0.0,0.0,0.0,0.0,0.0,0.0,0.0,0.0,0.0,0.0,0.0,0.0,0.0,0.0,0.0,0.0,0.0,0.0,0.0,0.0,0.0,0.0,0.0,0.0,0.0,0.0,0.0,0.0,0.0,0.0,0.0,0.0,-0.4257,-0.3406,-0.1476,-0.0205,0.0333,0.0436,0.0954,0.1826,0.1509,0.0491,0.0,0.0,0.0,0.0,0.0,0.0,0.0,0.0,0.0,0.0,0.0,0.0,0.0,0.0,0.0,0.0,0.0,0.0,0.0,0.0,0.0,0.0,0.0,0.0,0.0,0.0,0.0,0.0,0.0,0.0,0.0,0.0,0.0,0.0,0.0,0.0,0.0,0.0,0.0,0.0,0.0,0.0,0.0273,0.024,0.0,0.0,0.0,-0.055,-0.1612,0.0,0.0,0.0,0.0,0.0,0.0,0.0,0.0,0.0,0.0,0.0,0.0,0.0,0.0,0.0,0.0,0.0,0.0,0.0,0.0,0.0,0.0,0.0,0.0,0.0,0.0,0.0,0.0,0.0,0.0,0.0,0.0,0.0,0.0,0.0,0.0,0.0,0.0,0.0,0.0,0.0,0.0,0.0,0.0,0.0,0.0,0.0,0.0,0.0,0.0,0.0,0.0,0.0,0.0,0.0,0.0,0.0,-0.345,-0.1504,-0.0303,0.0113,0.0218,0.0743,0.1723,0.1413,0.0,0.0,0.0,0.0,0.0,0.0,0.0,0.0,0.0,0.0,0.0,0.0,0.0,0.0,0.0,0.0,0.0,0.0,0.0,0.0,0.0,0.0,0.0,0.0,0.0,0.0,0.0,-1.1593,0.0,0.0,0.0,0.0,0.0,0.0,0.0,0.0,0.0,0.0,0.0,0.0,0.0,0.0,-0.058,0.0542,0.0666,0.0484,0.0,0.0,-0.0178,-0.1482,-0.0781,0.0157,0.0,0.0,0.0,0.0,0.0,0.0,0.0,0.0,0.0,0.0,0.0,0.0,0.0,0.0,0.0,0.0,0.0,0.0,0.0,0.0,0.0,0.0,0.0,0.0,0.0,0.0,0.0,0.0,0.0,0.0,0.0,0.0,0.0,0.0,0.0,0.0,0.0,0.0,0.0,0.0,0.0,0.0,0.0,0.0,0.0,0.0,0.0,0.0,0.0,0.0,0.0,0.0,0.0,0.0,-0.4737,-0.3675,-0.195,-0.0818,-0.0374,0.0202,0.0771,0.1333,0.1545,0.0456,0.0,0.0,0.0,0.0,0.0,0.0,0.0,0.0,0.0,0.0,0.0,0.0,0.0,0.0,0.0,0.0,0.0,0.0,0.0,0.0,0.0,0.0,0.0,0.0,0.0,0.0,0.0,0.0,0.0,0.0,0.0,0.0,0.0,0.0,0.0,0.0,0.0,0.0,0.0,0.0,0.0,0.0047,0.108,0.1626,0.1453,0.0,0.0714,0.0523,-0.1167,-0.0631,0.0079,0.0235,0.0,0.0,0.0,0.0,0.0,0.0,0.0,0.0,0.0,0.0,0.0,0.0,0.0,0.0,0.0,0.0,0.0,0.0,0.0,0.0,0.0,0.0,0.0,0.0,0.0,0.0,0.0,0.0,0.0,0.0,0.0,0.0,0.0,0.0,0.0,0.0,0.0,0.0,0.0,0.0,0.0,0.0,0.0,0.0,0.0,0.0,0.0,0.0,0.0,0.0,0.0,0.0,0.0,-0.5169,-0.4423,-0.2577,-0.134,-0.0837,-0.0602,0.01,0.1296,0.1165,0.0278,0.0,0.0,0.0,0.0,0.0,0.0,0.0,0.0,0.0,0.0,0.0,0.0,0.0,0.0,0.0,0.0,0.0,0.0,0.0,0.0,0.0,0.0,0.0,0.0,0.0,0.0,0.0,0.0,-0.777,-0.7245,-0.6822,0.0,0.0,0.0,0.0,0.0,0.0,0.0,0.0,0.0,0.0,0.0746,0.2053,0.2031,0.0,0.0,0.1006,0.0245,-0.0434,-0.023,0.0262,0.1049,0.0692,0.0,0.0,0.0,0.0,0.0,0.0,0.0,0.0,0.0,0.0,0.0,0.0,0.0,0.0,0.0,0.0,0.0,0.0,0.0,0.0,0.0,0.0,0.0,0.0,0.0,0.0,0.0,0.0,0.0,0.0,0.0,0.0,0.0,0.0,0.0,0.0,0.0,0.0,0.0,0.0,0.0,0.0,0.0,0.0,0.0,0.0,0.0,0.0,0.0,0.0,0.0,0.0,-0.5593,-0.4962,-0.3123,-0.1904,-0.1405,-0.117,-0.0433,0.0763,0.0737,0.0056,0.0,0.0,0.0,0.0,0.0,0.0,0.0,0.0,0.0,0.0,0.0,0.0,0.0,0.0,0.0,0.0,0.0,0.0,0.0,0.0,0.0,0.0,0.0,0.0,0.0,0.0,0.0,0.0,-0.6893,-0.645,-0.5862,0.0,0.0,0.0,0.0,0.0,0.0,0.0,0.0,0.0,0.0,0.159,0.266,0.2664,0.2662,0.2841,0.1604,0.0711,0.0897,0.0887,0.1138,0.2131,0.0,0.0,0.0,0.0,0.0,0.0,0.0,0.0,0.0,0.0,0.0,0.0,0.0,0.0,0.0,0.0,0.0,0.0,0.0,0.0,0.0,0.0,0.0,0.0,0.0,0.0,0.0,-0.3575,0.0,0.0,-0.6269,0.0,0.0,0.0,0.0,0.0,0.0,0.0,0.0,0.0,0.0,0.0,0.0,0.0,0.0,0.0,0.0,0.0,0.0,0.0,0.0,0.0,0.0,-0.5991,-0.5162,-0.3512,-0.248,-0.2047,-0.13,-0.0699,-0.0266,0.0359,-0.0244,-0.2254,0.0,0.0,0.0,0.0,0.0,0.0,0.0,0.0,0.0,0.0,0.0,0.0,0.0,0.0,0.0,0.0,0.0,0.0,0.0,0.0,0.0,0.0,0.0,0.0,0.0,0.0,-0.7476,-0.6925,-0.6226,0.0,0.0,0.0,0.0,0.0,0.0,0.0,0.0,0.0,0.1023,0.2037,0.2703,0.2811,0.3666,0.4021,0.3525,0.2674,0.2299,0.2924,0.2807,0.2821,0.0,0.0,0.0,0.0,0.0,0.0,0.0,0.0,0.0,0.0,0.0,0.0,0.0,0.0,0.0,0.0,0.0,0.0,0.0,0.0,0.0,0.0,0.0,0.0,0.0,0.0,0.0,0.1861,0.1154,0.0,0.0,0.0,0.0,0.0,0.0,0.0,0.0,0.0,0.0,0.0,0.3886,0.4081,0.0,0.0,0.0,0.0,0.0,0.0,0.0,0.0,0.0,0.0,0.0,0.0,-0.5884,-0.5029,-0.3513,-0.248,-0.1978,-0.154,-0.1298,-0.1255,-0.1306,-0.3236,-0.7178,0.0,0.0,0.0,0.0,0.0,0.0,0.0,0.0,0.0,0.0,0.0,0.0,0.0,0.0,0.0,0.0,0.0,0.0,0.0,0.0,0.0,0.0,0.0,0.0,0.0,-0.6441,0.0,0.0,0.0,0.0,0.0,0.0,0.0,0.0,0.0,0.0,0.0,0.2123,0.1796,0.2364,0.3056,0.3778,0.3569,0.338,0.0,0.0,0.0,0.0,0.0,0.0,0.0,0.0,0.0,0.0,0.0,0.0,0.0,0.0,0.0652,0.0173,0.0131,0.0088,-0.0087,0.0,0.0,0.0,0.0,0.0,0.0,0.0,0.0,0.0,0.0,0.0,0.0,0.0,0.0,0.4441,0.4217,0.3068,0.0,0.0,0.0,0.0,0.0,0.0,0.0,0.0,0.4543,0.555,0.5628,0.5866,0.6195,0.0,0.4728,0.2724,0.0,0.0,0.0,0.0,0.0,0.0,0.0,0.0,-0.5483,-0.4752,-0.3436,-0.2405,-0.1742,-0.2131,-0.245,-0.2613,-0.3624,-0.5816,-0.9308,-0.918,-1.0224,0.0,0.0,0.0,0.0,0.0,0.0,0.0,0.0,0.0,0.0,0.0,0.0,0.0,0.0,0.0,0.0,0.0,0.0,0.0,0.0,0.0,0.0,0.0,-0.5127,0.0,0.0,0.0,0.0,0.0,0.0,0.0,0.0,0.0,0.0864,0.2275,0.3188,0.2835,0.319,0.3705,0.4271,0.0,0.0,0.0,0.0,0.0,0.0,0.0,0.685,0.5896,0.5192,0.466,0.4494,0.4261,0.3957,0.349,0.0,0.0,0.2043,0.1758,0.1941,0.2562,0.2321,0.2566,0.4355,0.443,0.4457,0.0,0.0,0.0,0.0,0.0,0.0,0.0,0.0,0.5843,0.5666,0.0,0.4079,0.0,0.0,0.0,0.0,0.3357,0.3985,0.0,0.0,0.5998,0.6559,0.691,0.6393,0.6466,0.7067,0.6691,0.6768,0.7027,0.2355,0.0,0.0,0.0,0.0,0.0,0.0,-0.4673,-0.4129,-0.3143,-0.2189,-0.1301,-0.2998,-0.4099,-0.4428,-0.6469,-0.792,-0.8522,-0.851,-0.8816,-0.9607,-1.169,0.0,0.0,0.0,0.0,0.0,0.0,0.0,0.0,0.0,0.0,0.0,0.0,0.0,0.0,0.0,0.0,0.0,0.0,0.0,0.0,-0.531,0.0,0.0,0.0,0.0,0.0,0.0,0.0,0.0,0.0,0.0,0.3381,0.2826,0.2843,0.4045,0.0,0.0,0.0,0.0,0.4875,0.5383,0.47,0.486,0.7085,0.7084,0.7059,0.7595,0.0,0.0,0.5131,0.5531,0.5694,0.5245,0.5325,0.4726,0.2708,0.3116,0.3818,0.426,0.4316,0.4952,0.6294,0.6147,0.5996,1.1418,0.0,0.0,0.0,0.0,0.906,0.9418,0.9682,1.0123,1.0323,1.0267,0.936,0.0,0.0,0.0,0.0,0.0,0.0,0.5709,0.5307,0.6411,0.6836,0.6649,0.6554,0.6866,0.7454,0.735,0.7667,0.833,0.7482,0.4941,0.0931,0.0,0.0,0.0,0.0,-0.0668,-0.0279,-0.0386,-0.0196,0.0326,-0.2191,-0.4336,-0.6103,-0.8759,-0.9938,-0.9513,-0.9166,-0.9124,-0.9414,-0.7841,0.0,0.0,0.0,0.0,0.0,0.0,0.0,0.0,0.0,0.0,0.0,0.0,0.0,0.0,0.0,0.0,0.0,0.0,0.0,-0.5158,-0.3158,-0.2113,0.0,0.0,0.0,0.0,0.0,0.0,0.0,0.0,0.0,0.5654,0.4659,0.4177,0.0,0.0,0.4561,0.4957,0.4671,0.4651,0.5257,0.4597,0.0,0.649,0.8118,0.8806,0.7925,0.7502,0.7202,0.6954,0.7156,0.7284,0.7063,0.7162,0.695,0.6032,0.5222,0.4837,0.4696,0.4823,0.5303,0.6073,0.627,0.6283,1.3437,1.2309,1.2174,1.1792,1.127,1.1797,1.2169,1.2368,1.2287,1.244,1.2723,1.1753,1.0685,0.9576,0.9292,0.0,0.0,0.0,0.7541,0.6986,0.7723,0.7853,0.7484,0.7374,0.7699,0.8337,0.8292,0.8695,0.954,1.0313,0.9331,0.6664,0.0,0.0,0.0858,0.1879,0.2637,0.3009,0.2818,0.2824,0.3078,-0.1098,-0.4725,-0.7624,-0.9746,-1.0431,-0.9563,-0.8578,-0.807,-0.8057,-0.5798,-0.557,0.0,0.0,0.0,0.0,0.0,0.0,0.0,0.0,0.0,0.0,0.0,-1.2499,-1.179,0.0,0.0,0.0,-0.5844,-0.4684,-0.3212,-0.183,0.0,0.0,0.0,0.0,0.0,0.0,0.0,0.3863,0.4839,0.5619,0.595,0.5398,0.5097,0.5458,0.4978,0.4701,0.4998,0.0,0.4559,0.4782,0.5043,0.5554,0.6637,0.8408,0.9383,0.8653,0.8569,0.863,0.8604,0.8469,0.8339,0.8335,0.8342,0.8193,0.7849,0.7001,0.6145,0.5661,0.5809,0.6126,0.6396,0.6857,0.7141,1.4992,1.5069,1.4557,1.4448,1.4661,1.4773,1.4811,1.4671,1.2966,1.2807,1.3634,1.2139,1.1896,1.259,1.1683,0.0,1.0685,1.0111,0.977,0.9671,0.9542,0.9308,0.8972,0.8692,0.89,0.9596,0.9488,0.9914,1.079,1.1482,1.1614,1.1133,0.8896,0.6101,0.305,0.4556,0.555,0.5859,0.6025,0.6098,0.5981,0.0107,-0.4936,-0.8854,-0.9668,-0.9538,-0.8429,-0.7036,-0.6148,-0.5874,-0.5021,-0.5031,-0.6084,0.0,0.0,0.0,0.0,0.0,0.0,0.0,0.0,0.0,0.0,0.0,0.0,0.0,0.0,0.0,-0.3276,0.0,-0.1033,-0.1047,0.0,0.0,0.0,0.1229,0.1103,0.3054,0.4297,0.4073,0.0,0.0,0.504,0.5235,0.549,0.5903,0.5367,0.4833,0.464,0.4643,0.4548,0.4311,0.5643,0.6806,0.6935,0.7967,0.89,0.9442,0.9491,0.9418,0.9752,0.9381,0.9026,0.9246,0.9021,0.8728,0.866,0.8172,0.7677,0.6884,0.7011,0.7153,0.7015,0.7732,0.8111,1.5197,1.5178,1.5036,1.5012,1.5062,1.5082,1.4989,1.4774,1.4326,1.4193,1.4271,1.3728,1.3426,1.3258,1.2766,1.2255,1.1718,1.133,1.0857,1.0359,1.0178,0.9993,0.9815,0.9791,0.9998,1.0408,1.0703,1.1117,1.1712,1.2468,1.2854,1.2823,1.2624,1.1291,0.8927,0.9356,0.937,0.8854,0.7779,0.5948,0.3392,0.1132,-0.3111,-0.9459,-0.854,-0.6557,-0.3751,-0.5167,-0.5386,-0.4131,-0.4154,-0.4348,-0.4632,-0.7694,0.0,0.0,0.0,0.0,0.0,0.0,0.0,0.0,0.0,-0.9583,-0.8039,0.0,-0.3996,0.0,-0.1061,-0.0314,0.0157,0.0485,0.0,0.0,0.1911,0.2514,0.2059,0.3332,0.4121,0.3775,0.5776,0.666,0.5212,0.4329,0.4248,0.534,0.4699,0.4201,0.4529,0.4623,0.4696,0.4796,0.4905,0.5274,0.6204,0.663,0.7715,0.9653,0.9107,0.8723,0.9758,0.9772,0.9762,1.0097,1.0069,0.9918,0.9788,0.8724,0.7662,0.7221,0.7273,0.7404,0.7363,0.7694,0.791,1.5322,1.528,1.5272,1.5268,1.5226,1.512,1.5004,1.4863,1.4419,1.4332,1.4492,1.4288,1.4069,1.3814,1.3501,1.3109,1.2717,1.2401,1.1965,1.1408,1.1221,1.1015,1.0754,1.0486,1.0509,1.0742,1.0802,1.1023,1.1396,1.211,1.2496,1.2615,1.3129,1.2777,1.1594,1.179,1.1731,1.1424,0.976,0.719,0.3695,0.2412,-0.1182,-0.7215,-0.6078,-0.4437,-0.2646,-0.3915,-0.4349,-0.3732,-0.448,-0.4954,-0.4987,-0.6989,-0.793,0.0,0.0,0.0,0.0,0.0,0.0,0.0,0.0,0.0,0.0,0.0,-0.1857,0.0709,0.1024,0.1257,0.1765,0.1745,0.1685,0.1641,0.252,0.3013,0.2726,0.3733,0.4347,0.4198,0.5848,0.6474,0.5034,0.4049,0.3669,0.442,0.3988,0.3813,0.4274,0.4511,0.4578,0.4328,0.4261,0.4856,0.6553,0.7262,0.8319,1.0283,1.0107,0.9846,1.0873,1.0733,1.0606,1.0887,1.0297,0.9885,1.0237,0.8573,0.7164,0.746,0.712,0.6797,0.6847,0.7373,0.7825,1.5373,1.5373,1.5385,1.5345,1.5265,1.5005,1.4954,1.4943,1.4076,1.4008,1.4537,1.4344,1.4288,1.4331,1.3983,1.3754,1.357,1.316,1.2783,1.2348,1.2142,1.1847,1.1469,1.0898,1.0749,1.0851,1.0543,1.053,1.0792,1.1356,1.1661,1.1704,1.2185,1.2381,1.2298,1.2521,1.2676,1.2795,1.1236,0.8751,0.5354,0.3835,0.1015,-0.3179,-0.2938,-0.2755,-0.2976,-0.2991,-0.3191,-0.3642,-0.5074,-0.5833,-0.5682,-0.5735,-0.6091,0.0,-0.6346,0.0,0.0,0.0,0.0,0.0,0.0,0.0,0.0,-0.2766,-0.0237,0.2452,0.247,0.2578,0.3151,0.2635,0.2323,0.2464,0.2826,0.3134,0.3306,0.4039,0.4605,0.4735,0.5037,0.5049,0.4597,0.4032,0.3633,0.3625,0.3617,0.3758,0.4063,0.437,0.4279,0.3463,0.3805,0.4956,0.7025,0.7989,0.8889,1.0878,1.0905,1.1273,1.2174,1.1763,1.129,1.1221,1.0022,0.9273,1.0212,0.8011,0.6577,0.7333,0.6409,0.562,0.6038,0.6988,0.7685,1.5381,1.5319,1.5264,1.5235,1.5197,1.5054,1.4992,1.4989,1.4798,1.472,1.4738,1.4654,1.4589,1.4508,1.419,1.3993,1.3864,1.2934,1.2368,1.2058,1.1542,1.1148,1.0864,1.0956,1.1114,1.1287,1.143,1.1562,1.1762,1.2165,1.232,1.218,1.2439,1.2481,1.2272,0.0,0.0,0.0,0.9851,0.8676,0.6766,0.5423,0.4082,0.2601,0.0012,0.0,-0.0797,-0.1833,-0.2203,-0.1772,-0.4056,0.0,0.0,0.0,0.0,0.0,0.0,0.0,0.0,0.0,0.0,0.0,-0.1416,-0.3257,-0.5097,-0.2224,-0.0058,0.0327,0.1337,0.2183,0.2592,0.2692,0.2866,0.3288,0.3429,0.3533,0.3668,0.3781,0.3838,0.3921,0.3818,0.3778,0.3922,0.3971,0.4023,0.391,0.4031,0.4156,0.4234,0.4137,0.395,0.3823,0.4075,0.4953,0.68,0.6064,0.6651,0.9076,0.9267,0.9585,1.1508,1.1903,1.1195,1.0419,0.9619,0.894,0.8154,0.6485,0.558,0.568,0.4782,0.4194,0.5311,0.658,0.7446,1.5374,1.5344,1.5318,1.5272,0.0,1.5185,1.5112,1.5108,1.5028,1.4954,1.4898,1.4812,1.4738,1.4648,1.4437,1.4053,1.352,1.2974,1.2424,1.1943,1.1641,1.1365,1.1092,1.0998,1.0948,1.095,1.0884,1.088,1.0984,1.1204,1.1262,1.1169,1.1158,1.1075,1.0852,0.9951,0.9381,0.9147,0.8568,0.7895,0.7134,0.5492,0.417,0.3186,0.1119,0.0,0.0,0.0,0.0,0.0,0.0,0.0,0.0,-0.4408,0.0,-0.1865,-0.2121,-0.149,0.0316,-0.0404,-0.0106,0.1848,0.0494,-0.0998,-0.2294,-0.0427,0.1195,0.213,0.2702,0.3242,0.3793,0.3503,0.3413,0.3832,0.3818,0.3781,0.3876,0.3803,0.3796,0.3858,0.3728,0.3712,0.4019,0.424,0.4347,0.426,0.4325,0.443,0.4477,0.4291,0.4171,0.4263,0.4352,0.5246,0.7055,0.636,0.6214,0.912,0.9699,1.0303,1.2132,1.2447,1.2116,1.1304,1.0552,0.9844,0.9725,0.7689,0.6052,0.6824,0.5859,0.4953,0.5748,0.6012,0.6352,1.5418,1.5407,1.5387,1.5346,1.5315,1.5287,1.528,1.5214,1.5082,0.0,0.0,1.4977,1.489,1.4748,1.4521,1.3935,1.3135,1.276,1.2259,1.1698,1.1589,1.1411,1.1184,1.0854,1.0584,1.0418,1.0064,0.9915,0.9883,0.9932,0.9952,0.9911,0.9763,0.9518,0.9251,0.8588,0.829,0.8326,0.7446,0.691,0.674,0.4995,0.3464,0.2262,0.1643,0.1114,0.069,-0.0245,-0.1093,-0.1839,-0.3098,-0.4243,-0.5147,-0.3754,-0.1607,0.1053,0.115,0.1461,0.234,0.1802,0.159,0.2075,0.1169,0.0603,0.0588,0.1168,0.2401,0.4418,0.4224,0.4327,0.5068,0.4317,0.3873,0.4214,0.4078,0.3995,0.4086,0.404,0.4051,0.4155,0.4097,0.4144,0.4407,0.4541,0.4674,0.472,0.4668,0.4617,0.469,0.4626,0.4556,0.4647,0.4634,0.5399,0.6944,0.6779,0.703,0.8431,0.9789,1.1113,1.2111,1.2654,1.2623,1.1859,1.0924,1.049,1.1319,0.8485,0.6899,0.8747,0.7515,0.6244,0.6805,0.6161,0.6093,1.5414,1.5375,1.5334,1.5355,1.5375,1.5316,1.5325,1.5348,1.5177,1.5122,1.518,1.5101,1.5068,1.4988,1.4071,1.353,1.3253,1.1746,1.0958,1.0847,1.032,1.0073,1.0046,1.0148,1.0187,1.0154,1.0042,0.9953,0.9903,0.9853,0.9775,0.9662,0.9578,0.9287,0.8818,0.8579,0.8036,0.7177,0.6672,0.6055,0.5333,0.4557,0.3724,0.2852,0.2634,0.2444,0.2189,0.1134,0.0454,0.0243,-0.086,-0.2022,-0.3148,-0.1238,0.0553,0.1748,0.2919,0.4063,0.5097,0.5049,0.4475,0.3359,0.2585,0.1462,-0.0199,0.0924,0.2289,0.3537,0.3746,0.392,0.4484,0.4221,0.4071,0.4325,0.4306,0.429,0.4397,0.4413,0.444,0.452,0.4557,0.4569,0.4648,0.471,0.4997,0.5474,0.513,0.487,0.4897,0.4838,0.4768,0.4779,0.4763,0.4899,0.5332,0.5082,0.531,0.514,0.7889,0.9787,1.0412,1.1317,1.1577,1.0123,0.8996,0.8527,0.9673,0.702,0.6253,0.7627,0.7205,0.7207,0.8895,0.8603,0.8237,1.5387,1.5357,1.536,1.5346,1.5353,1.5359,1.5365,1.5383,1.5303,1.5271,1.5257,1.5222,1.4931,1.4414,1.3934,1.3191,1.229,1.1452,1.0827,1.0425,1.0153,0.9994,0.9976,1.0114,1.0109,1.0033,1.0015,0.9957,0.9841,0.9707,0.9585,0.9472,0.921,0.8895,0.8567,0.8129,0.7665,0.7176,0.66,0.6103,0.5654,0.4768,0.4414,0.467,0.4055,0.3704,0.3736,0.2714,0.189,0.1318,0.0398,-0.0602,-0.1536,-0.026,0.1193,0.261,0.3678,0.4536,0.5163,0.5225,0.4987,0.4348,0.4029,0.3477,0.2526,0.2291,0.2757,0.3953,0.4152,0.4295,0.4582,0.4436,0.4358,0.4494,0.4507,0.4542,0.459,0.4633,0.47,0.4754,0.4742,0.4774,0.485,0.4889,0.5005,0.5364,0.5125,0.5015,0.507,0.4973,0.4896,0.4858,0.4849,0.4827,0.4733,0.4684,0.5408,0.7027,0.8459,1.0077,1.1484,1.2651,1.2465,1.1979,1.0436,1.0125,1.1393,0.9169,0.788,0.795,0.8788,0.9639,1.1086,1.1231,1.0607,1.5335,1.531,1.5374,1.537,1.5327,1.5389,1.541,1.5409,1.541,1.5367,1.5307,1.5124,1.4618,1.395,1.3564,1.2654,1.1526,1.119,1.0778,1.0228,1.0175,1.0142,1.0094,1.0114,1.0071,0.9944,0.9898,0.9831,0.9701,0.9552,0.9411,0.9277,0.8891,0.8579,0.8422,0.7825,0.7439,0.7268,0.668,0.6318,0.6185,0.5237,0.5205,0.5982,0.5233,0.4833,0.4941,0.4108,0.317,0.2236,0.1383,0.0534,-0.0239,0.0472,0.1651,0.3196,0.4004,0.4432,0.4598,0.4994,0.5193,0.5127,0.512,0.514,0.5155,0.3904,0.3488,0.4486,0.4713,0.4768,0.4757,0.4714,0.4675,0.4692,0.4725,0.4742,0.4787,0.4806,0.4878,0.4908,0.4891,0.4876,0.5031,0.5365,0.5877,0.63,0.6308,0.6407,0.6233,0.5934,0.5614,0.568,0.5591,0.529,0.5014,0.5643,0.7043,0.9762,1.012,1.0881,1.2419,1.2902,1.2961,1.2306,1.1316,1.1066,1.2549,1.1087,0.9693,1.012,1.0702,1.1417,1.2898,1.3085,1.248,1.5303,1.5307,1.5382,1.5403,1.539,1.5407,1.5406,1.5405,1.5404,1.541,1.5328,1.4573,1.4181,1.3876,1.2472,1.1713,1.1422,1.0605,1.0233,1.0187,1.0051,1.0005,1.0035,0.9973,0.9849,0.9725,0.9629,0.9547,0.9447,0.9359,0.9208,0.9028,0.8744,0.8468,0.8216,0.7968,0.7547,0.6969,0.6702,0.6458,0.6302,0.5934,0.5832,0.5925,0.5823,0.5685,0.5506,0.4854,0.4166,0.3423,0.2429,0.1432,0.066,0.1555,0.253,0.3181,0.3895,0.4296,0.4367,0.5488,0.6038,0.56,0.548,0.5633,0.6024,0.5019,0.449,0.4861,0.4964,0.4962,0.4978,0.4916,0.4877,0.4925,0.4903,0.4902,0.4957,0.4991,0.4968,0.4989,0.5087,0.4996,0.5315,0.6436,0.7905,0.9003,0.955,0.9763,0.9207,0.7989,0.7392,0.7733,0.7649,0.6747,0.6054,0.7613,0.9153,1.0095,1.1173,1.1435,1.0919,1.0595,1.0115,1.1324,0.9125,0.9666,1.1186,1.0794,1.0619,1.2237,1.2459,1.206,1.3412,1.3766,1.3238,1.5315,1.5361,1.5396,1.5418,1.5409,1.5403,1.5416,1.5413,1.5405,1.5406,1.5286,1.4471,1.3828,1.3301,1.2571,1.1971,1.1437,1.1083,1.1133,1.1446,1.1007,1.0737,1.0608,1.0087,0.9767,0.9658,0.9573,0.9465,0.9275,0.9091,0.894,0.8801,0.851,0.8256,0.8011,0.7739,0.7424,0.7093,0.6894,0.6811,0.6824,0.6347,0.6121,0.6169,0.6157,0.6014,0.5727,0.5149,0.4446,0.3758,0.3197,0.257,0.1799,0.2939,0.3516,0.3355,0.4107,0.4904,0.5584,0.6223,0.6506,0.632,0.6628,0.6642,0.607,0.5331,0.4866,0.4837,0.4977,0.5034,0.5029,0.4981,0.4968,0.4997,0.4955,0.4959,0.5001,0.5039,0.5056,0.5123,0.5917,0.6522,0.6766,0.805,0.9316,1.0091,1.0586,1.0755,1.0234,0.8789,0.8065,0.8401,0.8736,0.977,1.0337,1.001,1.0636,1.1291,1.1939,1.1741,1.1782,1.2138,1.2566,1.2017,1.0854,1.0862,1.3259,1.2668,1.2314,1.3813,1.4094,1.3478,1.3846,1.3885,1.3693,1.5311,1.5375,1.5379,1.5415,1.541,1.5405,1.5418,1.5415,1.5405,1.542,1.5344,1.471,1.3937,1.3165,1.2892,1.2361,1.1775,1.1768,1.2026,1.2355,1.1607,1.1156,1.0988,1.0163,0.9666,0.955,0.9508,0.9394,0.9129,0.8874,0.8715,0.8607,0.8309,0.8039,0.784,0.7546,0.7345,0.7235,0.7075,0.7088,0.7196,0.6941,0.6682,0.6555,0.6576,0.6433,0.6084,0.5401,0.4798,0.4245,0.3868,0.3424,0.2959,0.3837,0.4253,0.4139,0.4983,0.5798,0.6436,0.6931,0.7181,0.7053,0.755,0.762,0.6806,0.5585,0.5087,0.5631,0.5809,0.5873,0.5072,0.5035,0.5024,0.5018,0.5019,0.5035,0.5027,0.5069,0.5293,0.5797,0.679,0.8036,0.8908,1.0054,1.0984,1.1615,1.171,1.1598,1.1391,1.0382,0.9488,1.0194,1.0744,1.1867,1.4392,1.333,1.2263,1.2484,1.3092,1.2828,1.307,1.349,1.3467,1.152,1.2278,1.3206,1.409,1.3971,1.4162,1.461,1.476,1.4571,1.4277,1.417,1.4123,1.5235,1.5313,1.5379,1.5405,1.541,1.541,1.541,1.5408,1.5416,1.5412,1.5392,1.5255,1.4748,1.3919,1.3198,1.2665,1.2536,1.25,1.2503,1.2461,1.1581,1.1038,1.0938,1.005,0.9553,0.943,0.9358,0.9216,0.8994,0.8726,0.8575,0.8501,0.818,0.7943,0.7812,0.7558,0.7406,0.7417,0.7278,0.7274,0.7419,0.7844,0.7648,0.7074,0.7193,0.7027,0.6444,0.5807,0.5347,0.5215,0.4276,0.37,0.3575,0.3885,0.4613,0.5708,0.6801,0.7029,0.6533,0.7678,0.8311,0.7772,0.8125,0.8438,0.8752,0.6535,0.5618,0.72,0.7712,0.7401,0.6093,0.5878,0.5384,0.512,0.5147,0.523,0.5093,0.5254,0.5893,0.6996,0.7702,0.9183,1.1849,1.2305,1.3097,1.4166,1.4815,1.4709,1.4342,1.3341,1.3002,1.3691,1.3536,1.3181,1.478,1.4442,1.4418,1.4429,1.3792,1.3277,1.2334,1.1657,1.1415,1.1734,1.3448,1.4558,1.4908,1.5417,1.6064,1.6216,1.5629,1.5287,1.5066,1.4837,1.4754,1.5245,1.5363,1.5383,1.541,1.5408,1.5408,1.5406,1.5421,1.5415,1.5383,1.5321,1.5276,1.5038,1.4687,1.4342,1.3863,1.3354,1.3316,1.3528,1.3728,1.2991,1.2287,1.1635,1.0794,1.0005,0.9439,0.933,0.9119,0.8807,0.862,0.8597,0.8588,0.8153,0.79,0.7924,0.7669,0.7685,0.7979,0.7633,0.7869,0.8706,0.8405,0.8132,0.8217,0.7719,0.7015,0.6087,0.5492,0.5008,0.4677,0.41,0.382,0.3942,0.4717,0.5903,0.7277,0.7635,0.7918,0.837,0.8939,0.9408,0.9563,1.0253,1.0288,0.9849,0.9492,0.8614,0.6762,0.8699,1.0144,1.0872,0.956,0.7422,0.5661,0.603,0.6279,0.5594,0.5968,0.6879,0.7643,0.912,1.1553,1.3192,1.4054,1.4365,1.4997,1.5196,1.525,1.5047,1.3884,1.3512,1.4609,1.3967,1.3298,1.5016,1.5157,1.5042,1.4948,1.4609,1.4417,1.378,1.4083,1.4092,1.4456,1.5752,1.6365,1.6853,1.7447,1.8004,1.7361,1.6769,1.6261,1.609,1.5818,1.5577,1.5233,1.5373,1.5388,1.541,1.5407,1.5405,1.538,1.5369,1.5355,1.5307,1.5261,1.5211,1.5139,1.5061,1.4984,1.4617,1.4071,1.4087,1.4296,1.4571,1.382,1.2965,1.2077,1.1214,1.0322,0.9554,0.949,0.9458,0.9371,0.9208,0.9153,0.9147,0.8645,0.8464,0.8532,0.835,0.8443,0.8669,0.8414,0.8779,0.9603,0.917,0.8825,0.8859,0.8358,0.7432,0.6112,0.5438,0.4854,0.4358,0.4017,0.4056,0.4572,0.579,0.7148,0.8382,0.8712,0.9068,0.9781,1.0026,1.0267,1.0693,1.1564,1.171,1.108,1.2046,1.0768,0.9254,1.0107,1.3071,1.3877,1.3142,1.0785,0.762,0.7674,0.7925,0.6896,0.7608,0.8399,0.9324,1.1345,1.339,1.4586,1.4827,1.4965,1.5085,1.5133,1.5207,1.5043,1.4469,1.3939,1.5019,1.446,1.4245,1.5004,1.518,1.5094,1.5024,1.4661,1.4775,1.5299,1.5898,1.6571,1.7167,1.7772,1.8308,1.8859,1.9409,1.9133,1.844,1.7795,1.7186,1.699,1.6771,1.6386,1.5299,1.5314,1.5385,1.541,1.5409,1.5401,1.5352,1.5319,1.5237,1.5221,1.5187,1.5108,1.5071,1.4976,1.4857,1.4748,1.4615,1.4568,1.4584,1.4515,1.3782,1.2988,1.2187,1.1434,1.0539,0.9649,0.9864,1.0256,1.0531,1.0319,1.0109,0.996,0.9657,0.9468,0.9592,0.9457,0.9508,0.9567,0.9585,0.9746,0.9847,0.9985,0.9695,0.9138,0.9087,0.8333,0.6716,0.5852,0.5145,0.4502,0.4216,0.4553,0.562,0.6972,0.8204,0.9023,0.9995,1.0493,1.0478,1.07,1.0912,1.1192,1.1793,1.2608,1.2943,1.2882,1.3122,1.4025,1.4122,1.4325,1.4652,1.5423,1.4379,1.074,0.9974,1.0079,0.9706,0.9797,1.0432,1.1863,1.353,1.4529,1.4766,1.4822,1.4913,1.5049,1.5106,1.5146,1.5206,1.5004,1.5221,1.5325,1.5053,1.4956,1.5098,1.5197,1.512,1.4998,1.4545,1.4405,1.5337,1.6046,1.7003,1.7715,1.8788,1.9316,1.9057,1.9525,1.94,1.8827,1.8393,1.8231,1.8144,1.7881,1.7029,1.5319,1.5359,1.539,1.541,1.5407,1.5356,1.5323,1.529,1.5229,1.5163,1.5132,1.5059,1.4987,1.4883,1.4747,1.4656,1.4614,1.4549,1.4504,1.4426,1.4217,1.3684,1.2955,1.2516,1.1797,1.0866,1.0732,1.0634,1.0511,1.0414,1.0294,1.0162,0.9849,0.9817,1.008,0.9797,0.9839,1.0328,0.9995,1.0211,1.0942,1.014,0.9821,1.0112,0.9254,0.8395,0.7969,0.7058,0.6219,0.5496,0.5406,0.5751,0.6575,0.7581,0.8501,0.9274,1.0164,1.0897,1.1221,1.1411,1.1673,1.2149,1.2871,1.3388,1.3768,1.4267,1.495,1.5963,1.5828,1.578,1.6025,1.5853,1.4563,1.1533,1.2187,1.2115,1.1057,1.1461,1.2745,1.4077,1.4995,1.5195,1.4865,1.4794,1.5035,1.5133,1.5162,1.5178,1.5218,1.5357,1.5297,1.531,1.5286,1.5338,1.5278,1.5547,1.586,1.579,1.5325,1.5306,1.6035,1.661,1.7524,1.8283,1.9396,1.9779,1.9564,1.9553,1.9523,1.9619,1.9476,1.9432,1.9464,1.8869,1.7955,1.5355,1.5426,1.5741,1.5636,1.5474,1.5927,1.5818,1.5346,1.5504,1.5389,1.5092,1.4984,1.4894,1.4804,1.4666,1.4581,1.4533,1.4392,1.4332,1.4338,1.4462,1.4062,1.3274,1.2744,1.235,1.1782,1.1477,1.1286,1.1126,1.103,1.0929,1.0739,1.0518,1.0558,1.0841,1.0582,1.0772,1.1422,1.1197,1.1446,1.2022,1.1118,1.0652,1.0955,0.9804,0.9017,0.8796,0.8066,0.7206,0.6342,0.5954,0.6256,0.7094,0.7715,0.8471,0.9474,1.0244,1.0894,1.1263,1.1527,1.1945,1.2497,1.3352,1.4074,1.4385,1.5232,1.5775,1.6379,1.6201,1.6308,1.6571,1.6109,1.4925,1.3821,1.4091,1.3979,1.2913,1.3346,1.416,1.5008,1.5275,1.5205,1.5208,1.5405,1.5683,1.5864,1.5716,1.5581,1.5655,1.5737,1.5623,1.5621,1.5895,1.5761,1.5402,1.5845,1.653,1.6561,1.6433,1.6849,1.7484,1.7797,1.8424,1.8655,1.9465,1.9427,1.9258,1.9854,2.0065,2.0238,2.0241,2.0035,1.9772,1.9492,1.8683,1.5563,1.5644,1.6353,1.6252,1.5788,1.7031,1.6794,1.5612,1.6043,1.5929,1.5296,1.5111,1.4954,1.4815,1.4663,1.4462,1.4392,1.4433,1.4418,1.4482,1.4581,1.4348,1.3327,1.2513,1.2261,1.2336,1.2074,1.2079,1.217,1.2038,1.194,1.1498,1.1475,1.1762,1.1798,1.1791,1.2089,1.275,1.2802,1.3047,1.359,1.2735,1.2056,1.1796,1.078,0.9928,0.9388,0.8778,0.7914,0.6711,0.615,0.6428,0.7236,0.7517,0.8379,0.9652,1.0371,1.0755,1.097,1.1571,1.1945,1.2244,1.327,1.4301,1.4994,1.5354,1.5863,1.6584,1.6163,1.6013,1.6509,1.6014,1.5755,1.6169,1.5313,1.5106,1.5749,1.5404,1.533,1.5257,1.4987,1.4999,1.5988,1.6432,1.6921,1.7066,1.6689,1.6309,1.6245,1.612,1.5987,1.602,1.6054,1.5887,1.5436,1.7406,1.8056,1.81,1.7849,1.7945,1.8383,1.8635,1.857,1.884,1.9198,1.9102,1.9165,1.9658,2.0131,2.0277,2.0233,2.0169,1.9984,1.966,1.9143,1.7256,1.7282,1.7423,1.7361,1.7185,1.7612,1.7477,1.7039,1.7043,1.6952,1.6573,1.5897,1.5569,1.5496,1.4636,1.4257,1.4409,1.4823,1.5085,1.5193,1.5791,1.5016,1.3779,1.3255,1.3043,1.2975,1.2853,1.2616,1.2356,1.2338,1.2054,1.1601,1.1696,1.1985,1.2373,1.2462,1.2858,1.3485,1.3565,1.3615,1.3704,1.3289,1.2738,1.2293,1.1663,1.0933,1.0205,0.9267,0.8336,0.7498,0.7334,0.7456,0.7931,0.8291,0.8825,0.9574,1.039,1.1025,1.1423,1.1973,1.2409,1.2562,1.3305,1.4205,1.4945,1.5555,1.6182,1.6709,1.6425,1.6249,1.6597,1.5637,1.4958,1.4807,1.4847,1.5124,1.5713,1.5924,1.5983,1.6125,1.6389,1.6586,1.6869,1.7449,1.7843,1.7638,1.7133,1.6577,1.6752,1.6443,1.6272,1.5761,1.5644,1.5582,1.6158,1.8363,1.9565,1.9717,1.9363,1.8745,1.8945,1.8979,1.8604,1.8335,1.8982,1.9085,1.8994,1.9177,1.9631,2.03,2.0249,2.0195,2.0069,1.9817,1.9258,1.7905,1.7925,1.8198,1.8089,1.7887,1.8424,1.8289,1.7725,1.7785,1.7595,1.715,1.6583,1.6079,1.5705,1.5103,1.4603,1.4501,1.509,1.5148,1.4906,1.5363,1.5153,1.4606,1.447,1.4142,1.369,1.3749,1.3287,1.2681,1.2654,1.2522,1.2306,1.2231,1.2569,1.3208,1.3211,1.3565,1.4197,1.4281,1.4333,1.4576,1.4068,1.3485,1.294,1.2316,1.1512,1.0418,0.9669,0.8849,0.8039,0.7898,0.8119,0.835,0.8998,0.9453,0.9743,1.0421,1.099,1.1317,1.1924,1.2348,1.2511,1.312,1.3914,1.4519,1.5081,1.5533,1.6073,1.5783,1.5764,1.5794,1.4873,1.4278,1.4291,1.4425,1.4958,1.5976,1.6075,1.6378,1.679,1.7098,1.7367,1.754,1.841,1.8734,1.8583,1.8108,1.7788,1.7632,1.7068,1.6651,1.6347,1.6245,1.6426,1.6946,1.8779,1.9988,2.0282,2.0216,1.9642,1.9461,1.9359,1.8882,1.86,1.8927,1.9078,1.9021,1.9174,1.9843,2.028,2.025,2.02,2.0084,1.9871,1.9305,1.817,1.8216,1.884,1.8666,1.829,1.9437,1.9135,1.8019,1.8354,1.8161,1.7453,1.7035,1.6392,1.5723,1.5559,1.5183,1.4477,1.5396,1.5306,1.5145,1.5245,1.5473,1.5921,1.5378,1.4922,1.4443,1.4692,1.4105,1.3444,1.3421,1.3339,1.3145,1.3122,1.3489,1.3885,1.3935,1.4362,1.497,1.5134,1.5321,1.5562,1.5151,1.4544,1.3827,1.2707,1.1666,1.0647,0.9994,0.9404,0.8108,0.8155,0.8334,0.8677,0.9638,1.0018,1.0087,1.056,1.1002,1.1037,1.1709,1.2049,1.2258,1.2824,1.3529,1.4187,1.451,1.4855,1.5608,1.489,1.4852,1.4655,1.4255,1.4284,1.4314,1.4326,1.5114,1.6051,1.6284,1.6466,1.7363,1.7288,1.7606,1.8292,1.9156,1.9922,1.9334,1.8838,1.8436,1.8248,1.7915,1.763,1.7487,1.7507,1.7635,1.83,1.9173,1.9991,2.0531,2.051,2.0209,1.9968,1.9749,1.9312,1.9115,1.9124,1.9098,1.9058,1.9458,2.0128,2.0296,2.0283,2.0224,2.0142,1.9844,1.9393,1.9842,1.9798,1.9892,1.9805,1.9638,1.9907,1.969,1.9169,1.927,1.9068,1.8595,1.7402,1.6664,1.6316,1.5795,1.488,1.4385,1.5889,1.7029,1.7272,1.7141,1.7091,1.6903,1.6046,1.5321,1.5102,1.5101,1.4837,1.4498,1.4247,1.4148,1.3975,1.3876,1.4006,1.4577,1.4731,1.4929,1.5572,1.6024,1.6263,1.6352,1.6202,1.5688,1.4911,1.3421,1.2104,1.1205,1.0491,0.994,0.9358,0.8696,0.8698,0.9467,1.0116,1.045,1.0593,1.1046,1.1437,1.1564,1.2043,1.2516,1.2539,1.2898,1.3563,1.4224,1.4645,1.5125,1.5646,1.5526,1.5011,1.4524,1.5113,1.5037,1.4695,1.4897,1.5603,1.6513,1.6789,1.7061,1.7592,1.8167,1.8697,1.9223,1.9432,1.9828,1.9852,1.9526,1.9016,1.8797,1.8661,1.8567,1.8439,1.8449,1.8545,1.8964,1.9608,2.0132,2.0597,2.0594,2.0593,2.0358,2.0081,1.9613,1.9309,1.9126,1.9158,1.9356,1.972,2.0381,2.036,2.0313,2.0205,2.0065,1.9793,1.9346,2.0299,2.0208,2.0162,2.0031,1.9877,1.9855,1.9719,1.9499,1.9405,1.9323,1.9086,1.8123,1.7369,1.6682,1.6463,1.577,1.4978,1.5905,1.7176,1.7569,1.7461,1.726,1.7515,1.6987,1.6502,1.5951,1.6088,1.5801,1.5217,1.525,1.5423,1.5373,1.4897,1.52,1.5771,1.5766,1.5889,1.6263,1.6785,1.7096,1.7065,1.6905,1.6235,1.5291,1.3826,1.2615,1.1756,1.1406,1.1096,1.0714,1.0088,0.9677,0.9993,1.0509,1.083,1.1021,1.1582,1.1942,1.2141,1.2389,1.2697,1.2709,1.2896,1.3353,1.3927,1.446,1.5107,1.5721,1.5929,1.5731,1.5444,1.5293,1.5428,1.5587,1.5694,1.6313,1.6838,1.712,1.7522,1.8124,1.8736,1.9151,1.9536,1.9655,1.9707,1.9743,1.9831,1.9392,1.959,1.9458,1.9436,1.9359,1.9338,1.9426,1.9682,2.0039,2.035,2.0601,2.0597,2.0594,2.051,2.0221,1.9893,1.9747,1.9659,1.9756,1.9973,2.032,2.0418,2.0376,2.0316,2.0192,1.9994,1.9733,1.9183,2.0214,2.0069,2.0069,1.9877,1.9606,1.965,1.9532,1.9289,1.9164,1.915,1.9031,1.8945,1.7876,1.7176,1.7381,1.683,1.6126,1.58,1.6748,1.7591,1.7361,1.7349,1.7683,1.7963,1.7888,1.6863,1.7142,1.6724,1.6154,1.6147,1.6609,1.6901,1.6297,1.633,1.7013,1.7046,1.6816,1.695,1.7439,1.7733,1.77,1.7485,1.6678,1.5085,1.4246,1.3203,1.2447,1.2161,1.2159,1.1982,1.1879,1.133,1.09,1.0957,1.132,1.148,1.2025,1.2295,1.2354,1.2567,1.2709,1.2709,1.2709,1.3012,1.3589,1.4154,1.4819,1.5579,1.6103,1.6645,1.7003,1.6541,1.6208,1.6382,1.6674,1.7014,1.7253,1.7485,1.8092,1.8676,1.9004,1.9283,1.9419,1.9536,1.9582,1.9649,1.9731,1.9861,2.0012,2.0103,1.9967,1.9968,1.9881,1.9909,2.0129,2.0173,2.0527,2.0603,2.0599,2.0597,2.0596,2.0433,2.0226,2.0353,2.0344,2.0347,2.0301,2.0406,2.0457,2.0418,2.0322,2.0199,1.9952,1.9673,1.8982,2.0153,1.992,1.9861,1.9724,1.9545,1.9467,1.9398,1.9232,1.9202,1.9168,1.901,1.8461,1.8003,1.7581,1.7648,1.7647,1.7277,1.691,1.6892,1.7749,1.7871,1.8203,1.8334,1.895,1.9038,1.8831,1.8552,1.796,1.7484,1.7508,1.7654,1.7834,1.7502,1.7515,1.7574,1.755,1.7533,1.7605,1.8041,1.8283,1.8263,1.7961,1.7079,1.5283,1.4689,1.3889,1.2974,1.2777,1.27,1.2352,1.2437,1.2307,1.2106,1.2235,1.2248,1.213,1.2236,1.2413,1.2484,1.2591,1.2674,1.2709,1.2674,1.2978,1.3501,1.4044,1.4774,1.5679,1.6491,1.7126,1.7473,1.7166,1.6987,1.705,1.7339,1.7831,1.8086,1.832,1.852,1.8945,1.9113,1.9243,1.9365,1.9452,1.9481,1.955,1.9663,1.9847,2.006,2.0169,2.0176,2.0235,2.0303,2.0366,2.0498,2.0443,2.0526,2.0585,2.0602,2.0601,2.0598,2.0598,2.0593,2.0566,2.0538,2.047,2.0486,2.0525,2.0467,2.0418,2.0316,2.0204,1.9907,1.955,1.8724,1.9941,1.9676,2.0094,2.0103,1.9847,1.9845,1.98,1.9612,1.9268,1.9086,1.896,1.8634,1.8153,1.7823,1.795,1.8176,1.8126,1.791,1.7961,1.8576,1.889,1.9045,1.9075,1.9707,1.9707,1.9591,1.9427,1.911,1.8587,1.8411,1.8553,1.8703,1.8343,1.8138,1.8346,1.8323,1.8205,1.8253,1.8502,1.8782,1.8768,1.8387,1.7115,1.6179,1.5235,1.4528,1.3885,1.3762,1.3689,1.3447,1.3493,1.332,1.3146,1.3,1.2943,1.2556,1.2437,1.2437,1.2508,1.2627,1.2674,1.2709,1.2662,1.3,1.3609,1.4224,1.4945,1.6041,1.6767,1.7392,1.7608,1.7687,1.7608,1.7578,1.788,1.8217,1.8469,1.8679,1.8843,1.9,1.9226,1.934,1.9341,1.9402,1.9413,1.9481,1.9572,1.9802,2.0069,2.0186,2.0258,2.0328,2.0381,2.046,2.0543,2.0534,2.0679,2.0742,2.0799,2.0778,2.0777,2.0854,2.0717,2.0597,2.0572,2.054,2.0558,2.0553,2.0471,2.0394,2.0313,2.0158,1.9827,1.9337,1.8601,1.9767,1.9485,2.0137,2.023,1.9957,1.9992,1.9957,1.9759,1.9236,1.9001,1.9001,1.893,1.8501,1.8003,1.8051,1.8329,1.8634,1.8552,1.8867,1.9396,1.97,1.9772,1.9943,2.0327,2.0574,2.0327,2.0344,2.0163,1.9305,1.9119,1.9354,1.9356,1.8805,1.8724,1.9083,1.8882,1.8772,1.8708,1.8745,1.8974,1.895,1.8238,1.7384,1.6756,1.5919,1.5176,1.4398,1.4654,1.4599,1.4374,1.4292,1.4182,1.3702,1.3591,1.3323,1.2873,1.2627,1.2579,1.2556,1.2591,1.2627,1.2627,1.2615,1.3079,1.3815,1.453,1.5446,1.6652,1.7248,1.7536,1.7715,1.7783,1.791,1.8048,1.8156,1.833,1.8528,1.8698,1.8825,1.902,1.9302,1.9366,1.9337,1.9301,1.9298,1.9462,1.9567,1.9802,2.0031,2.0197,2.0277,2.0354,2.0404,2.0452,2.0497,2.0523,2.0792,2.1152,2.123,2.1288,2.1229,2.1188,2.1051,2.0952,2.0573,2.0543,2.056,2.0525,2.0437,2.0355,2.0295,2.0095,1.9764,1.9378,1.8809,1.9688,1.9504,1.9505,1.9371,1.934,1.9395,1.9269,1.9218,1.9056,1.8948,1.8982,1.893,1.8663,1.827,1.798,1.8192,1.851,1.8801,1.918,1.9865,2.034,2.0527,2.0586,2.1233,2.1319,2.1046,2.1047,2.0573,1.983,1.9609,1.9605,1.963,1.9572,1.9536,1.9497,1.9191,1.897,1.8881,1.8803,1.886,1.8822,1.8042,1.7303,1.6824,1.6419,1.5832,1.4894,1.5178,1.5329,1.4891,1.4596,1.4449,1.4256,1.3771,1.3442,1.3185,1.3047,1.2931,1.2709,1.2591,1.2544,1.2579,1.2662,1.3091,1.3893,1.5094,1.615,1.683,1.732,1.7622,1.7817,1.7873,1.7992,1.8163,1.8328,1.8448,1.8603,1.8715,1.8843,1.8968,1.9237,1.9251,1.9226,1.921,1.919,1.9394,1.96,1.9836,2.0031,2.0186,2.0292,2.0366,2.0402,2.0434,2.0662,2.065,2.1027,2.1484,2.1757,2.1854,2.183,2.1788,2.1657,2.1459,2.0982,2.0538,2.0503,2.0449,2.0366,2.0276,2.02,1.9972,1.9669,1.9294,1.8922,2.0462,2.0653,2.1022,2.1098,2.0912,2.0478,2.0354,2.021,1.9448,1.8999,1.8895,1.8824,1.8513,1.8254,1.8542,1.9027,1.9284,1.9522,2.0141,2.0655,2.1102,2.1301,2.1279,2.1393,2.1464,2.1402,2.1119,2.0652,2.0156,1.996,1.9924,1.9722,1.9705,1.9666,1.9617,1.9288,1.9049,1.8755,1.8461,1.8161,1.7962,1.7571,1.7137,1.6794,1.6638,1.6098,1.5743,1.5899,1.603,1.5642,1.5415,1.5103,1.4696,1.428,1.4025,1.3599,1.3709,1.3451,1.284,1.2615,1.2568,1.2567,1.2733,1.3141,1.4083,1.5473,1.6712,1.7264,1.7526,1.7777,1.798,1.8017,1.8117,1.8263,1.8508,1.8592,1.8727,1.8768,1.8895,1.9038,1.9199,1.9399,1.9556,1.9658,1.9575,1.9434,1.9738,2.0072,2.0174,2.0262,2.0334,2.0365,2.0408,2.0429,2.0725,2.0921,2.1402,2.1874,2.2473,2.2546,2.2535,2.2476,2.2216,2.1672,2.1021,2.0692,2.0506,2.0391,2.0308,2.0196,2.0079,1.9821,1.9532,1.9261,1.8782,2.1369,2.1862,2.2224,2.2271,2.2093,2.1518,2.1201,2.1007,1.992,1.9146,1.8824,1.8762,1.8589,1.8545,1.9269,1.9727,1.9974,2.0467,2.113,2.1582,2.1781,2.1748,2.1672,2.1556,2.1402,2.1294,2.0974,2.0599,2.0296,2.0074,1.9899,1.9726,1.9705,1.9617,1.9472,1.9124,1.8745,1.8344,1.7801,1.7529,1.7447,1.7269,1.7047,1.6854,1.668,1.6491,1.6362,1.6552,1.6497,1.6309,1.6044,1.5672,1.5203,1.4915,1.4631,1.4339,1.4462,1.4208,1.3484,1.3043,1.2876,1.2962,1.343,1.4214,1.5276,1.6404,1.749,1.8346,1.7838,1.8087,1.8339,1.8478,1.8366,1.8537,1.8763,1.8816,1.8953,1.9259,1.9643,2.0045,2.0154,1.9993,2.0135,2.0252,2.0065,1.9667,1.9825,2.0314,2.0601,2.0827,2.0932,2.1108,2.0907,2.1117,2.1722,2.1923,2.2165,2.2398,2.299,2.3491,2.3659,2.3079,2.2488,2.1863,2.1216,2.0703,2.043,2.0355,2.0248,2.0068,1.9899,1.9663,1.9411,1.907,1.8574,2.2168,2.2646,2.199,2.1697,2.1584,2.1496,2.1079,2.059,2.008,1.9446,1.89,1.8844,1.9198,1.9554,1.976,2.0206,2.06,2.0683,2.1213,2.1615,2.1781,2.1781,2.1738,2.1648,2.1495,2.1214,2.0811,2.0462,2.0224,1.9909,1.9797,1.9705,1.9581,1.9435,1.9124,1.8745,1.8201,1.7707,1.7157,1.724,1.731,1.7256,1.7005,1.6951,1.6909,1.6795,1.6509,1.6735,1.6837,1.6683,1.6391,1.611,1.5815,1.5516,1.513,1.5049,1.5265,1.5005,1.4447,1.3886,1.3769,1.4069,1.4676,1.5675,1.6919,1.7353,1.8414,1.9556,1.8875,1.8642,1.9043,1.9252,1.8952,1.8974,1.9243,1.9526,1.9738,2.0086,2.0501,2.1033,2.115,2.1025,2.1147,2.1334,2.1247,2.0894,2.0873,2.134,2.1844,2.2076,2.2076,2.206,2.1719,2.21,2.3174,2.332,2.293,2.3263,2.3874,2.4547,2.5066,2.4215,2.3005,2.2328,2.1739,2.1042,2.0361,2.0199,2.0037,1.9882,1.9638,1.9232,1.8714,1.8202,1.7813,2.231,2.2792,2.2993,2.2968,2.2788,2.2319,2.1692,2.1079,2.0859,2.0461,1.979,1.9566,1.9528,1.991,2.0677,2.0815,2.0804,2.123,2.1499,2.1681,2.1781,2.1781,2.1691,2.1417,2.1103,2.0877,2.0444,2.01,1.9889,1.9807,1.9479,1.9332,1.9369,1.9236,1.8936,1.8305,1.7679,1.7227,1.682,1.6808,1.6892,1.7144,1.6976,1.6637,1.7076,1.6921,1.665,1.6833,1.6876,1.6854,1.6619,1.6458,1.6253,1.5931,1.5763,1.567,1.6017,1.5931,1.5607,1.4933,1.4396,1.4646,1.5345,1.653,1.811,1.8397,1.9198,1.9807,1.9816,1.9487,1.9843,1.9876,1.9696,1.9641,1.9808,2.0177,2.0454,2.0755,2.1387,2.1938,2.2114,2.2099,2.2314,2.2564,2.2393,2.2199,2.2231,2.2355,2.2893,2.3234,2.3183,2.3062,2.2733,2.2809,2.3818,2.3747,2.3511,2.4085,2.4686,2.5118,2.5485,2.4787,2.3676,2.2993,2.2171,2.1336,2.0636,2.0109,1.9827,1.9701,1.9206,1.8592,1.8026,1.7378,1.6995,2.2039,2.2733,2.3275,2.3572,2.361,2.3084,2.2463,2.1874,2.1688,2.1324,2.0759,2.0331,2.0237,2.0606,2.1197,2.1516,2.1267,2.1499,2.1698,2.1781,2.1781,2.1738,2.1526,2.1246,2.0942,2.0579,2.0189,1.9874,1.9741,1.9884,1.9583,1.9269,1.9176,1.9212,1.8422,1.7868,1.7199,1.6905,1.6693,1.6522,1.6595,1.6765,1.6905,1.6577,1.6892,1.6976,1.6778,1.6863,1.696,1.696,1.687,1.6728,1.6509,1.6397,1.6375,1.6467,1.6649,1.6824,1.656,1.6139,1.5461,1.5931,1.6355,1.759,1.8663,1.9303,1.993,2.1165,2.0746,2.0262,2.0556,2.0508,2.0078,1.9908,2.0557,2.094,2.1049,2.1312,2.2123,2.2847,2.295,2.3123,2.3407,2.3592,2.3404,2.3248,2.315,2.3405,2.4003,2.4237,2.4187,2.4018,2.377,2.3975,2.4294,2.408,2.3998,2.4583,2.509,2.5251,2.5327,2.4739,2.4066,2.314,2.2302,2.154,2.0872,2.0233,1.9843,1.9559,1.8663,1.7518,1.7169,1.6534,1.6191,2.1261,2.2443,2.2428,2.2912,2.3664,2.37,2.3217,2.2465,2.2171,2.1791,2.1259,2.1121,2.1261,2.1537,2.1715,2.1665,2.1648,2.1715,2.1781,2.1781,2.1708,2.1587,2.1402,2.1151,2.073,2.0326,2.005,1.9854,1.9669,1.9968,1.9677,1.9127,1.8986,1.8962,1.7801,1.7282,1.7002,1.6876,1.6761,1.662,1.6565,1.6637,1.6735,1.6663,1.6863,1.7002,1.6905,1.6989,1.7044,1.6989,1.6989,1.6925,1.686,1.6847,1.692,1.7139,1.7531,1.7477,1.7094,1.6957,1.7073,1.7277,1.7507,1.8542,1.9826,2.0336,2.0586,2.1865,2.1139,2.073,2.0909,2.1094,2.0518,2.0494,2.1109,2.1535,2.1626,2.1976,2.2754,2.334,2.3775,2.4154,2.4454,2.4615,2.4415,2.4244,2.4088,2.4374,2.4895,2.4987,2.4865,2.4788,2.4561,2.4674,2.4784,2.4493,2.453,2.511,2.5421,2.5493,2.5382,2.4987,2.4218,2.3286,2.2716,2.2172,2.1225,2.0307,1.9381,1.8308,1.7221,1.6289,1.6018,1.5687,1.5227,2.0916,2.176,2.2278,2.2962,2.3646,2.3718,2.331,2.2592,2.1896,2.1709,2.1953,2.1513,2.1395,2.1687,2.1781,2.1781,2.1781,2.1781,2.1781,2.1751,2.1617,2.1433,2.1214,2.0811,2.0447,2.0208,2.0015,1.9741,1.9288,1.9839,1.9045,1.8288,1.8246,1.7876,1.7673,1.7316,1.6918,1.6876,1.6705,1.6522,1.6552,1.6808,1.6892,1.6774,1.7086,1.7199,1.7031,1.7086,1.7073,1.7044,1.7044,1.6989,1.7002,1.7002,1.7212,1.7543,1.7882,1.7949,1.7922,1.7935,1.7854,1.8014,1.8288,1.9082,2.0156,2.0735,2.1477,2.2051,2.1602,2.1406,2.1675,2.1425,2.1072,2.1118,2.1569,2.19,2.2175,2.2653,2.3262,2.3668,2.4094,2.4392,2.47,2.4904,2.4823,2.487,2.4745,2.4819,2.5247,2.5286,2.5221,2.5313,2.5258,2.5332,2.5276,2.4939,2.4827,2.5219,2.5444,2.5525,2.5362,2.5146,2.4558,2.3728,2.3303,2.2795,2.1345,1.9829,1.8087,1.6771,1.5625,1.5047,1.4875,1.4477,1.3976,2.0445,2.1231,2.154,2.2335,2.3232,2.3574,2.3437,2.2953,2.2175,2.2148,2.2436,2.182,2.1586,2.177,2.1781,2.1781,2.1781,2.1781,2.1678,2.1648,2.1433,2.1151,2.0811,2.0462,2.0224,2.0061,1.9993,1.9782,1.9442,1.9875,1.9731,1.8904,1.7385,1.7398,1.7393,1.7252,1.6846,1.6761,1.662,1.6534,1.6607,1.6765,1.6934,1.6947,1.7115,1.7323,1.7157,1.7115,1.7157,1.7086,1.7086,1.7073,1.7086,1.7128,1.7378,1.772,1.8083,1.8228,1.84,1.8439,1.8214,1.8082,1.8511,1.9295,2.02,2.0751,2.1395,2.1836,2.1886,2.1853,2.1731,2.1432,2.1401,2.1415,2.1718,2.2034,2.2574,2.3069,2.3437,2.3858,2.4192,2.4508,2.4809,2.4991,2.5101,2.5232,2.5345,2.5454,2.5498,2.5493,2.5484,2.5523,2.5566,2.5531,2.5485,2.5335,2.5297,2.5404,2.5448,2.5476,2.546,2.526,2.4736,2.4192,2.3618,2.2707,2.0964,1.9343,1.8007,1.6023,1.3938,1.3601,1.3691,1.3312,1.2779,1.983,2.0896,2.031,2.1068,2.2566,2.3412,2.3725,2.3747,2.3341,2.2954,2.2678,2.2307,2.2017,2.1823,2.1797,2.1781,2.1781,2.1781,2.1617,2.1402,2.1246,2.0844,2.0496,2.0174,1.998,1.9957,1.9938,1.9849,1.9723,2.0128,2.0514,1.9949,1.7804,1.7401,1.7237,1.7028,1.6731,1.6675,1.662,1.6577,1.6607,1.6693,1.6863,1.6918,1.7073,1.7157,1.7115,1.7199,1.7199,1.7212,1.7212,1.7212,1.7199,1.7199,1.7543,1.7868,1.8321,1.8478,1.8478,1.8478,1.8478,1.8425,1.8912,1.9609,2.0162,2.0685,2.1243,2.1587,2.1713,2.1603,2.1432,2.1355,2.123,2.1432,2.1705,2.2203,2.2754,2.3212,2.3548,2.3883,2.4192,2.4505,2.4891,2.5102,2.5271,2.5408,2.549,2.5517,2.5574,2.5612,2.5588,2.5586,2.5609,2.5566,2.551,2.5387,2.5272,2.5234,2.5313,2.5348,2.536,2.5228,2.4688,2.4167,2.3761,2.2578,2.0542,1.9327,1.846,1.6187,1.3459,1.2669,1.2905,1.2149,1.1786,1.9755,2.1044,2.0329,2.1321,2.3313,2.366,2.3789,2.3743,2.3481,2.3164,2.2824,2.25,2.2113,2.1899,2.1811,2.1781,2.1781,2.1751,2.1587,2.134,2.1023,2.063,2.0292,1.998,1.9818,1.9765,1.9775,1.9723,1.9176,1.9724,1.9555,1.8665,1.7795,1.727,1.6972,1.6696,1.6658,1.6675,1.6663,1.662,1.6663,1.6791,1.6918,1.6947,1.7073,1.7157,1.7199,1.7212,1.7212,1.7212,1.7212,1.7212,1.7212,1.7475,1.7841,1.8279,1.8567,1.8736,1.8556,1.8478,1.8478,1.8556,1.8836,1.9317,1.9934,2.0483,2.0975,2.1246,2.1406,2.1327,2.1261,2.1197,2.126,2.1538,2.1907,2.2538,2.3069,2.3441,2.378,2.408,2.4373,2.4689,2.5041,2.5216,2.5379,2.5507,2.559,2.5595,2.5611,2.5621,2.5585,2.5566,2.5498,2.5434,2.5363,2.5243,2.5141,2.5065,2.5091,2.5034,2.4916,2.4743,2.446,2.3771,2.2758,2.1434,1.9855,1.8841,1.7984,1.5812,1.3364,1.2624,1.1953,1.1291,1.1082,1.9397,2.0168,1.9811,2.0894,2.2757,2.3437,2.352,2.3217,2.3188,2.3007,2.2669,2.2337,2.2073,2.1899,2.1811,2.1781,2.1781,2.1617,2.1402,2.1039,2.0794,2.0326,2.0015,1.9818,1.9762,1.9713,1.9753,1.9767,1.9061,1.8491,1.8271,1.8735,1.7787,1.7104,1.682,1.6688,1.6633,1.6675,1.6675,1.6675,1.6761,1.6876,1.6947,1.7031,1.7115,1.7199,1.7212,1.7212,1.7199,1.7282,1.7282,1.7447,1.7557,1.7935,1.8291,1.8655,1.8731,1.8798,1.8697,1.8542,1.8517,1.8556,1.8683,1.8945,1.95,2.0054,2.0532,2.0942,2.1021,2.1036,2.1054,2.1118,2.1383,2.1672,2.2279,2.288,2.3328,2.3738,2.404,2.4338,2.4617,2.4924,2.5156,2.5343,2.5466,2.5546,2.5586,2.5566,2.5565,2.5581,2.5481,2.5394,2.5311,2.5226,2.5138,2.4987,2.4737,2.4592,2.4639,2.4582,2.4454,2.3952,2.3382,2.2422,2.1345,1.9997,1.8627,1.8104,1.7133,1.4978,1.3202,1.2151,1.1361,1.076,1.0815,1.8968,1.9129,1.9146,2.021,2.1584,2.2823,2.2923,2.2265,2.268,2.2643,2.2293,2.2051,2.1899,2.184,2.1827,2.1781,2.1721,2.1587,2.1277,2.0827,2.0613,2.0224,1.9889,1.9705,1.9705,1.9878,1.9894,1.9736,1.9266,1.8759,1.8563,1.9114,1.7699,1.6913,1.6799,1.662,1.6577,1.6675,1.6718,1.6761,1.6803,1.6918,1.7031,1.7044,1.7128,1.7212,1.7212,1.7199,1.7227,1.7365,1.7516,1.776,1.8187,1.8511,1.8817,1.8945,1.8997,1.8898,1.8812,1.862,1.8517,1.8531,1.857,1.8786,1.9266,1.9867,2.0366,2.0478,2.054,2.0875,2.0975,2.1321,2.1655,2.2113,2.2729,2.3287,2.3723,2.4154,2.4519,2.4735,2.4875,2.5199,2.5582,2.5766,2.5484,2.5561,2.5487,2.5432,2.5148,2.5143,2.4969,2.4852,2.48,2.4701,2.485,2.4647,2.423,2.4087,2.3927,2.3658,2.3204,2.2692,2.215,2.0961,1.9669,1.8608,1.7451,1.6811,1.5981,1.4653,1.2959,1.1585,1.0829,1.0409,1.0327,1.9309,1.9957,2.0625,2.1151,2.1548,2.2164,2.2268,2.1996,2.2375,2.215,2.1693,2.1782,2.1882,2.1869,2.1827,2.1781,2.1751,2.1617,2.1293,2.0942,2.0613,2.0189,1.9833,1.9705,1.9705,1.9683,1.9664,1.9637,1.9333,1.8971,1.8576,1.8571,1.7549,1.7079,1.6786,1.6577,1.6565,1.6718,1.6803,1.6888,1.6918,1.7044,1.717,1.717,1.7212,1.7212,1.7212,1.724,1.7393,1.7625,1.7707,1.8147,1.8784,1.9109,1.9281,1.9332,1.9324,1.9217,1.9075,1.8885,1.8756,1.8679,1.8777,1.8958,1.9319,1.9804,2.0131,2.0117,2.035,2.0807,2.1135,2.157,2.2005,2.26,2.3141,2.362,2.4118,2.4534,2.496,2.5102,2.5178,2.5499,2.5887,2.5907,2.5636,2.5426,2.5222,2.4936,2.4251,2.3986,2.3729,2.3659,2.3952,2.3986,2.4228,2.3715,2.2995,2.2545,2.2276,2.2063,2.1807,2.0726,1.964,1.8967,1.7971,1.6939,1.6028,1.5194,1.4329,1.3525,1.2599,1.1189,1.0881,1.0555,1.0285,1.9219,1.9759,2.0608,2.0933,2.0927,2.1324,2.1381,2.1233,2.1417,2.1328,2.1164,2.1585,2.1882,2.1869,2.1811,2.1781,2.1768,2.1617,2.1246,2.0893,2.0579,2.017,1.9889,1.9705,1.9705,1.9654,1.9325,1.919,1.914,1.8576,1.8096,1.798,1.7441,1.7035,1.6688,1.6577,1.6607,1.6791,1.6876,1.696,1.7031,1.7157,1.7212,1.7212,1.7212,1.7212,1.7282,1.7323,1.7598,1.7894,1.812,1.8679,1.9221,1.9515,1.9766,1.9886,1.9885,1.9792,1.9641,1.945,1.9221,1.9224,1.928,1.9558,1.953,2.0059,2.0727,2.0881,2.2003,2.2559,2.2198,2.2435,2.2679,2.3119,2.3473,2.3844,2.4316,2.4746,2.5042,2.5189,2.5288,2.5444,2.5732,2.579,2.5494,2.5102,2.4904,2.4022,2.3377,2.2524,2.2349,2.2171,2.224,2.3005,2.3543,2.2599,2.1248,2.09,2.034,1.9908,1.9262,1.8078,1.7063,1.6712,1.6237,1.5485,1.4552,1.3695,1.3218,1.2616,1.1719,1.0695,1.0592,1.0411,1.0198,1.9002,1.9127,1.9848,2.0101,2.0055,2.0414,2.0454,2.022,2.0395,2.0545,2.0759,2.1508,2.179,2.1811,2.1781,2.1781,2.1708,2.1495,2.1151,2.0794,2.0429,2.0065,1.9869,1.9705,1.9617,1.942,1.9109,1.8769,1.8495,1.7977,1.7623,1.7337,1.7044,1.6675,1.6663,1.662,1.6607,1.6791,1.6931,1.7044,1.7128,1.7212,1.7212,1.7212,1.7212,1.7212,1.7323,1.7516,1.7747,1.8159,1.8574,1.9095,1.9493,1.9777,2.0057,2.0221,2.0233,2.0323,2.0462,2.0288,2.0133,2.0073,2.0097,2.0094,2.0053,2.0628,2.1325,2.2055,2.3169,2.3694,2.3339,2.3161,2.3406,2.3649,2.3919,2.4265,2.4717,2.5171,2.5421,2.5589,2.5713,2.5848,2.5858,2.5882,2.526,2.484,2.4067,2.3103,2.2147,2.1097,2.0447,2.0151,1.998,2.0962,2.2248,2.0959,1.9192,1.7943,1.7276,1.7147,1.6716,1.5642,1.497,1.4865,1.4336,1.3528,1.301,1.2261,1.1891,1.1615,1.0549,0.9658,0.9489,0.9422,0.9666,1.9036,1.9105,1.9268,1.9543,1.9816,1.9759,1.9688,1.9814,2.0351,2.0545,2.0659,2.1328,2.1811,2.1781,2.1781,2.1768,2.1678,2.1402,2.1119,2.0794,2.0395,2.0015,1.9762,1.9617,1.9384,1.9109,1.8831,1.8394,1.8014,1.7625,1.7227,1.6876,1.6833,1.6663,1.6565,1.6565,1.665,1.6833,1.6918,1.7002,1.717,1.7212,1.7212,1.7212,1.7212,1.7212,1.7323,1.7585,1.7988,1.8447,1.902,1.942,1.9662,1.9912,2.0243,2.0439,2.0431,2.0709,2.0825,2.0798,2.0608,2.0564,2.0601,2.082,2.1128,2.196,2.2456,2.2738,2.3671,2.4413,2.4298,2.4127,2.4241,2.4468,2.4742,2.5161,2.5608,2.619,2.6641,2.6829,2.6993,2.7045,2.7036,2.6367,2.4904,2.4321,2.3378,2.2355,2.1007,1.9834,1.8617,1.8214,1.7876,1.8929,2.0139,1.8446,1.6775,1.5385,1.4375,1.439,1.4038,1.3294,1.2781,1.2637,1.2175,1.146,1.0939,1.0422,1.0685,1.0304,0.9287,0.8515,0.8344,0.8449,0.881]}]]